<?xml version='1.0' encoding='UTF-8'?><gpx version="1.1" creator="JPX - https://github.com/jenetics/jpx" xmlns="http://www.topografix.com/GPX/1/1"><trk><trkseg><trkpt lat="45.5954756" lon="12.3124458"><ele>3.75</ele><time>2026-04-06T15:34:26.2Z</time></trkpt><trkpt lat="45.5956206" lon="12.3121592"><ele>3.5</ele><time>2026-04-06T15:34:41.188Z</time></trkpt><trkpt lat="45.5956704" lon="12.3120767"><ele>3.25</ele><time>2026-04-06T15:34:46.207Z</time></trkpt><trkpt lat="45.5956237" lon="12.3119978"><ele>3.0</ele><time>2026-04-06T15:34:49.209Z</time></trkpt><trkpt lat="45.595568" lon="12.3119353"><ele>2.9999999999999996</ele><time>2026-04-06T15:34:51.194Z</time></trkpt><trkpt lat="45.5955141" lon="12.311865"><ele>3.0</ele><time>2026-04-06T15:34:53.193Z</time></trkpt><trkpt lat="45.5954641" lon="12.3117984"><ele>3.0</ele><time>2026-04-06T15:34:55.2Z</time></trkpt><trkpt lat="45.5954062" lon="12.3117224"><ele>3.0</ele><time>2026-04-06T15:34:57.203Z</time></trkpt><trkpt lat="45.5953488" lon="12.3116539"><ele>3.0</ele><time>2026-04-06T15:34:59.197Z</time></trkpt><trkpt lat="45.5952906" lon="12.3115844"><ele>2.9999999999999996</ele><time>2026-04-06T15:35:01.194Z</time></trkpt><trkpt lat="45.5952309" lon="12.3115144"><ele>3.0</ele><time>2026-04-06T15:35:03.198Z</time></trkpt><trkpt lat="45.5951698" lon="12.311443"><ele>2.8333333333333335</ele><time>2026-04-06T15:35:05.205Z</time></trkpt><trkpt lat="45.5951104" lon="12.3113711"><ele>2.6666666666666665</ele><time>2026-04-06T15:35:07.193Z</time></trkpt><trkpt lat="45.5950549" lon="12.3112919"><ele>2.5</ele><time>2026-04-06T15:35:09.214Z</time></trkpt><trkpt lat="45.5949938" lon="12.3112149"><ele>2.333333333333333</ele><time>2026-04-06T15:35:11.191Z</time></trkpt><trkpt lat="45.5949238" lon="12.3111521"><ele>2.1666666666666665</ele><time>2026-04-06T15:35:13.197Z</time></trkpt><trkpt lat="45.5948572" lon="12.3111186"><ele>2.0</ele><time>2026-04-06T15:35:15.211Z</time></trkpt><trkpt lat="45.5947863" lon="12.3110911"><ele>1.9999999999999998</ele><time>2026-04-06T15:35:17.188Z</time></trkpt><trkpt lat="45.5947107" lon="12.3110612"><ele>2.0</ele><time>2026-04-06T15:35:19.19Z</time></trkpt><trkpt lat="45.5946426" lon="12.3110227"><ele>2.0</ele><time>2026-04-06T15:35:21.208Z</time></trkpt><trkpt lat="45.5945837" lon="12.3109644"><ele>2.0</ele><time>2026-04-06T15:35:23.203Z</time></trkpt><trkpt lat="45.5945153" lon="12.310878"><ele>1.9999999999999998</ele><time>2026-04-06T15:35:25.193Z</time></trkpt><trkpt lat="45.5944484" lon="12.3108002"><ele>2.0</ele><time>2026-04-06T15:35:27.19Z</time></trkpt><trkpt lat="45.5943846" lon="12.3107282"><ele>1.9999999999999998</ele><time>2026-04-06T15:35:29.21Z</time></trkpt><trkpt lat="45.5943223" lon="12.3106529"><ele>2.0</ele><time>2026-04-06T15:35:31.195Z</time></trkpt><trkpt lat="45.5942508" lon="12.310579"><ele>2.0</ele><time>2026-04-06T15:35:33.198Z</time></trkpt><trkpt lat="45.59418" lon="12.3105143"><ele>2.0</ele><time>2026-04-06T15:35:35.229Z</time></trkpt><trkpt lat="45.5941026" lon="12.3104542"><ele>1.9999999999999998</ele><time>2026-04-06T15:35:37.218Z</time></trkpt><trkpt lat="45.5940404" lon="12.3103908"><ele>2.0</ele><time>2026-04-06T15:35:39.209Z</time></trkpt><trkpt lat="45.593971" lon="12.3103236"><ele>2.1666666666666665</ele><time>2026-04-06T15:35:41.216Z</time></trkpt><trkpt lat="45.5938953" lon="12.3102583"><ele>2.333333333333333</ele><time>2026-04-06T15:35:43.222Z</time></trkpt><trkpt lat="45.5938232" lon="12.3101936"><ele>2.5</ele><time>2026-04-06T15:35:45.207Z</time></trkpt><trkpt lat="45.5937647" lon="12.3101308"><ele>2.6666666666666665</ele><time>2026-04-06T15:35:47.226Z</time></trkpt><trkpt lat="45.5936901" lon="12.3100546"><ele>2.8333333333333335</ele><time>2026-04-06T15:35:49.209Z</time></trkpt><trkpt lat="45.5936176" lon="12.3099792"><ele>3.0</ele><time>2026-04-06T15:35:51.204Z</time></trkpt><trkpt lat="45.5935495" lon="12.3098999"><ele>3.1666666666666665</ele><time>2026-04-06T15:35:53.211Z</time></trkpt><trkpt lat="45.5934822" lon="12.3098221"><ele>3.333333333333333</ele><time>2026-04-06T15:35:55.209Z</time></trkpt><trkpt lat="45.5934127" lon="12.3097446"><ele>3.5</ele><time>2026-04-06T15:35:57.211Z</time></trkpt><trkpt lat="45.5933463" lon="12.3096688"><ele>3.6666666666666665</ele><time>2026-04-06T15:35:59.207Z</time></trkpt><trkpt lat="45.5932814" lon="12.3095935"><ele>3.833333333333333</ele><time>2026-04-06T15:36:01.217Z</time></trkpt><trkpt lat="45.5932181" lon="12.3095165"><ele>4.0</ele><time>2026-04-06T15:36:03.223Z</time></trkpt><trkpt lat="45.5931538" lon="12.3094452"><ele>3.9999999999999996</ele><time>2026-04-06T15:36:05.219Z</time></trkpt><trkpt lat="45.5930861" lon="12.309374"><ele>4.0</ele><time>2026-04-06T15:36:07.212Z</time></trkpt><trkpt lat="45.5930239" lon="12.3092969"><ele>4.0</ele><time>2026-04-06T15:36:09.211Z</time></trkpt><trkpt lat="45.5929569" lon="12.3092136"><ele>4.0</ele><time>2026-04-06T15:36:11.227Z</time></trkpt><trkpt lat="45.5928948" lon="12.3091498"><ele>3.9999999999999996</ele><time>2026-04-06T15:36:13.226Z</time></trkpt><trkpt lat="45.5928399" lon="12.3090859"><ele>4.0</ele><time>2026-04-06T15:36:15.222Z</time></trkpt><trkpt lat="45.5927782" lon="12.3090077"><ele>3.9999999999999996</ele><time>2026-04-06T15:36:17.216Z</time></trkpt><trkpt lat="45.5927134" lon="12.3089308"><ele>4.0</ele><time>2026-04-06T15:36:19.209Z</time></trkpt><trkpt lat="45.5926545" lon="12.30886"><ele>4.0</ele><time>2026-04-06T15:36:21.224Z</time></trkpt><trkpt lat="45.592582" lon="12.3087768"><ele>4.0</ele><time>2026-04-06T15:36:23.218Z</time></trkpt><trkpt lat="45.5925154" lon="12.3086986"><ele>3.9999999999999996</ele><time>2026-04-06T15:36:25.213Z</time></trkpt><trkpt lat="45.5924541" lon="12.3086279"><ele>4.0</ele><time>2026-04-06T15:36:27.227Z</time></trkpt><trkpt lat="45.5923837" lon="12.3085603"><ele>3.9999999999999996</ele><time>2026-04-06T15:36:29.209Z</time></trkpt><trkpt lat="45.5923104" lon="12.3084921"><ele>4.0</ele><time>2026-04-06T15:36:31.208Z</time></trkpt><trkpt lat="45.592242" lon="12.3084329"><ele>4.0</ele><time>2026-04-06T15:36:33.209Z</time></trkpt><trkpt lat="45.5921667" lon="12.3083719"><ele>4.0</ele><time>2026-04-06T15:36:35.206Z</time></trkpt><trkpt lat="45.5920996" lon="12.3083173"><ele>3.9999999999999996</ele><time>2026-04-06T15:36:37.212Z</time></trkpt><trkpt lat="45.5920313" lon="12.3082639"><ele>4.0</ele><time>2026-04-06T15:36:39.208Z</time></trkpt><trkpt lat="45.5919543" lon="12.3082117"><ele>4.166666666666666</ele><time>2026-04-06T15:36:41.225Z</time></trkpt><trkpt lat="45.5918812" lon="12.3081543"><ele>4.333333333333333</ele><time>2026-04-06T15:36:43.211Z</time></trkpt><trkpt lat="45.5918124" lon="12.3080977"><ele>4.5</ele><time>2026-04-06T15:36:45.217Z</time></trkpt><trkpt lat="45.5917456" lon="12.3080486"><ele>4.666666666666667</ele><time>2026-04-06T15:36:47.217Z</time></trkpt><trkpt lat="45.591691" lon="12.3079833"><ele>4.833333333333334</ele><time>2026-04-06T15:36:49.217Z</time></trkpt><trkpt lat="45.5916262" lon="12.3079126"><ele>5.0</ele><time>2026-04-06T15:36:51.211Z</time></trkpt><trkpt lat="45.5915782" lon="12.3078454"><ele>5.166666666666667</ele><time>2026-04-06T15:36:53.229Z</time></trkpt><trkpt lat="45.5915311" lon="12.3077807"><ele>5.333333333333334</ele><time>2026-04-06T15:36:55.23Z</time></trkpt><trkpt lat="45.5914883" lon="12.3077145"><ele>5.5</ele><time>2026-04-06T15:36:57.211Z</time></trkpt><trkpt lat="45.5914297" lon="12.3076277"><ele>5.666666666666667</ele><time>2026-04-06T15:36:59.209Z</time></trkpt><trkpt lat="45.5913744" lon="12.3075328"><ele>5.833333333333333</ele><time>2026-04-06T15:37:01.216Z</time></trkpt><trkpt lat="45.5913203" lon="12.3074363"><ele>6.0</ele><time>2026-04-06T15:37:03.224Z</time></trkpt><trkpt lat="45.5912782" lon="12.3073539"><ele>6.0</ele><time>2026-04-06T15:37:05.222Z</time></trkpt><trkpt lat="45.5912399" lon="12.3072796"><ele>6.0</ele><time>2026-04-06T15:37:07.217Z</time></trkpt><trkpt lat="45.5911978" lon="12.3072085"><ele>6.0</ele><time>2026-04-06T15:37:09.241Z</time></trkpt><trkpt lat="45.5911525" lon="12.3071234"><ele>6.0</ele><time>2026-04-06T15:37:11.216Z</time></trkpt><trkpt lat="45.591109" lon="12.3070303"><ele>6.0</ele><time>2026-04-06T15:37:13.233Z</time></trkpt><trkpt lat="45.591059" lon="12.3069539"><ele>6.0</ele><time>2026-04-06T15:37:15.219Z</time></trkpt><trkpt lat="45.5909643" lon="12.3069373"><ele>5.833333333333333</ele><time>2026-04-06T15:37:18.221Z</time></trkpt><trkpt lat="45.5908947" lon="12.30693"><ele>5.666666666666667</ele><time>2026-04-06T15:37:20.211Z</time></trkpt><trkpt lat="45.5908181" lon="12.3069086"><ele>5.5</ele><time>2026-04-06T15:37:22.211Z</time></trkpt><trkpt lat="45.5907459" lon="12.3068849"><ele>5.333333333333334</ele><time>2026-04-06T15:37:24.226Z</time></trkpt><trkpt lat="45.5906697" lon="12.3068511"><ele>5.166666666666667</ele><time>2026-04-06T15:37:26.215Z</time></trkpt><trkpt lat="45.5905961" lon="12.30683"><ele>5.0</ele><time>2026-04-06T15:37:28.211Z</time></trkpt><trkpt lat="45.590516" lon="12.3068086"><ele>5.0</ele><time>2026-04-06T15:37:30.22Z</time></trkpt><trkpt lat="45.5904412" lon="12.3067879"><ele>5.0</ele><time>2026-04-06T15:37:32.225Z</time></trkpt><trkpt lat="45.5903714" lon="12.306774"><ele>5.0</ele><time>2026-04-06T15:37:34.217Z</time></trkpt><trkpt lat="45.5902996" lon="12.3067581"><ele>5.0</ele><time>2026-04-06T15:37:36.231Z</time></trkpt><trkpt lat="45.5902319" lon="12.3067437"><ele>5.0</ele><time>2026-04-06T15:37:38.214Z</time></trkpt><trkpt lat="45.5901636" lon="12.3067224"><ele>5.0</ele><time>2026-04-06T15:37:40.212Z</time></trkpt><trkpt lat="45.5900933" lon="12.3067096"><ele>5.0</ele><time>2026-04-06T15:37:42.22Z</time></trkpt><trkpt lat="45.5900159" lon="12.3066958"><ele>5.0</ele><time>2026-04-06T15:37:44.216Z</time></trkpt><trkpt lat="45.5899262" lon="12.3066915"><ele>5.0</ele><time>2026-04-06T15:37:47.208Z</time></trkpt><trkpt lat="45.5898373" lon="12.3066405"><ele>5.0</ele><time>2026-04-06T15:37:50.22Z</time></trkpt><trkpt lat="45.5897758" lon="12.3066068"><ele>5.0</ele><time>2026-04-06T15:37:52.216Z</time></trkpt><trkpt lat="45.5897085" lon="12.3066025"><ele>5.0</ele><time>2026-04-06T15:37:55.228Z</time></trkpt><trkpt lat="45.589663" lon="12.3065228"><ele>5.0</ele><time>2026-04-06T15:37:58.221Z</time></trkpt><trkpt lat="45.5896383" lon="12.3064079"><ele>5.0</ele><time>2026-04-06T15:38:00.224Z</time></trkpt><trkpt lat="45.5895827" lon="12.3062929"><ele>5.0</ele><time>2026-04-06T15:38:02.213Z</time></trkpt><trkpt lat="45.5895325" lon="12.3061874"><ele>5.0</ele><time>2026-04-06T15:38:04.233Z</time></trkpt><trkpt lat="45.589485" lon="12.306088"><ele>5.0</ele><time>2026-04-06T15:38:06.225Z</time></trkpt><trkpt lat="45.5894349" lon="12.3059974"><ele>5.0</ele><time>2026-04-06T15:38:08.221Z</time></trkpt><trkpt lat="45.5893802" lon="12.3059056"><ele>5.0</ele><time>2026-04-06T15:38:10.22Z</time></trkpt><trkpt lat="45.589326" lon="12.3058117"><ele>5.0</ele><time>2026-04-06T15:38:12.235Z</time></trkpt><trkpt lat="45.5892749" lon="12.3057148"><ele>5.0</ele><time>2026-04-06T15:38:14.22Z</time></trkpt><trkpt lat="45.5892209" lon="12.3056175"><ele>5.0</ele><time>2026-04-06T15:38:16.213Z</time></trkpt><trkpt lat="45.5891705" lon="12.3055317"><ele>5.0</ele><time>2026-04-06T15:38:18.21Z</time></trkpt><trkpt lat="45.5891163" lon="12.3054564"><ele>5.0</ele><time>2026-04-06T15:38:20.221Z</time></trkpt><trkpt lat="45.5890596" lon="12.3053682"><ele>5.0</ele><time>2026-04-06T15:38:22.226Z</time></trkpt><trkpt lat="45.5890073" lon="12.3052677"><ele>5.0</ele><time>2026-04-06T15:38:24.216Z</time></trkpt><trkpt lat="45.5889584" lon="12.3051655"><ele>5.0</ele><time>2026-04-06T15:38:26.213Z</time></trkpt><trkpt lat="45.588906" lon="12.3050672"><ele>5.0</ele><time>2026-04-06T15:38:28.222Z</time></trkpt><trkpt lat="45.5888532" lon="12.3049719"><ele>5.0</ele><time>2026-04-06T15:38:30.24Z</time></trkpt><trkpt lat="45.5888068" lon="12.3048661"><ele>5.0</ele><time>2026-04-06T15:38:32.239Z</time></trkpt><trkpt lat="45.5887574" lon="12.3047686"><ele>5.0</ele><time>2026-04-06T15:38:34.218Z</time></trkpt><trkpt lat="45.5887063" lon="12.3046692"><ele>4.833333333333334</ele><time>2026-04-06T15:38:36.222Z</time></trkpt><trkpt lat="45.588655" lon="12.3045755"><ele>4.666666666666667</ele><time>2026-04-06T15:38:38.222Z</time></trkpt><trkpt lat="45.5886059" lon="12.3044755"><ele>4.5</ele><time>2026-04-06T15:38:40.219Z</time></trkpt><trkpt lat="45.5885592" lon="12.3043773"><ele>4.333333333333333</ele><time>2026-04-06T15:38:42.221Z</time></trkpt><trkpt lat="45.5885123" lon="12.3042721"><ele>4.166666666666666</ele><time>2026-04-06T15:38:44.22Z</time></trkpt><trkpt lat="45.5884637" lon="12.30417"><ele>4.0</ele><time>2026-04-06T15:38:46.224Z</time></trkpt><trkpt lat="45.5884063" lon="12.3040587"><ele>3.9999999999999996</ele><time>2026-04-06T15:38:48.211Z</time></trkpt><trkpt lat="45.5883664" lon="12.303963"><ele>4.0</ele><time>2026-04-06T15:38:50.224Z</time></trkpt><trkpt lat="45.5883065" lon="12.3038611"><ele>4.0</ele><time>2026-04-06T15:38:52.217Z</time></trkpt><trkpt lat="45.5882489" lon="12.3037681"><ele>4.0</ele><time>2026-04-06T15:38:54.229Z</time></trkpt><trkpt lat="45.5881914" lon="12.3036743"><ele>3.9999999999999996</ele><time>2026-04-06T15:38:56.223Z</time></trkpt><trkpt lat="45.5881362" lon="12.3035737"><ele>4.0</ele><time>2026-04-06T15:38:58.221Z</time></trkpt><trkpt lat="45.5880838" lon="12.3034768"><ele>3.9999999999999996</ele><time>2026-04-06T15:39:00.214Z</time></trkpt><trkpt lat="45.5880331" lon="12.3033771"><ele>4.0</ele><time>2026-04-06T15:39:02.215Z</time></trkpt><trkpt lat="45.5879825" lon="12.3032795"><ele>4.0</ele><time>2026-04-06T15:39:04.215Z</time></trkpt><trkpt lat="45.587933" lon="12.3031751"><ele>4.0</ele><time>2026-04-06T15:39:06.228Z</time></trkpt><trkpt lat="45.5878843" lon="12.3030716"><ele>3.9999999999999996</ele><time>2026-04-06T15:39:08.213Z</time></trkpt><trkpt lat="45.5878424" lon="12.3029646"><ele>4.0</ele><time>2026-04-06T15:39:10.219Z</time></trkpt><trkpt lat="45.5878158" lon="12.3028474"><ele>3.9999999999999996</ele><time>2026-04-06T15:39:12.218Z</time></trkpt><trkpt lat="45.5878008" lon="12.3027126"><ele>4.0</ele><time>2026-04-06T15:39:14.216Z</time></trkpt><trkpt lat="45.58781" lon="12.3025866"><ele>4.0</ele><time>2026-04-06T15:39:16.23Z</time></trkpt><trkpt lat="45.5878254" lon="12.3024477"><ele>4.0</ele><time>2026-04-06T15:39:18.218Z</time></trkpt><trkpt lat="45.587836" lon="12.3023299"><ele>3.9999999999999996</ele><time>2026-04-06T15:39:20.221Z</time></trkpt><trkpt lat="45.5878506" lon="12.3022155"><ele>4.0</ele><time>2026-04-06T15:39:22.218Z</time></trkpt><trkpt lat="45.5878617" lon="12.3020969"><ele>4.0</ele><time>2026-04-06T15:39:24.219Z</time></trkpt><trkpt lat="45.5878703" lon="12.3019671"><ele>4.0</ele><time>2026-04-06T15:39:26.219Z</time></trkpt><trkpt lat="45.587882" lon="12.3018277"><ele>4.0</ele><time>2026-04-06T15:39:28.212Z</time></trkpt><trkpt lat="45.5878937" lon="12.3016984"><ele>4.0</ele><time>2026-04-06T15:39:30.225Z</time></trkpt><trkpt lat="45.5879029" lon="12.3015776"><ele>4.0</ele><time>2026-04-06T15:39:32.221Z</time></trkpt><trkpt lat="45.5879099" lon="12.3014516"><ele>4.333333333333333</ele><time>2026-04-06T15:39:34.215Z</time></trkpt><trkpt lat="45.5879197" lon="12.30133"><ele>4.666666666666666</ele><time>2026-04-06T15:39:36.214Z</time></trkpt><trkpt lat="45.5879306" lon="12.3012144"><ele>5.0</ele><time>2026-04-06T15:39:38.212Z</time></trkpt><trkpt lat="45.5879381" lon="12.3011063"><ele>5.333333333333333</ele><time>2026-04-06T15:39:40.213Z</time></trkpt><trkpt lat="45.5879387" lon="12.301"><ele>5.666666666666667</ele><time>2026-04-06T15:39:42.22Z</time></trkpt><trkpt lat="45.5879484" lon="12.3009036"><ele>6.0</ele><time>2026-04-06T15:39:44.241Z</time></trkpt><trkpt lat="45.5878993" lon="12.3008228"><ele>6.0</ele><time>2026-04-06T15:39:47.241Z</time></trkpt><trkpt lat="45.5878157" lon="12.300771"><ele>6.0</ele><time>2026-04-06T15:39:50.228Z</time></trkpt><trkpt lat="45.5877464" lon="12.3007594"><ele>6.0</ele><time>2026-04-06T15:39:52.25Z</time></trkpt><trkpt lat="45.5876673" lon="12.300742"><ele>6.0</ele><time>2026-04-06T15:39:54.231Z</time></trkpt><trkpt lat="45.587585" lon="12.3007328"><ele>6.0</ele><time>2026-04-06T15:39:56.219Z</time></trkpt><trkpt lat="45.5875099" lon="12.3007171"><ele>6.0</ele><time>2026-04-06T15:39:58.227Z</time></trkpt><trkpt lat="45.5874285" lon="12.3007031"><ele>6.0</ele><time>2026-04-06T15:40:00.23Z</time></trkpt><trkpt lat="45.5873457" lon="12.3006886"><ele>6.0</ele><time>2026-04-06T15:40:02.233Z</time></trkpt><trkpt lat="45.5872682" lon="12.300675"><ele>6.0</ele><time>2026-04-06T15:40:04.228Z</time></trkpt><trkpt lat="45.5871866" lon="12.3006615"><ele>6.0</ele><time>2026-04-06T15:40:06.24Z</time></trkpt><trkpt lat="45.5871051" lon="12.3006532"><ele>6.0</ele><time>2026-04-06T15:40:08.246Z</time></trkpt><trkpt lat="45.5870175" lon="12.3006413"><ele>6.0</ele><time>2026-04-06T15:40:10.231Z</time></trkpt><trkpt lat="45.5869346" lon="12.3006246"><ele>5.833333333333333</ele><time>2026-04-06T15:40:12.23Z</time></trkpt><trkpt lat="45.58685" lon="12.3006143"><ele>5.666666666666667</ele><time>2026-04-06T15:40:14.233Z</time></trkpt><trkpt lat="45.5867639" lon="12.3006092"><ele>5.5</ele><time>2026-04-06T15:40:16.233Z</time></trkpt><trkpt lat="45.5866762" lon="12.3006129"><ele>5.333333333333334</ele><time>2026-04-06T15:40:18.233Z</time></trkpt><trkpt lat="45.5865998" lon="12.30064"><ele>5.166666666666667</ele><time>2026-04-06T15:40:20.241Z</time></trkpt><trkpt lat="45.5865373" lon="12.3007027"><ele>5.0</ele><time>2026-04-06T15:40:22.237Z</time></trkpt><trkpt lat="45.5864764" lon="12.3008004"><ele>5.0</ele><time>2026-04-06T15:40:24.234Z</time></trkpt><trkpt lat="45.5864137" lon="12.3008937"><ele>5.0</ele><time>2026-04-06T15:40:26.242Z</time></trkpt><trkpt lat="45.5863183" lon="12.3009263"><ele>5.0</ele><time>2026-04-06T15:40:28.229Z</time></trkpt><trkpt lat="45.5862004" lon="12.3009302"><ele>5.0</ele><time>2026-04-06T15:40:30.255Z</time></trkpt><trkpt lat="45.5860777" lon="12.3009159"><ele>5.0</ele><time>2026-04-06T15:40:32.226Z</time></trkpt><trkpt lat="45.5859698" lon="12.3008978"><ele>4.6</ele><time>2026-04-06T15:40:34.225Z</time></trkpt><trkpt lat="45.5858602" lon="12.3009198"><ele>4.2</ele><time>2026-04-06T15:40:36.238Z</time></trkpt><trkpt lat="45.5857761" lon="12.3009878"><ele>3.8</ele><time>2026-04-06T15:40:38.227Z</time></trkpt><trkpt lat="45.5857098" lon="12.3011306"><ele>3.4</ele><time>2026-04-06T15:40:40.237Z</time></trkpt><trkpt lat="45.5856631" lon="12.3012777"><ele>3.0</ele><time>2026-04-06T15:40:42.239Z</time></trkpt><trkpt lat="45.5856334" lon="12.3014245"><ele>3.0</ele><time>2026-04-06T15:40:44.248Z</time></trkpt><trkpt lat="45.5856386" lon="12.3015776"><ele>3.0</ele><time>2026-04-06T15:40:46.233Z</time></trkpt><trkpt lat="45.5856361" lon="12.3017178"><ele>3.0</ele><time>2026-04-06T15:40:48.242Z</time></trkpt><trkpt lat="45.5856247" lon="12.3018509"><ele>3.0</ele><time>2026-04-06T15:40:50.237Z</time></trkpt><trkpt lat="45.5856093" lon="12.3019786"><ele>3.0</ele><time>2026-04-06T15:40:52.249Z</time></trkpt><trkpt lat="45.5855826" lon="12.3020946"><ele>3.0</ele><time>2026-04-06T15:40:54.231Z</time></trkpt><trkpt lat="45.5855588" lon="12.3022212"><ele>3.0</ele><time>2026-04-06T15:40:56.25Z</time></trkpt><trkpt lat="45.5855167" lon="12.3023321"><ele>3.0</ele><time>2026-04-06T15:40:58.266Z</time></trkpt><trkpt lat="45.5854721" lon="12.3024546"><ele>3.0</ele><time>2026-04-06T15:41:00.232Z</time></trkpt><trkpt lat="45.5854253" lon="12.3025748"><ele>3.0</ele><time>2026-04-06T15:41:02.229Z</time></trkpt><trkpt lat="45.5853763" lon="12.3026844"><ele>3.0</ele><time>2026-04-06T15:41:04.23Z</time></trkpt><trkpt lat="45.5853209" lon="12.3027916"><ele>3.0</ele><time>2026-04-06T15:41:06.248Z</time></trkpt><trkpt lat="45.585258" lon="12.3028954"><ele>3.0</ele><time>2026-04-06T15:41:08.227Z</time></trkpt><trkpt lat="45.5851928" lon="12.303002"><ele>3.0</ele><time>2026-04-06T15:41:10.237Z</time></trkpt><trkpt lat="45.5851203" lon="12.3030976"><ele>3.0</ele><time>2026-04-06T15:41:12.241Z</time></trkpt><trkpt lat="45.5850592" lon="12.3031874"><ele>3.2</ele><time>2026-04-06T15:41:14.237Z</time></trkpt><trkpt lat="45.5849895" lon="12.3032847"><ele>3.4</ele><time>2026-04-06T15:41:16.231Z</time></trkpt><trkpt lat="45.584924" lon="12.3033729"><ele>3.6000000000000005</ele><time>2026-04-06T15:41:18.228Z</time></trkpt><trkpt lat="45.5848596" lon="12.3034638"><ele>3.8000000000000003</ele><time>2026-04-06T15:41:20.238Z</time></trkpt><trkpt lat="45.584799" lon="12.3035549"><ele>4.0</ele><time>2026-04-06T15:41:22.23Z</time></trkpt><trkpt lat="45.5847336" lon="12.3036467"><ele>4.0</ele><time>2026-04-06T15:41:24.233Z</time></trkpt><trkpt lat="45.5846684" lon="12.3037495"><ele>4.0</ele><time>2026-04-06T15:41:26.238Z</time></trkpt><trkpt lat="45.5846037" lon="12.3038568"><ele>4.0</ele><time>2026-04-06T15:41:28.238Z</time></trkpt><trkpt lat="45.584548" lon="12.3039431"><ele>4.0</ele><time>2026-04-06T15:41:30.231Z</time></trkpt><trkpt lat="45.5844813" lon="12.3040415"><ele>4.0</ele><time>2026-04-06T15:41:32.245Z</time></trkpt><trkpt lat="45.5844165" lon="12.3041278"><ele>4.166666666666666</ele><time>2026-04-06T15:41:34.241Z</time></trkpt><trkpt lat="45.5843514" lon="12.304217"><ele>4.333333333333333</ele><time>2026-04-06T15:41:36.234Z</time></trkpt><trkpt lat="45.5842896" lon="12.3043082"><ele>4.5</ele><time>2026-04-06T15:41:38.253Z</time></trkpt><trkpt lat="45.5842295" lon="12.3043984"><ele>4.666666666666667</ele><time>2026-04-06T15:41:40.231Z</time></trkpt><trkpt lat="45.5841658" lon="12.3044905"><ele>4.833333333333334</ele><time>2026-04-06T15:41:42.246Z</time></trkpt><trkpt lat="45.5841044" lon="12.3045802"><ele>5.0</ele><time>2026-04-06T15:41:44.235Z</time></trkpt><trkpt lat="45.5840462" lon="12.3046673"><ele>4.833333333333334</ele><time>2026-04-06T15:41:46.242Z</time></trkpt><trkpt lat="45.5839826" lon="12.3047579"><ele>4.666666666666667</ele><time>2026-04-06T15:41:48.238Z</time></trkpt><trkpt lat="45.583919" lon="12.3048474"><ele>4.5</ele><time>2026-04-06T15:41:50.231Z</time></trkpt><trkpt lat="45.5838556" lon="12.3049383"><ele>4.333333333333333</ele><time>2026-04-06T15:41:52.232Z</time></trkpt><trkpt lat="45.5837921" lon="12.3050254"><ele>4.166666666666666</ele><time>2026-04-06T15:41:54.242Z</time></trkpt><trkpt lat="45.5837293" lon="12.3051161"><ele>4.0</ele><time>2026-04-06T15:41:56.225Z</time></trkpt><trkpt lat="45.5836731" lon="12.3052057"><ele>3.9999999999999996</ele><time>2026-04-06T15:41:58.224Z</time></trkpt><trkpt lat="45.5836144" lon="12.3052962"><ele>4.0</ele><time>2026-04-06T15:42:00.234Z</time></trkpt><trkpt lat="45.583557" lon="12.3053858"><ele>4.0</ele><time>2026-04-06T15:42:02.242Z</time></trkpt><trkpt lat="45.5835017" lon="12.3054838"><ele>4.0</ele><time>2026-04-06T15:42:04.261Z</time></trkpt><trkpt lat="45.5834478" lon="12.3055853"><ele>3.9999999999999996</ele><time>2026-04-06T15:42:06.229Z</time></trkpt><trkpt lat="45.5833876" lon="12.305685"><ele>4.0</ele><time>2026-04-06T15:42:08.228Z</time></trkpt><trkpt lat="45.5833457" lon="12.3058004"><ele>3.9999999999999996</ele><time>2026-04-06T15:42:10.234Z</time></trkpt><trkpt lat="45.5833049" lon="12.305915"><ele>4.0</ele><time>2026-04-06T15:42:12.243Z</time></trkpt><trkpt lat="45.5832659" lon="12.3060279"><ele>4.0</ele><time>2026-04-06T15:42:14.234Z</time></trkpt><trkpt lat="45.5832324" lon="12.3061409"><ele>4.0</ele><time>2026-04-06T15:42:16.23Z</time></trkpt><trkpt lat="45.5832001" lon="12.3062618"><ele>3.9999999999999996</ele><time>2026-04-06T15:42:18.248Z</time></trkpt><trkpt lat="45.5831707" lon="12.3063877"><ele>4.0</ele><time>2026-04-06T15:42:20.231Z</time></trkpt><trkpt lat="45.5831451" lon="12.3065138"><ele>4.2</ele><time>2026-04-06T15:42:22.24Z</time></trkpt><trkpt lat="45.5831292" lon="12.3066375"><ele>4.4</ele><time>2026-04-06T15:42:24.243Z</time></trkpt><trkpt lat="45.5831097" lon="12.3067605"><ele>4.6</ele><time>2026-04-06T15:42:26.233Z</time></trkpt><trkpt lat="45.5830874" lon="12.3068972"><ele>4.8</ele><time>2026-04-06T15:42:28.246Z</time></trkpt><trkpt lat="45.5830682" lon="12.307032"><ele>5.0</ele><time>2026-04-06T15:42:30.229Z</time></trkpt><trkpt lat="45.5830477" lon="12.3071648"><ele>5.0</ele><time>2026-04-06T15:42:32.229Z</time></trkpt><trkpt lat="45.5830294" lon="12.3072936"><ele>5.0</ele><time>2026-04-06T15:42:34.236Z</time></trkpt><trkpt lat="45.5830091" lon="12.3074385"><ele>5.0</ele><time>2026-04-06T15:42:36.232Z</time></trkpt><trkpt lat="45.5829943" lon="12.3075651"><ele>5.0</ele><time>2026-04-06T15:42:38.241Z</time></trkpt><trkpt lat="45.5829788" lon="12.3076873"><ele>5.0</ele><time>2026-04-06T15:42:40.229Z</time></trkpt><trkpt lat="45.5829683" lon="12.3078091"><ele>5.0</ele><time>2026-04-06T15:42:42.236Z</time></trkpt><trkpt lat="45.5829608" lon="12.3079317"><ele>5.0</ele><time>2026-04-06T15:42:44.231Z</time></trkpt><trkpt lat="45.5829521" lon="12.3080625"><ele>5.0</ele><time>2026-04-06T15:42:46.241Z</time></trkpt><trkpt lat="45.5829413" lon="12.3081912"><ele>5.0</ele><time>2026-04-06T15:42:48.238Z</time></trkpt><trkpt lat="45.5829291" lon="12.3083073"><ele>5.0</ele><time>2026-04-06T15:42:50.219Z</time></trkpt><trkpt lat="45.5829146" lon="12.3084321"><ele>5.0</ele><time>2026-04-06T15:42:52.243Z</time></trkpt><trkpt lat="45.5829006" lon="12.3085502"><ele>4.833333333333334</ele><time>2026-04-06T15:42:54.236Z</time></trkpt><trkpt lat="45.5828835" lon="12.3086715"><ele>4.666666666666667</ele><time>2026-04-06T15:42:56.229Z</time></trkpt><trkpt lat="45.5828725" lon="12.308792"><ele>4.5</ele><time>2026-04-06T15:42:58.228Z</time></trkpt><trkpt lat="45.5828608" lon="12.3089045"><ele>4.333333333333333</ele><time>2026-04-06T15:43:00.23Z</time></trkpt><trkpt lat="45.5828528" lon="12.3089992"><ele>4.166666666666666</ele><time>2026-04-06T15:43:02.231Z</time></trkpt><trkpt lat="45.5828388" lon="12.3090914"><ele>4.0</ele><time>2026-04-06T15:43:04.239Z</time></trkpt><trkpt lat="45.5828077" lon="12.3091947"><ele>3.9999999999999996</ele><time>2026-04-06T15:43:06.235Z</time></trkpt><trkpt lat="45.5827906" lon="12.3093029"><ele>4.0</ele><time>2026-04-06T15:43:08.249Z</time></trkpt><trkpt lat="45.5827783" lon="12.3094326"><ele>4.0</ele><time>2026-04-06T15:43:10.228Z</time></trkpt><trkpt lat="45.5827611" lon="12.3095516"><ele>4.0</ele><time>2026-04-06T15:43:12.227Z</time></trkpt><trkpt lat="45.5827464" lon="12.3096742"><ele>3.9999999999999996</ele><time>2026-04-06T15:43:14.249Z</time></trkpt><trkpt lat="45.5827314" lon="12.3097996"><ele>4.0</ele><time>2026-04-06T15:43:16.236Z</time></trkpt><trkpt lat="45.5827119" lon="12.309933"><ele>3.6666666666666665</ele><time>2026-04-06T15:43:18.235Z</time></trkpt><trkpt lat="45.5826899" lon="12.3100592"><ele>3.333333333333333</ele><time>2026-04-06T15:43:20.236Z</time></trkpt><trkpt lat="45.5826613" lon="12.3101746"><ele>3.0</ele><time>2026-04-06T15:43:22.229Z</time></trkpt><trkpt lat="45.5826158" lon="12.3102679"><ele>2.6666666666666665</ele><time>2026-04-06T15:43:24.247Z</time></trkpt><trkpt lat="45.5825497" lon="12.3103259"><ele>2.333333333333333</ele><time>2026-04-06T15:43:26.236Z</time></trkpt><trkpt lat="45.5824593" lon="12.3103329"><ele>2.0</ele><time>2026-04-06T15:43:28.24Z</time></trkpt><trkpt lat="45.5823708" lon="12.3103293"><ele>1.9999999999999998</ele><time>2026-04-06T15:43:30.232Z</time></trkpt><trkpt lat="45.5822956" lon="12.3103109"><ele>2.0</ele><time>2026-04-06T15:43:32.224Z</time></trkpt><trkpt lat="45.5822136" lon="12.3103353"><ele>2.0</ele><time>2026-04-06T15:43:35.229Z</time></trkpt><trkpt lat="45.5821482" lon="12.3103225"><ele>2.0</ele><time>2026-04-06T15:43:37.237Z</time></trkpt><trkpt lat="45.5820784" lon="12.3102852"><ele>1.9999999999999998</ele><time>2026-04-06T15:43:39.241Z</time></trkpt><trkpt lat="45.5819838" lon="12.3102563"><ele>2.0</ele><time>2026-04-06T15:43:41.222Z</time></trkpt><trkpt lat="45.581908" lon="12.31023"><ele>2.1666666666666665</ele><time>2026-04-06T15:43:43.238Z</time></trkpt><trkpt lat="45.5818264" lon="12.310212"><ele>2.333333333333333</ele><time>2026-04-06T15:43:45.226Z</time></trkpt><trkpt lat="45.5817357" lon="12.3101996"><ele>2.5</ele><time>2026-04-06T15:43:47.22Z</time></trkpt><trkpt lat="45.5816487" lon="12.3101893"><ele>2.6666666666666665</ele><time>2026-04-06T15:43:49.243Z</time></trkpt><trkpt lat="45.5815656" lon="12.3101804"><ele>2.8333333333333335</ele><time>2026-04-06T15:43:51.223Z</time></trkpt><trkpt lat="45.5814779" lon="12.3101731"><ele>3.0</ele><time>2026-04-06T15:43:53.223Z</time></trkpt><trkpt lat="45.5813915" lon="12.3101668"><ele>3.0</ele><time>2026-04-06T15:43:55.259Z</time></trkpt><trkpt lat="45.5813115" lon="12.3101539"><ele>3.0</ele><time>2026-04-06T15:43:57.217Z</time></trkpt><trkpt lat="45.5812156" lon="12.3101488"><ele>3.0</ele><time>2026-04-06T15:43:59.219Z</time></trkpt><trkpt lat="45.5811253" lon="12.310144"><ele>3.0</ele><time>2026-04-06T15:44:01.228Z</time></trkpt><trkpt lat="45.5810319" lon="12.3101396"><ele>3.0</ele><time>2026-04-06T15:44:03.222Z</time></trkpt><trkpt lat="45.5809408" lon="12.3101351"><ele>3.0</ele><time>2026-04-06T15:44:05.212Z</time></trkpt><trkpt lat="45.5808552" lon="12.3101317"><ele>3.0</ele><time>2026-04-06T15:44:07.226Z</time></trkpt><trkpt lat="45.5807732" lon="12.3101236"><ele>3.0</ele><time>2026-04-06T15:44:09.212Z</time></trkpt><trkpt lat="45.5806942" lon="12.3101244"><ele>3.0</ele><time>2026-04-06T15:44:11.21Z</time></trkpt><trkpt lat="45.5806205" lon="12.3101173"><ele>3.0</ele><time>2026-04-06T15:44:13.209Z</time></trkpt><trkpt lat="45.5805433" lon="12.3101124"><ele>3.0</ele><time>2026-04-06T15:44:15.22Z</time></trkpt><trkpt lat="45.5804705" lon="12.3101091"><ele>2.9999999999999996</ele><time>2026-04-06T15:44:17.242Z</time></trkpt><trkpt lat="45.5804074" lon="12.3101016"><ele>3.0</ele><time>2026-04-06T15:44:19.231Z</time></trkpt><trkpt lat="45.5803401" lon="12.3100959"><ele>3.0</ele><time>2026-04-06T15:44:21.217Z</time></trkpt><trkpt lat="45.580274" lon="12.310091"><ele>3.0</ele><time>2026-04-06T15:44:23.223Z</time></trkpt><trkpt lat="45.5802101" lon="12.3100872"><ele>3.0</ele><time>2026-04-06T15:44:25.219Z</time></trkpt><trkpt lat="45.580144" lon="12.3100832"><ele>2.9999999999999996</ele><time>2026-04-06T15:44:27.221Z</time></trkpt><trkpt lat="45.5800785" lon="12.3100792"><ele>3.0</ele><time>2026-04-06T15:44:29.221Z</time></trkpt><trkpt lat="45.5800104" lon="12.3100734"><ele>2.714285714285714</ele><time>2026-04-06T15:44:31.21Z</time></trkpt><trkpt lat="45.5799414" lon="12.310068"><ele>2.4285714285714284</ele><time>2026-04-06T15:44:33.225Z</time></trkpt><trkpt lat="45.5798761" lon="12.3100645"><ele>2.142857142857143</ele><time>2026-04-06T15:44:35.214Z</time></trkpt><trkpt lat="45.5797817" lon="12.3100629"><ele>1.857142857142857</ele><time>2026-04-06T15:44:38.223Z</time></trkpt><trkpt lat="45.5797158" lon="12.3100604"><ele>1.5714285714285712</ele><time>2026-04-06T15:44:40.224Z</time></trkpt><trkpt lat="45.5796519" lon="12.3100563"><ele>1.2857142857142856</ele><time>2026-04-06T15:44:42.217Z</time></trkpt><trkpt lat="45.5795847" lon="12.3100509"><ele>1.0</ele><time>2026-04-06T15:44:44.239Z</time></trkpt><trkpt lat="45.5795153" lon="12.3100455"><ele>0.8571428571428571</ele><time>2026-04-06T15:44:46.217Z</time></trkpt><trkpt lat="45.5794511" lon="12.3100431"><ele>0.7142857142857142</ele><time>2026-04-06T15:44:48.214Z</time></trkpt><trkpt lat="45.5793664" lon="12.3100387"><ele>0.5714285714285714</ele><time>2026-04-06T15:44:51.23Z</time></trkpt><trkpt lat="45.5792924" lon="12.3100279"><ele>0.42857142857142855</ele><time>2026-04-06T15:44:54.228Z</time></trkpt><trkpt lat="45.579206" lon="12.3100126"><ele>0.2857142857142857</ele><time>2026-04-06T15:44:57.22Z</time></trkpt><trkpt lat="45.5791428" lon="12.3100057"><ele>0.14285714285714285</ele><time>2026-04-06T15:44:59.22Z</time></trkpt><trkpt lat="45.5790699" lon="12.3099947"><ele>0.0</ele><time>2026-04-06T15:45:01.224Z</time></trkpt><trkpt lat="45.5789967" lon="12.3099835"><ele>0.0</ele><time>2026-04-06T15:45:03.238Z</time></trkpt><trkpt lat="45.5789194" lon="12.3099784"><ele>0.0</ele><time>2026-04-06T15:45:05.213Z</time></trkpt><trkpt lat="45.578836" lon="12.3099668"><ele>0.0</ele><time>2026-04-06T15:45:07.207Z</time></trkpt><trkpt lat="45.5787576" lon="12.3099587"><ele>0.0</ele><time>2026-04-06T15:45:09.215Z</time></trkpt><trkpt lat="45.578677" lon="12.3099553"><ele>0.0</ele><time>2026-04-06T15:45:11.221Z</time></trkpt><trkpt lat="45.5785943" lon="12.3099517"><ele>0.0</ele><time>2026-04-06T15:45:13.213Z</time></trkpt><trkpt lat="45.5785065" lon="12.3099499"><ele>0.16666666666666666</ele><time>2026-04-06T15:45:15.21Z</time></trkpt><trkpt lat="45.5784256" lon="12.3099494"><ele>0.3333333333333333</ele><time>2026-04-06T15:45:17.226Z</time></trkpt><trkpt lat="45.5783441" lon="12.3099504"><ele>0.5</ele><time>2026-04-06T15:45:19.215Z</time></trkpt><trkpt lat="45.5782532" lon="12.3099517"><ele>0.6666666666666666</ele><time>2026-04-06T15:45:21.224Z</time></trkpt><trkpt lat="45.5781593" lon="12.3099567"><ele>0.8333333333333333</ele><time>2026-04-06T15:45:23.219Z</time></trkpt><trkpt lat="45.5780654" lon="12.3099667"><ele>1.0</ele><time>2026-04-06T15:45:25.21Z</time></trkpt><trkpt lat="45.5779666" lon="12.3099829"><ele>1.0</ele><time>2026-04-06T15:45:27.219Z</time></trkpt><trkpt lat="45.5778589" lon="12.3100237"><ele>1.0</ele><time>2026-04-06T15:45:29.218Z</time></trkpt><trkpt lat="45.5777558" lon="12.3100558"><ele>1.0</ele><time>2026-04-06T15:45:31.212Z</time></trkpt><trkpt lat="45.5776401" lon="12.3100993"><ele>1.0</ele><time>2026-04-06T15:45:33.217Z</time></trkpt><trkpt lat="45.5775282" lon="12.310155"><ele>1.0</ele><time>2026-04-06T15:45:35.227Z</time></trkpt><trkpt lat="45.5774659" lon="12.3101876"><ele>0.9999999999999999</ele><time>2026-04-06T15:45:36.22Z</time></trkpt><trkpt lat="45.5774022" lon="12.3102213"><ele>1.0</ele><time>2026-04-06T15:45:37.222Z</time></trkpt><trkpt lat="45.5773367" lon="12.3102602"><ele>1.0</ele><time>2026-04-06T15:45:38.22Z</time></trkpt><trkpt lat="45.5772705" lon="12.3103038"><ele>0.9999999999999999</ele><time>2026-04-06T15:45:39.225Z</time></trkpt><trkpt lat="45.5772046" lon="12.3103462"><ele>1.0</ele><time>2026-04-06T15:45:40.233Z</time></trkpt><trkpt lat="45.5771346" lon="12.3103925"><ele>1.0</ele><time>2026-04-06T15:45:41.219Z</time></trkpt><trkpt lat="45.5770642" lon="12.3104411"><ele>0.8333333333333333</ele><time>2026-04-06T15:45:42.216Z</time></trkpt><trkpt lat="45.5769932" lon="12.3104903"><ele>0.6666666666666666</ele><time>2026-04-06T15:45:43.232Z</time></trkpt><trkpt lat="45.5769201" lon="12.3105406"><ele>0.5</ele><time>2026-04-06T15:45:44.22Z</time></trkpt><trkpt lat="45.5768468" lon="12.3105924"><ele>0.3333333333333333</ele><time>2026-04-06T15:45:45.23Z</time></trkpt><trkpt lat="45.5767723" lon="12.3106414"><ele>0.16666666666666666</ele><time>2026-04-06T15:45:46.219Z</time></trkpt><trkpt lat="45.5766969" lon="12.3106884"><ele>0.0</ele><time>2026-04-06T15:45:47.217Z</time></trkpt><trkpt lat="45.5766223" lon="12.3107368"><ele>0.0</ele><time>2026-04-06T15:45:48.232Z</time></trkpt><trkpt lat="45.5765503" lon="12.3107849"><ele>0.0</ele><time>2026-04-06T15:45:49.223Z</time></trkpt><trkpt lat="45.5764789" lon="12.310836"><ele>0.0</ele><time>2026-04-06T15:45:50.22Z</time></trkpt><trkpt lat="45.5764077" lon="12.3108778"><ele>0.0</ele><time>2026-04-06T15:45:51.218Z</time></trkpt><trkpt lat="45.5763392" lon="12.3109183"><ele>0.0</ele><time>2026-04-06T15:45:52.219Z</time></trkpt><trkpt lat="45.5762721" lon="12.3109551"><ele>0.0</ele><time>2026-04-06T15:45:53.214Z</time></trkpt><trkpt lat="45.5762058" lon="12.3109864"><ele>0.3333333333333333</ele><time>2026-04-06T15:45:54.224Z</time></trkpt><trkpt lat="45.5761413" lon="12.3110175"><ele>0.6666666666666666</ele><time>2026-04-06T15:45:55.229Z</time></trkpt><trkpt lat="45.5760788" lon="12.3110477"><ele>1.0</ele><time>2026-04-06T15:45:56.23Z</time></trkpt><trkpt lat="45.5760169" lon="12.3110717"><ele>1.3333333333333333</ele><time>2026-04-06T15:45:57.216Z</time></trkpt><trkpt lat="45.5758971" lon="12.3111111"><ele>1.6666666666666665</ele><time>2026-04-06T15:45:59.232Z</time></trkpt><trkpt lat="45.5757861" lon="12.3111437"><ele>2.0</ele><time>2026-04-06T15:46:01.206Z</time></trkpt><trkpt lat="45.5756781" lon="12.311168"><ele>1.9999999999999998</ele><time>2026-04-06T15:46:03.22Z</time></trkpt><trkpt lat="45.5755774" lon="12.3111994"><ele>2.0</ele><time>2026-04-06T15:46:05.21Z</time></trkpt><trkpt lat="45.5754816" lon="12.3112211"><ele>2.0</ele><time>2026-04-06T15:46:07.224Z</time></trkpt><trkpt lat="45.5753915" lon="12.3112405"><ele>2.0</ele><time>2026-04-06T15:46:09.252Z</time></trkpt><trkpt lat="45.5753154" lon="12.311247"><ele>1.9999999999999998</ele><time>2026-04-06T15:46:11.213Z</time></trkpt><trkpt lat="45.5752602" lon="12.3111916"><ele>2.0</ele><time>2026-04-06T15:46:13.222Z</time></trkpt><trkpt lat="45.5752408" lon="12.3110853"><ele>1.9999999999999998</ele><time>2026-04-06T15:46:15.22Z</time></trkpt><trkpt lat="45.5752376" lon="12.3109724"><ele>2.0</ele><time>2026-04-06T15:46:17.221Z</time></trkpt><trkpt lat="45.575237" lon="12.3108582"><ele>2.0</ele><time>2026-04-06T15:46:19.223Z</time></trkpt><trkpt lat="45.5752369" lon="12.3107434"><ele>2.0</ele><time>2026-04-06T15:46:21.216Z</time></trkpt><trkpt lat="45.5752376" lon="12.3106262"><ele>1.9999999999999998</ele><time>2026-04-06T15:46:23.223Z</time></trkpt><trkpt lat="45.5752448" lon="12.3105087"><ele>2.0</ele><time>2026-04-06T15:46:25.227Z</time></trkpt><trkpt lat="45.5752498" lon="12.31039"><ele>1.9999999999999998</ele><time>2026-04-06T15:46:27.224Z</time></trkpt><trkpt lat="45.5752504" lon="12.3102628"><ele>2.0</ele><time>2026-04-06T15:46:29.247Z</time></trkpt><trkpt lat="45.5752551" lon="12.3101534"><ele>2.0</ele><time>2026-04-06T15:46:31.225Z</time></trkpt><trkpt lat="45.5752629" lon="12.3100435"><ele>2.0</ele><time>2026-04-06T15:46:33.219Z</time></trkpt><trkpt lat="45.5752699" lon="12.3099334"><ele>1.9999999999999998</ele><time>2026-04-06T15:46:35.23Z</time></trkpt><trkpt lat="45.5752787" lon="12.3098309"><ele>2.0</ele><time>2026-04-06T15:46:37.229Z</time></trkpt><trkpt lat="45.5752854" lon="12.3097369"><ele>1.9999999999999998</ele><time>2026-04-06T15:46:39.232Z</time></trkpt><trkpt lat="45.5752879" lon="12.3096071"><ele>2.0</ele><time>2026-04-06T15:46:42.228Z</time></trkpt><trkpt lat="45.5752953" lon="12.3095012"><ele>2.0</ele><time>2026-04-06T15:46:45.227Z</time></trkpt><trkpt lat="45.5752951" lon="12.3093868"><ele>2.0</ele><time>2026-04-06T15:46:48.23Z</time></trkpt><trkpt lat="45.5752989" lon="12.3092825"><ele>1.9999999999999998</ele><time>2026-04-06T15:46:51.232Z</time></trkpt><trkpt lat="45.5753017" lon="12.3091789"><ele>2.0</ele><time>2026-04-06T15:46:54.248Z</time></trkpt><trkpt lat="45.575311" lon="12.3090539"><ele>1.9999999999999998</ele><time>2026-04-06T15:46:58.236Z</time></trkpt><trkpt lat="45.5753231" lon="12.3091486"><ele>2.0</ele><time>2026-04-06T15:47:12.225Z</time></trkpt><trkpt lat="45.575314" lon="12.309254"><ele>2.0</ele><time>2026-04-06T15:47:15.228Z</time></trkpt><trkpt lat="45.5753087" lon="12.3093752"><ele>2.0</ele><time>2026-04-06T15:47:18.241Z</time></trkpt><trkpt lat="45.5753061" lon="12.3094817"><ele>1.9999999999999998</ele><time>2026-04-06T15:47:21.226Z</time></trkpt><trkpt lat="45.5753013" lon="12.3095813"><ele>2.0</ele><time>2026-04-06T15:47:24.222Z</time></trkpt><trkpt lat="45.5753193" lon="12.309714"><ele>2.142857142857143</ele><time>2026-04-06T15:47:27.242Z</time></trkpt><trkpt lat="45.5753154" lon="12.309816"><ele>2.2857142857142856</ele><time>2026-04-06T15:47:29.231Z</time></trkpt><trkpt lat="45.5753042" lon="12.3099226"><ele>2.4285714285714284</ele><time>2026-04-06T15:47:31.217Z</time></trkpt><trkpt lat="45.5752959" lon="12.310025"><ele>2.571428571428571</ele><time>2026-04-06T15:47:33.232Z</time></trkpt><trkpt lat="45.575291" lon="12.3101268"><ele>2.7142857142857144</ele><time>2026-04-06T15:47:35.23Z</time></trkpt><trkpt lat="45.5752842" lon="12.3102252"><ele>2.8571428571428568</ele><time>2026-04-06T15:47:37.222Z</time></trkpt><trkpt lat="45.5752759" lon="12.3103273"><ele>3.0</ele><time>2026-04-06T15:47:39.218Z</time></trkpt><trkpt lat="45.5752726" lon="12.3104366"><ele>3.0</ele><time>2026-04-06T15:47:41.221Z</time></trkpt><trkpt lat="45.575272" lon="12.310542"><ele>3.0</ele><time>2026-04-06T15:47:43.217Z</time></trkpt><trkpt lat="45.5752671" lon="12.3106519"><ele>3.0</ele><time>2026-04-06T15:47:45.23Z</time></trkpt><trkpt lat="45.5752608" lon="12.3107619"><ele>3.0</ele><time>2026-04-06T15:47:47.222Z</time></trkpt><trkpt lat="45.5752539" lon="12.3108781"><ele>3.0</ele><time>2026-04-06T15:47:49.24Z</time></trkpt><trkpt lat="45.5752505" lon="12.3109995"><ele>3.0</ele><time>2026-04-06T15:47:51.216Z</time></trkpt><trkpt lat="45.5752449" lon="12.3111135"><ele>2.8333333333333335</ele><time>2026-04-06T15:47:53.217Z</time></trkpt><trkpt lat="45.5752359" lon="12.3112121"><ele>2.6666666666666665</ele><time>2026-04-06T15:47:55.221Z</time></trkpt><trkpt lat="45.5751936" lon="12.3112797"><ele>2.5</ele><time>2026-04-06T15:47:58.218Z</time></trkpt><trkpt lat="45.5751242" lon="12.3112899"><ele>2.333333333333333</ele><time>2026-04-06T15:48:00.217Z</time></trkpt><trkpt lat="45.5750381" lon="12.3112884"><ele>2.1666666666666665</ele><time>2026-04-06T15:48:02.221Z</time></trkpt><trkpt lat="45.5749505" lon="12.3112843"><ele>2.0</ele><time>2026-04-06T15:48:04.235Z</time></trkpt><trkpt lat="45.5748752" lon="12.3112808"><ele>1.9999999999999998</ele><time>2026-04-06T15:48:06.222Z</time></trkpt><trkpt lat="45.5747965" lon="12.3112769"><ele>2.0</ele><time>2026-04-06T15:48:08.228Z</time></trkpt><trkpt lat="45.5747135" lon="12.3112771"><ele>2.0</ele><time>2026-04-06T15:48:10.238Z</time></trkpt><trkpt lat="45.5746315" lon="12.3112808"><ele>2.0</ele><time>2026-04-06T15:48:12.225Z</time></trkpt><trkpt lat="45.5745435" lon="12.3112856"><ele>1.9999999999999998</ele><time>2026-04-06T15:48:14.222Z</time></trkpt><trkpt lat="45.5744551" lon="12.3112951"><ele>2.0</ele><time>2026-04-06T15:48:16.215Z</time></trkpt><trkpt lat="45.5743661" lon="12.3113047"><ele>1.6</ele><time>2026-04-06T15:48:18.216Z</time></trkpt><trkpt lat="45.5742739" lon="12.3113113"><ele>1.2000000000000002</ele><time>2026-04-06T15:48:20.219Z</time></trkpt><trkpt lat="45.5741878" lon="12.3113137"><ele>0.8</ele><time>2026-04-06T15:48:22.219Z</time></trkpt><trkpt lat="45.5740967" lon="12.3113186"><ele>0.4</ele><time>2026-04-06T15:48:24.226Z</time></trkpt><trkpt lat="45.5740082" lon="12.3113245"><ele>0.0</ele><time>2026-04-06T15:48:26.221Z</time></trkpt><trkpt lat="45.5739138" lon="12.3113366"><ele>0.0</ele><time>2026-04-06T15:48:28.219Z</time></trkpt><trkpt lat="45.5738241" lon="12.3113463"><ele>0.0</ele><time>2026-04-06T15:48:30.232Z</time></trkpt><trkpt lat="45.5737313" lon="12.3113466"><ele>0.0</ele><time>2026-04-06T15:48:32.219Z</time></trkpt><trkpt lat="45.5736384" lon="12.3113442"><ele>0.0</ele><time>2026-04-06T15:48:34.217Z</time></trkpt><trkpt lat="45.5735571" lon="12.3113482"><ele>0.0</ele><time>2026-04-06T15:48:36.223Z</time></trkpt><trkpt lat="45.5734666" lon="12.3113526"><ele>0.0</ele><time>2026-04-06T15:48:38.227Z</time></trkpt><trkpt lat="45.5733767" lon="12.3113555"><ele>0.2</ele><time>2026-04-06T15:48:40.216Z</time></trkpt><trkpt lat="45.573286" lon="12.311362"><ele>0.4</ele><time>2026-04-06T15:48:42.229Z</time></trkpt><trkpt lat="45.5731894" lon="12.3113637"><ele>0.6000000000000001</ele><time>2026-04-06T15:48:44.229Z</time></trkpt><trkpt lat="45.5731022" lon="12.3113606"><ele>0.8</ele><time>2026-04-06T15:48:46.223Z</time></trkpt><trkpt lat="45.5730105" lon="12.3113558"><ele>1.0</ele><time>2026-04-06T15:48:48.227Z</time></trkpt><trkpt lat="45.5729147" lon="12.3113542"><ele>0.6000000000000001</ele><time>2026-04-06T15:48:50.213Z</time></trkpt><trkpt lat="45.5728256" lon="12.3113511"><ele>0.20000000000000007</ele><time>2026-04-06T15:48:52.228Z</time></trkpt><trkpt lat="45.5727296" lon="12.3113466"><ele>-0.20000000000000007</ele><time>2026-04-06T15:48:54.218Z</time></trkpt><trkpt lat="45.5726373" lon="12.311344"><ele>-0.6000000000000001</ele><time>2026-04-06T15:48:56.228Z</time></trkpt><trkpt lat="45.572552" lon="12.3113424"><ele>-1.0</ele><time>2026-04-06T15:48:58.228Z</time></trkpt><trkpt lat="45.5724591" lon="12.3113372"><ele>-1.0</ele><time>2026-04-06T15:49:00.223Z</time></trkpt><trkpt lat="45.5723676" lon="12.3113325"><ele>-1.0</ele><time>2026-04-06T15:49:02.222Z</time></trkpt><trkpt lat="45.5722785" lon="12.311324"><ele>-1.0</ele><time>2026-04-06T15:49:04.222Z</time></trkpt><trkpt lat="45.5721923" lon="12.3113138"><ele>-1.0</ele><time>2026-04-06T15:49:06.246Z</time></trkpt><trkpt lat="45.5721035" lon="12.311304"><ele>-1.0</ele><time>2026-04-06T15:49:08.243Z</time></trkpt><trkpt lat="45.5720042" lon="12.3112933"><ele>-1.0</ele><time>2026-04-06T15:49:10.23Z</time></trkpt><trkpt lat="45.5719098" lon="12.311276"><ele>-1.0</ele><time>2026-04-06T15:49:12.234Z</time></trkpt><trkpt lat="45.5718186" lon="12.311261"><ele>-1.0</ele><time>2026-04-06T15:49:14.238Z</time></trkpt><trkpt lat="45.5717223" lon="12.3112488"><ele>-1.0</ele><time>2026-04-06T15:49:16.228Z</time></trkpt><trkpt lat="45.5716339" lon="12.3112364"><ele>-1.0</ele><time>2026-04-06T15:49:18.224Z</time></trkpt><trkpt lat="45.5715445" lon="12.3112171"><ele>-0.9999999999999999</ele><time>2026-04-06T15:49:20.221Z</time></trkpt><trkpt lat="45.5714628" lon="12.3111997"><ele>-1.0</ele><time>2026-04-06T15:49:22.216Z</time></trkpt><trkpt lat="45.5713738" lon="12.3111812"><ele>-1.0</ele><time>2026-04-06T15:49:24.227Z</time></trkpt><trkpt lat="45.5712917" lon="12.3111643"><ele>-1.0</ele><time>2026-04-06T15:49:26.225Z</time></trkpt><trkpt lat="45.5712026" lon="12.3111476"><ele>-0.9999999999999999</ele><time>2026-04-06T15:49:28.218Z</time></trkpt><trkpt lat="45.571116" lon="12.3111312"><ele>-1.0</ele><time>2026-04-06T15:49:30.235Z</time></trkpt><trkpt lat="45.5710276" lon="12.3111135"><ele>-0.6000000000000001</ele><time>2026-04-06T15:49:32.227Z</time></trkpt><trkpt lat="45.5709388" lon="12.3110949"><ele>-0.20000000000000007</ele><time>2026-04-06T15:49:34.243Z</time></trkpt><trkpt lat="45.5708458" lon="12.3110729"><ele>0.20000000000000007</ele><time>2026-04-06T15:49:36.237Z</time></trkpt><trkpt lat="45.570757" lon="12.311048"><ele>0.6000000000000001</ele><time>2026-04-06T15:49:38.24Z</time></trkpt><trkpt lat="45.570668" lon="12.3110179"><ele>1.0</ele><time>2026-04-06T15:49:40.226Z</time></trkpt><trkpt lat="45.5705806" lon="12.310983"><ele>1.0</ele><time>2026-04-06T15:49:42.226Z</time></trkpt><trkpt lat="45.5704877" lon="12.3109391"><ele>1.0</ele><time>2026-04-06T15:49:44.217Z</time></trkpt><trkpt lat="45.5703994" lon="12.3108884"><ele>1.0</ele><time>2026-04-06T15:49:46.228Z</time></trkpt><trkpt lat="45.5703101" lon="12.3108281"><ele>1.0</ele><time>2026-04-06T15:49:48.241Z</time></trkpt><trkpt lat="45.5702233" lon="12.3107629"><ele>1.0</ele><time>2026-04-06T15:49:50.232Z</time></trkpt><trkpt lat="45.5701313" lon="12.3106986"><ele>1.0</ele><time>2026-04-06T15:49:52.229Z</time></trkpt><trkpt lat="45.5700488" lon="12.3106224"><ele>1.0</ele><time>2026-04-06T15:49:54.219Z</time></trkpt><trkpt lat="45.5699726" lon="12.310525"><ele>1.0</ele><time>2026-04-06T15:49:56.221Z</time></trkpt><trkpt lat="45.5698983" lon="12.3104332"><ele>1.0</ele><time>2026-04-06T15:49:58.24Z</time></trkpt><trkpt lat="45.5698224" lon="12.3103544"><ele>1.0</ele><time>2026-04-06T15:50:00.232Z</time></trkpt><trkpt lat="45.569752" lon="12.3102649"><ele>1.1666666666666665</ele><time>2026-04-06T15:50:02.234Z</time></trkpt><trkpt lat="45.5696834" lon="12.3101761"><ele>1.3333333333333333</ele><time>2026-04-06T15:50:04.238Z</time></trkpt><trkpt lat="45.5696134" lon="12.3100829"><ele>1.5</ele><time>2026-04-06T15:50:06.22Z</time></trkpt><trkpt lat="45.5695526" lon="12.3099876"><ele>1.6666666666666665</ele><time>2026-04-06T15:50:08.232Z</time></trkpt><trkpt lat="45.5694918" lon="12.3098973"><ele>1.8333333333333333</ele><time>2026-04-06T15:50:10.244Z</time></trkpt><trkpt lat="45.5694332" lon="12.3098174"><ele>2.0</ele><time>2026-04-06T15:50:12.233Z</time></trkpt><trkpt lat="45.5693737" lon="12.3097198"><ele>2.0</ele><time>2026-04-06T15:50:14.223Z</time></trkpt><trkpt lat="45.5693021" lon="12.3096344"><ele>2.0</ele><time>2026-04-06T15:50:16.232Z</time></trkpt><trkpt lat="45.5692356" lon="12.3095445"><ele>2.0</ele><time>2026-04-06T15:50:18.229Z</time></trkpt><trkpt lat="45.5691668" lon="12.3094552"><ele>2.0</ele><time>2026-04-06T15:50:20.224Z</time></trkpt><trkpt lat="45.5691053" lon="12.3093621"><ele>2.0</ele><time>2026-04-06T15:50:22.226Z</time></trkpt><trkpt lat="45.5690341" lon="12.309275"><ele>2.0</ele><time>2026-04-06T15:50:24.232Z</time></trkpt><trkpt lat="45.5689633" lon="12.3091843"><ele>2.0</ele><time>2026-04-06T15:50:26.238Z</time></trkpt><trkpt lat="45.5688961" lon="12.3090891"><ele>2.0</ele><time>2026-04-06T15:50:28.236Z</time></trkpt><trkpt lat="45.5688288" lon="12.3089971"><ele>2.0</ele><time>2026-04-06T15:50:30.233Z</time></trkpt><trkpt lat="45.568751" lon="12.3088962"><ele>2.0</ele><time>2026-04-06T15:50:32.225Z</time></trkpt><trkpt lat="45.5686801" lon="12.3088075"><ele>1.6</ele><time>2026-04-06T15:50:34.223Z</time></trkpt><trkpt lat="45.568608" lon="12.3087115"><ele>1.2000000000000002</ele><time>2026-04-06T15:50:36.215Z</time></trkpt><trkpt lat="45.5685362" lon="12.3086158"><ele>0.8</ele><time>2026-04-06T15:50:38.224Z</time></trkpt><trkpt lat="45.5684625" lon="12.308514"><ele>0.4</ele><time>2026-04-06T15:50:40.223Z</time></trkpt><trkpt lat="45.5683902" lon="12.3084282"><ele>0.0</ele><time>2026-04-06T15:50:42.229Z</time></trkpt><trkpt lat="45.5683175" lon="12.3083508"><ele>0.0</ele><time>2026-04-06T15:50:44.234Z</time></trkpt><trkpt lat="45.5682468" lon="12.3082698"><ele>0.0</ele><time>2026-04-06T15:50:46.221Z</time></trkpt><trkpt lat="45.568173" lon="12.3081786"><ele>0.0</ele><time>2026-04-06T15:50:48.243Z</time></trkpt><trkpt lat="45.5681033" lon="12.3080896"><ele>0.0</ele><time>2026-04-06T15:50:50.226Z</time></trkpt><trkpt lat="45.568042" lon="12.308006"><ele>0.0</ele><time>2026-04-06T15:50:52.225Z</time></trkpt><trkpt lat="45.5679862" lon="12.3079346"><ele>0.0</ele><time>2026-04-06T15:50:54.232Z</time></trkpt><trkpt lat="45.567929" lon="12.3078763"><ele>0.4</ele><time>2026-04-06T15:50:56.228Z</time></trkpt><trkpt lat="45.5678516" lon="12.3078063"><ele>0.8</ele><time>2026-04-06T15:50:58.242Z</time></trkpt><trkpt lat="45.5677801" lon="12.3077322"><ele>1.2000000000000002</ele><time>2026-04-06T15:51:00.215Z</time></trkpt><trkpt lat="45.5677041" lon="12.3076356"><ele>1.6</ele><time>2026-04-06T15:51:02.223Z</time></trkpt><trkpt lat="45.567623" lon="12.3075422"><ele>2.0</ele><time>2026-04-06T15:51:04.237Z</time></trkpt><trkpt lat="45.5675538" lon="12.3074692"><ele>2.0</ele><time>2026-04-06T15:51:06.22Z</time></trkpt><trkpt lat="45.5674904" lon="12.3073976"><ele>2.0</ele><time>2026-04-06T15:51:08.223Z</time></trkpt><trkpt lat="45.5674154" lon="12.3073204"><ele>2.0</ele><time>2026-04-06T15:51:10.238Z</time></trkpt><trkpt lat="45.5673459" lon="12.3072539"><ele>2.0</ele><time>2026-04-06T15:51:12.247Z</time></trkpt><trkpt lat="45.567275" lon="12.3071834"><ele>2.0</ele><time>2026-04-06T15:51:14.218Z</time></trkpt><trkpt lat="45.5671878" lon="12.3070944"><ele>2.0</ele><time>2026-04-06T15:51:16.23Z</time></trkpt><trkpt lat="45.5671074" lon="12.3070168"><ele>2.0</ele><time>2026-04-06T15:51:18.217Z</time></trkpt><trkpt lat="45.5670279" lon="12.3069465"><ele>2.0</ele><time>2026-04-06T15:51:20.22Z</time></trkpt><trkpt lat="45.5669592" lon="12.3068803"><ele>2.0</ele><time>2026-04-06T15:51:22.218Z</time></trkpt><trkpt lat="45.5668903" lon="12.3068043"><ele>2.0</ele><time>2026-04-06T15:51:24.23Z</time></trkpt><trkpt lat="45.5668183" lon="12.3067193"><ele>2.0</ele><time>2026-04-06T15:51:26.229Z</time></trkpt><trkpt lat="45.5667461" lon="12.3066524"><ele>2.0</ele><time>2026-04-06T15:51:28.226Z</time></trkpt><trkpt lat="45.5666721" lon="12.3065657"><ele>2.0</ele><time>2026-04-06T15:51:30.237Z</time></trkpt><trkpt lat="45.5666044" lon="12.3064988"><ele>2.0</ele><time>2026-04-06T15:51:32.22Z</time></trkpt><trkpt lat="45.5665307" lon="12.3064186"><ele>2.0</ele><time>2026-04-06T15:51:34.256Z</time></trkpt><trkpt lat="45.5664549" lon="12.3063411"><ele>1.9999999999999998</ele><time>2026-04-06T15:51:36.226Z</time></trkpt><trkpt lat="45.5663921" lon="12.3062876"><ele>2.0</ele><time>2026-04-06T15:51:38.232Z</time></trkpt><trkpt lat="45.5663212" lon="12.3062334"><ele>2.0</ele><time>2026-04-06T15:51:40.23Z</time></trkpt><trkpt lat="45.5662567" lon="12.3061798"><ele>2.0</ele><time>2026-04-06T15:51:42.218Z</time></trkpt><trkpt lat="45.5661894" lon="12.306119"><ele>1.9999999999999998</ele><time>2026-04-06T15:51:44.219Z</time></trkpt><trkpt lat="45.5661174" lon="12.3060433"><ele>2.0</ele><time>2026-04-06T15:51:46.224Z</time></trkpt><trkpt lat="45.5660476" lon="12.3059767"><ele>2.0</ele><time>2026-04-06T15:51:48.22Z</time></trkpt><trkpt lat="45.5659784" lon="12.305897"><ele>2.0</ele><time>2026-04-06T15:51:50.215Z</time></trkpt><trkpt lat="45.5659583" lon="12.3057648"><ele>2.0</ele><time>2026-04-06T15:51:53.22Z</time></trkpt><trkpt lat="45.565982" lon="12.3056288"><ele>2.0</ele><time>2026-04-06T15:51:55.228Z</time></trkpt><trkpt lat="45.5659778" lon="12.3054902"><ele>2.0</ele><time>2026-04-06T15:51:57.217Z</time></trkpt><trkpt lat="45.5659373" lon="12.3053803"><ele>1.9999999999999998</ele><time>2026-04-06T15:51:59.219Z</time></trkpt><trkpt lat="45.5658932" lon="12.30528"><ele>2.0</ele><time>2026-04-06T15:52:01.233Z</time></trkpt><trkpt lat="45.5658716" lon="12.305182"><ele>2.0</ele><time>2026-04-06T15:52:03.228Z</time></trkpt><trkpt lat="45.5658551" lon="12.3050619"><ele>2.0</ele><time>2026-04-06T15:52:06.226Z</time></trkpt><trkpt lat="45.5657732" lon="12.3050929"><ele>1.9999999999999998</ele><time>2026-04-06T15:52:10.222Z</time></trkpt><trkpt lat="45.5657394" lon="12.3051889"><ele>2.0</ele><time>2026-04-06T15:52:12.232Z</time></trkpt><trkpt lat="45.5656972" lon="12.3052993"><ele>1.9999999999999998</ele><time>2026-04-06T15:52:15.22Z</time></trkpt><trkpt lat="45.5656323" lon="12.3053681"><ele>2.0</ele><time>2026-04-06T15:52:18.223Z</time></trkpt><trkpt lat="45.5655562" lon="12.3053655"><ele>2.0</ele><time>2026-04-06T15:52:20.228Z</time></trkpt><trkpt lat="45.565471" lon="12.305351"><ele>2.0</ele><time>2026-04-06T15:52:22.211Z</time></trkpt><trkpt lat="45.5653847" lon="12.3053403"><ele>1.9999999999999998</ele><time>2026-04-06T15:52:24.211Z</time></trkpt><trkpt lat="45.5652968" lon="12.3053312"><ele>2.0</ele><time>2026-04-06T15:52:26.222Z</time></trkpt><trkpt lat="45.5652099" lon="12.3053256"><ele>1.8333333333333333</ele><time>2026-04-06T15:52:28.216Z</time></trkpt><trkpt lat="45.5651226" lon="12.3053196"><ele>1.6666666666666665</ele><time>2026-04-06T15:52:30.216Z</time></trkpt><trkpt lat="45.5650319" lon="12.3053159"><ele>1.5</ele><time>2026-04-06T15:52:32.243Z</time></trkpt><trkpt lat="45.5649438" lon="12.3053111"><ele>1.3333333333333333</ele><time>2026-04-06T15:52:34.239Z</time></trkpt><trkpt lat="45.5648591" lon="12.3053052"><ele>1.1666666666666665</ele><time>2026-04-06T15:52:36.224Z</time></trkpt><trkpt lat="45.5647715" lon="12.305277"><ele>1.0</ele><time>2026-04-06T15:52:38.218Z</time></trkpt><trkpt lat="45.5646826" lon="12.305256"><ele>1.0</ele><time>2026-04-06T15:52:40.227Z</time></trkpt><trkpt lat="45.564603" lon="12.3052606"><ele>1.0</ele><time>2026-04-06T15:52:42.228Z</time></trkpt><trkpt lat="45.5645229" lon="12.3052769"><ele>1.0</ele><time>2026-04-06T15:52:44.216Z</time></trkpt><trkpt lat="45.5644367" lon="12.3052958"><ele>1.0</ele><time>2026-04-06T15:52:46.225Z</time></trkpt><trkpt lat="45.5643222" lon="12.3053124"><ele>1.0</ele><time>2026-04-06T15:52:48.234Z</time></trkpt><trkpt lat="45.5642313" lon="12.3053221"><ele>0.8333333333333333</ele><time>2026-04-06T15:52:50.228Z</time></trkpt><trkpt lat="45.564159" lon="12.3053002"><ele>0.6666666666666666</ele><time>2026-04-06T15:52:52.219Z</time></trkpt><trkpt lat="45.5640734" lon="12.3052786"><ele>0.5</ele><time>2026-04-06T15:52:54.217Z</time></trkpt><trkpt lat="45.5639803" lon="12.3052646"><ele>0.3333333333333333</ele><time>2026-04-06T15:52:56.224Z</time></trkpt><trkpt lat="45.5638884" lon="12.3052535"><ele>0.16666666666666666</ele><time>2026-04-06T15:52:58.216Z</time></trkpt><trkpt lat="45.5637991" lon="12.3052465"><ele>0.0</ele><time>2026-04-06T15:53:00.228Z</time></trkpt><trkpt lat="45.5637038" lon="12.3052388"><ele>0.0</ele><time>2026-04-06T15:53:02.236Z</time></trkpt><trkpt lat="45.5636123" lon="12.3052285"><ele>0.0</ele><time>2026-04-06T15:53:04.223Z</time></trkpt><trkpt lat="45.5635155" lon="12.3052161"><ele>0.0</ele><time>2026-04-06T15:53:06.224Z</time></trkpt><trkpt lat="45.5634225" lon="12.305206"><ele>0.0</ele><time>2026-04-06T15:53:08.22Z</time></trkpt><trkpt lat="45.5633348" lon="12.3052051"><ele>0.0</ele><time>2026-04-06T15:53:10.222Z</time></trkpt><trkpt lat="45.5632377" lon="12.3052062"><ele>0.0</ele><time>2026-04-06T15:53:12.239Z</time></trkpt><trkpt lat="45.5631521" lon="12.305204"><ele>0.0</ele><time>2026-04-06T15:53:14.243Z</time></trkpt><trkpt lat="45.5630514" lon="12.3052007"><ele>0.0</ele><time>2026-04-06T15:53:16.226Z</time></trkpt><trkpt lat="45.5629628" lon="12.3051953"><ele>0.0</ele><time>2026-04-06T15:53:18.247Z</time></trkpt><trkpt lat="45.5628788" lon="12.3051877"><ele>0.0</ele><time>2026-04-06T15:53:20.22Z</time></trkpt><trkpt lat="45.5627906" lon="12.3051846"><ele>0.0</ele><time>2026-04-06T15:53:22.222Z</time></trkpt><trkpt lat="45.5626983" lon="12.3051845"><ele>0.0</ele><time>2026-04-06T15:53:24.218Z</time></trkpt><trkpt lat="45.5626084" lon="12.3051878"><ele>0.0</ele><time>2026-04-06T15:53:26.234Z</time></trkpt><trkpt lat="45.5625219" lon="12.3051798"><ele>0.0</ele><time>2026-04-06T15:53:28.227Z</time></trkpt><trkpt lat="45.5624338" lon="12.3051654"><ele>0.0</ele><time>2026-04-06T15:53:30.223Z</time></trkpt><trkpt lat="45.5623431" lon="12.3051513"><ele>0.0</ele><time>2026-04-06T15:53:32.232Z</time></trkpt><trkpt lat="45.5622523" lon="12.3051311"><ele>0.0</ele><time>2026-04-06T15:53:34.223Z</time></trkpt><trkpt lat="45.5621621" lon="12.3051041"><ele>0.0</ele><time>2026-04-06T15:53:36.211Z</time></trkpt><trkpt lat="45.5620756" lon="12.3050687"><ele>0.0</ele><time>2026-04-06T15:53:38.221Z</time></trkpt><trkpt lat="45.5619871" lon="12.3050308"><ele>0.0</ele><time>2026-04-06T15:53:40.222Z</time></trkpt><trkpt lat="45.5618967" lon="12.3049967"><ele>0.0</ele><time>2026-04-06T15:53:42.239Z</time></trkpt><trkpt lat="45.5618054" lon="12.3049599"><ele>0.0</ele><time>2026-04-06T15:53:44.227Z</time></trkpt><trkpt lat="45.5617407" lon="12.3048708"><ele>0.0</ele><time>2026-04-06T15:53:46.223Z</time></trkpt><trkpt lat="45.5616969" lon="12.3047621"><ele>0.0</ele><time>2026-04-06T15:53:48.226Z</time></trkpt><trkpt lat="45.5616653" lon="12.3046579"><ele>0.0</ele><time>2026-04-06T15:53:50.213Z</time></trkpt><trkpt lat="45.5616572" lon="12.3045452"><ele>0.0</ele><time>2026-04-06T15:53:52.239Z</time></trkpt><trkpt lat="45.5616578" lon="12.3044516"><ele>0.0</ele><time>2026-04-06T15:53:55.22Z</time></trkpt><trkpt lat="45.5616555" lon="12.3043396"><ele>0.0</ele><time>2026-04-06T15:53:59.219Z</time></trkpt><trkpt lat="45.5615899" lon="12.304313"><ele>0.0</ele><time>2026-04-06T15:54:04.215Z</time></trkpt><trkpt lat="45.5615682" lon="12.3044344"><ele>0.0</ele><time>2026-04-06T15:54:08.222Z</time></trkpt><trkpt lat="45.5615447" lon="12.3045304"><ele>0.0</ele><time>2026-04-06T15:54:11.226Z</time></trkpt><trkpt lat="45.5614807" lon="12.3045797"><ele>0.0</ele><time>2026-04-06T15:54:15.224Z</time></trkpt><trkpt lat="45.5614105" lon="12.3046752"><ele>0.0</ele><time>2026-04-06T15:54:18.228Z</time></trkpt><trkpt lat="45.561343" lon="12.3047239"><ele>0.0</ele><time>2026-04-06T15:54:20.239Z</time></trkpt><trkpt lat="45.5612717" lon="12.3047566"><ele>0.0</ele><time>2026-04-06T15:54:22.234Z</time></trkpt><trkpt lat="45.5612015" lon="12.3047778"><ele>0.0</ele><time>2026-04-06T15:54:24.227Z</time></trkpt><trkpt lat="45.5611321" lon="12.304775"><ele>0.0</ele><time>2026-04-06T15:54:26.213Z</time></trkpt><trkpt lat="45.561056" lon="12.3047518"><ele>0.0</ele><time>2026-04-06T15:54:28.226Z</time></trkpt><trkpt lat="45.5609871" lon="12.3047017"><ele>0.0</ele><time>2026-04-06T15:54:30.247Z</time></trkpt><trkpt lat="45.5609061" lon="12.304639"><ele>0.0</ele><time>2026-04-06T15:54:32.235Z</time></trkpt><trkpt lat="45.5608257" lon="12.3045832"><ele>0.2</ele><time>2026-04-06T15:54:34.218Z</time></trkpt><trkpt lat="45.5607521" lon="12.3045361"><ele>0.4</ele><time>2026-04-06T15:54:36.225Z</time></trkpt><trkpt lat="45.5606737" lon="12.3044983"><ele>0.6000000000000001</ele><time>2026-04-06T15:54:38.242Z</time></trkpt><trkpt lat="45.5605843" lon="12.3044535"><ele>0.8</ele><time>2026-04-06T15:54:40.215Z</time></trkpt><trkpt lat="45.5604865" lon="12.3043918"><ele>1.0</ele><time>2026-04-06T15:54:42.228Z</time></trkpt><trkpt lat="45.5603965" lon="12.3043298"><ele>0.9999999999999999</ele><time>2026-04-06T15:54:44.237Z</time></trkpt><trkpt lat="45.5603134" lon="12.3042933"><ele>1.0</ele><time>2026-04-06T15:54:46.23Z</time></trkpt><trkpt lat="45.5602321" lon="12.3042503"><ele>1.0</ele><time>2026-04-06T15:54:48.236Z</time></trkpt><trkpt lat="45.5601499" lon="12.3042208"><ele>1.0</ele><time>2026-04-06T15:54:50.225Z</time></trkpt><trkpt lat="45.560054" lon="12.3042137"><ele>0.9999999999999999</ele><time>2026-04-06T15:54:52.238Z</time></trkpt><trkpt lat="45.5599703" lon="12.3041978"><ele>1.0</ele><time>2026-04-06T15:54:54.221Z</time></trkpt><trkpt lat="45.5598906" lon="12.3041985"><ele>1.0</ele><time>2026-04-06T15:54:56.218Z</time></trkpt><trkpt lat="45.5598071" lon="12.3042147"><ele>1.0</ele><time>2026-04-06T15:54:58.229Z</time></trkpt><trkpt lat="45.5597207" lon="12.3042458"><ele>1.0</ele><time>2026-04-06T15:55:00.216Z</time></trkpt><trkpt lat="45.5596254" lon="12.3042784"><ele>1.0</ele><time>2026-04-06T15:55:02.222Z</time></trkpt><trkpt lat="45.5595362" lon="12.3043147"><ele>1.0</ele><time>2026-04-06T15:55:04.231Z</time></trkpt><trkpt lat="45.5594542" lon="12.3043503"><ele>0.9999999999999999</ele><time>2026-04-06T15:55:06.225Z</time></trkpt><trkpt lat="45.5593619" lon="12.3043989"><ele>1.0</ele><time>2026-04-06T15:55:08.222Z</time></trkpt><trkpt lat="45.5592776" lon="12.3044357"><ele>1.0</ele><time>2026-04-06T15:55:10.229Z</time></trkpt><trkpt lat="45.5591938" lon="12.3044725"><ele>1.0</ele><time>2026-04-06T15:55:12.234Z</time></trkpt><trkpt lat="45.5591107" lon="12.3045036"><ele>0.9999999999999999</ele><time>2026-04-06T15:55:14.22Z</time></trkpt><trkpt lat="45.5590392" lon="12.3045258"><ele>1.0</ele><time>2026-04-06T15:55:16.219Z</time></trkpt><trkpt lat="45.5589592" lon="12.3045348"><ele>0.9999999999999999</ele><time>2026-04-06T15:55:18.209Z</time></trkpt><trkpt lat="45.5588832" lon="12.3045049"><ele>1.0</ele><time>2026-04-06T15:55:20.215Z</time></trkpt><trkpt lat="45.5588101" lon="12.3044358"><ele>1.0</ele><time>2026-04-06T15:55:23.227Z</time></trkpt><trkpt lat="45.5587323" lon="12.3043675"><ele>1.0</ele><time>2026-04-06T15:55:26.214Z</time></trkpt><trkpt lat="45.5586707" lon="12.3043181"><ele>0.9999999999999999</ele><time>2026-04-06T15:55:28.23Z</time></trkpt><trkpt lat="45.558606" lon="12.3042788"><ele>1.0</ele><time>2026-04-06T15:55:31.22Z</time></trkpt><trkpt lat="45.5585474" lon="12.3042108"><ele>1.0</ele><time>2026-04-06T15:55:35.236Z</time></trkpt><trkpt lat="45.5584631" lon="12.3042204"><ele>1.0</ele><time>2026-04-06T15:55:48.229Z</time></trkpt><trkpt lat="45.5584233" lon="12.3043558"><ele>1.0</ele><time>2026-04-06T15:55:50.227Z</time></trkpt><trkpt lat="45.5584041" lon="12.304446"><ele>1.0</ele><time>2026-04-06T15:55:51.226Z</time></trkpt><trkpt lat="45.5583494" lon="12.3045716"><ele>1.0</ele><time>2026-04-06T15:55:53.238Z</time></trkpt><trkpt lat="45.5582688" lon="12.3046375"><ele>0.9999999999999999</ele><time>2026-04-06T15:55:55.231Z</time></trkpt><trkpt lat="45.5581737" lon="12.3046527"><ele>1.0</ele><time>2026-04-06T15:55:57.223Z</time></trkpt><trkpt lat="45.558083" lon="12.3046403"><ele>1.0</ele><time>2026-04-06T15:55:59.227Z</time></trkpt><trkpt lat="45.5579894" lon="12.3046264"><ele>1.0</ele><time>2026-04-06T15:56:01.246Z</time></trkpt><trkpt lat="45.5578977" lon="12.3046205"><ele>0.9999999999999999</ele><time>2026-04-06T15:56:03.233Z</time></trkpt><trkpt lat="45.5578308" lon="12.3046091"><ele>1.0</ele><time>2026-04-06T15:56:05.24Z</time></trkpt><trkpt lat="45.5577456" lon="12.3045993"><ele>1.3333333333333333</ele><time>2026-04-06T15:56:07.218Z</time></trkpt><trkpt lat="45.5576583" lon="12.3045729"><ele>1.6666666666666665</ele><time>2026-04-06T15:56:09.244Z</time></trkpt><trkpt lat="45.5575786" lon="12.3045474"><ele>2.0</ele><time>2026-04-06T15:56:11.233Z</time></trkpt><trkpt lat="45.5574846" lon="12.3045181"><ele>2.3333333333333335</ele><time>2026-04-06T15:56:13.224Z</time></trkpt><trkpt lat="45.5573956" lon="12.3044995"><ele>2.6666666666666665</ele><time>2026-04-06T15:56:15.238Z</time></trkpt><trkpt lat="45.5573174" lon="12.3044875"><ele>3.0</ele><time>2026-04-06T15:56:17.218Z</time></trkpt><trkpt lat="45.557251" lon="12.3044516"><ele>3.0</ele><time>2026-04-06T15:56:19.23Z</time></trkpt><trkpt lat="45.5571759" lon="12.3044189"><ele>3.0</ele><time>2026-04-06T15:56:21.246Z</time></trkpt><trkpt lat="45.5570956" lon="12.3043958"><ele>3.0</ele><time>2026-04-06T15:56:23.24Z</time></trkpt><trkpt lat="45.5570093" lon="12.3043693"><ele>3.0</ele><time>2026-04-06T15:56:25.22Z</time></trkpt><trkpt lat="45.5569305" lon="12.3043599"><ele>3.0</ele><time>2026-04-06T15:56:27.22Z</time></trkpt><trkpt lat="45.5568452" lon="12.3043472"><ele>3.0</ele><time>2026-04-06T15:56:29.233Z</time></trkpt><trkpt lat="45.5567516" lon="12.3043249"><ele>3.1666666666666665</ele><time>2026-04-06T15:56:31.223Z</time></trkpt><trkpt lat="45.5566591" lon="12.3043065"><ele>3.333333333333333</ele><time>2026-04-06T15:56:33.232Z</time></trkpt><trkpt lat="45.556574" lon="12.30429"><ele>3.5</ele><time>2026-04-06T15:56:35.24Z</time></trkpt><trkpt lat="45.556484" lon="12.3042734"><ele>3.6666666666666665</ele><time>2026-04-06T15:56:37.22Z</time></trkpt><trkpt lat="45.5564039" lon="12.3042622"><ele>3.833333333333333</ele><time>2026-04-06T15:56:39.234Z</time></trkpt><trkpt lat="45.5563274" lon="12.3042608"><ele>4.0</ele><time>2026-04-06T15:56:41.247Z</time></trkpt><trkpt lat="45.5562544" lon="12.3042517"><ele>3.833333333333333</ele><time>2026-04-06T15:56:43.225Z</time></trkpt><trkpt lat="45.5561661" lon="12.3042391"><ele>3.6666666666666665</ele><time>2026-04-06T15:56:46.224Z</time></trkpt><trkpt lat="45.556073" lon="12.3042337"><ele>3.5</ele><time>2026-04-06T15:56:49.231Z</time></trkpt><trkpt lat="45.5559873" lon="12.3042044"><ele>3.333333333333333</ele><time>2026-04-06T15:56:52.22Z</time></trkpt><trkpt lat="45.5559136" lon="12.3041695"><ele>3.1666666666666665</ele><time>2026-04-06T15:56:56.242Z</time></trkpt><trkpt lat="45.555869" lon="12.304081"><ele>3.0</ele><time>2026-04-06T15:57:00.216Z</time></trkpt><trkpt lat="45.555829" lon="12.304009"><ele>3.1428571428571423</ele><time>2026-04-06T15:57:03.23Z</time></trkpt><trkpt lat="45.5558136" lon="12.303909"><ele>3.2857142857142856</ele><time>2026-04-06T15:57:06.241Z</time></trkpt><trkpt lat="45.5558122" lon="12.3037997"><ele>3.4285714285714284</ele><time>2026-04-06T15:57:09.219Z</time></trkpt><trkpt lat="45.5558113" lon="12.3037085"><ele>3.571428571428571</ele><time>2026-04-06T15:57:12.234Z</time></trkpt><trkpt lat="45.5558039" lon="12.3036161"><ele>3.714285714285714</ele><time>2026-04-06T15:57:17.23Z</time></trkpt><trkpt lat="45.5557448" lon="12.3035818"><ele>3.8571428571428568</ele><time>2026-04-06T15:57:22.221Z</time></trkpt><trkpt lat="45.5557315" lon="12.3036697"><ele>4.0</ele><time>2026-04-06T15:57:25.218Z</time></trkpt><trkpt lat="45.5557382" lon="12.3037819"><ele>3.9999999999999996</ele><time>2026-04-06T15:57:28.23Z</time></trkpt><trkpt lat="45.5557261" lon="12.3038924"><ele>4.0</ele><time>2026-04-06T15:57:30.237Z</time></trkpt><trkpt lat="45.5557242" lon="12.3039853"><ele>4.0</ele><time>2026-04-06T15:57:32.215Z</time></trkpt><trkpt lat="45.5556967" lon="12.3040804"><ele>4.0</ele><time>2026-04-06T15:57:34.229Z</time></trkpt><trkpt lat="45.5556278" lon="12.3041543"><ele>3.9999999999999996</ele><time>2026-04-06T15:57:37.254Z</time></trkpt><trkpt lat="45.5555388" lon="12.3041803"><ele>4.0</ele><time>2026-04-06T15:57:39.232Z</time></trkpt><trkpt lat="45.5554501" lon="12.3041725"><ele>3.6666666666666665</ele><time>2026-04-06T15:57:41.231Z</time></trkpt><trkpt lat="45.5553637" lon="12.3041559"><ele>3.333333333333333</ele><time>2026-04-06T15:57:43.218Z</time></trkpt><trkpt lat="45.5552798" lon="12.3041411"><ele>3.0</ele><time>2026-04-06T15:57:45.224Z</time></trkpt><trkpt lat="45.5551966" lon="12.3041293"><ele>2.6666666666666665</ele><time>2026-04-06T15:57:47.218Z</time></trkpt><trkpt lat="45.5551147" lon="12.304115"><ele>2.333333333333333</ele><time>2026-04-06T15:57:49.222Z</time></trkpt><trkpt lat="45.5550305" lon="12.3041156"><ele>2.0</ele><time>2026-04-06T15:57:51.226Z</time></trkpt><trkpt lat="45.5549606" lon="12.3041021"><ele>1.9999999999999998</ele><time>2026-04-06T15:57:53.227Z</time></trkpt><trkpt lat="45.55488" lon="12.3040781"><ele>2.0</ele><time>2026-04-06T15:57:55.224Z</time></trkpt><trkpt lat="45.5548086" lon="12.3040468"><ele>2.0</ele><time>2026-04-06T15:57:57.216Z</time></trkpt><trkpt lat="45.5547295" lon="12.3040188"><ele>2.0</ele><time>2026-04-06T15:57:59.244Z</time></trkpt><trkpt lat="45.5546472" lon="12.3039965"><ele>1.9999999999999998</ele><time>2026-04-06T15:58:01.229Z</time></trkpt><trkpt lat="45.5545622" lon="12.3039808"><ele>2.0</ele><time>2026-04-06T15:58:03.243Z</time></trkpt><trkpt lat="45.5544773" lon="12.3039621"><ele>1.9999999999999998</ele><time>2026-04-06T15:58:05.218Z</time></trkpt><trkpt lat="45.5543941" lon="12.3039406"><ele>2.0</ele><time>2026-04-06T15:58:07.228Z</time></trkpt><trkpt lat="45.5542999" lon="12.3039317"><ele>2.0</ele><time>2026-04-06T15:58:09.23Z</time></trkpt><trkpt lat="45.5542209" lon="12.3039187"><ele>2.0</ele><time>2026-04-06T15:58:11.226Z</time></trkpt><trkpt lat="45.5541423" lon="12.3039077"><ele>1.9999999999999998</ele><time>2026-04-06T15:58:13.222Z</time></trkpt><trkpt lat="45.5540746" lon="12.3038847"><ele>2.0</ele><time>2026-04-06T15:58:15.238Z</time></trkpt><trkpt lat="45.5539952" lon="12.3038629"><ele>2.1666666666666665</ele><time>2026-04-06T15:58:17.223Z</time></trkpt><trkpt lat="45.5539129" lon="12.303843"><ele>2.333333333333333</ele><time>2026-04-06T15:58:19.241Z</time></trkpt><trkpt lat="45.5538301" lon="12.3038303"><ele>2.5</ele><time>2026-04-06T15:58:21.212Z</time></trkpt><trkpt lat="45.5537464" lon="12.3038142"><ele>2.6666666666666665</ele><time>2026-04-06T15:58:23.241Z</time></trkpt><trkpt lat="45.5536618" lon="12.3037982"><ele>2.8333333333333335</ele><time>2026-04-06T15:58:25.239Z</time></trkpt><trkpt lat="45.5535772" lon="12.3037842"><ele>3.0</ele><time>2026-04-06T15:58:27.223Z</time></trkpt><trkpt lat="45.5534903" lon="12.3037698"><ele>3.0</ele><time>2026-04-06T15:58:29.231Z</time></trkpt><trkpt lat="45.5533858" lon="12.3037809"><ele>3.0</ele><time>2026-04-06T15:58:31.217Z</time></trkpt><trkpt lat="45.5533225" lon="12.3037858"><ele>3.0</ele><time>2026-04-06T15:58:33.228Z</time></trkpt><trkpt lat="45.5532508" lon="12.3037995"><ele>3.0</ele><time>2026-04-06T15:58:35.237Z</time></trkpt><trkpt lat="45.5531586" lon="12.3038329"><ele>3.0</ele><time>2026-04-06T15:58:37.22Z</time></trkpt><trkpt lat="45.5530698" lon="12.3038887"><ele>3.0</ele><time>2026-04-06T15:58:39.225Z</time></trkpt><trkpt lat="45.5529846" lon="12.3039398"><ele>3.0</ele><time>2026-04-06T15:58:41.25Z</time></trkpt><trkpt lat="45.5528994" lon="12.3039601"><ele>3.0</ele><time>2026-04-06T15:58:43.235Z</time></trkpt><trkpt lat="45.5527919" lon="12.3039518"><ele>3.0</ele><time>2026-04-06T15:58:45.215Z</time></trkpt><trkpt lat="45.552667" lon="12.3039339"><ele>3.0</ele><time>2026-04-06T15:58:47.217Z</time></trkpt><trkpt lat="45.5525956" lon="12.3039372"><ele>3.0</ele><time>2026-04-06T15:58:48.23Z</time></trkpt><trkpt lat="45.5524915" lon="12.3039289"><ele>2.6</ele><time>2026-04-06T15:58:50.221Z</time></trkpt><trkpt lat="45.552392" lon="12.3039317"><ele>2.1999999999999997</ele><time>2026-04-06T15:58:52.231Z</time></trkpt><trkpt lat="45.5522992" lon="12.3039314"><ele>1.8</ele><time>2026-04-06T15:58:54.242Z</time></trkpt><trkpt lat="45.5522038" lon="12.3039452"><ele>1.4</ele><time>2026-04-06T15:58:56.244Z</time></trkpt><trkpt lat="45.5521146" lon="12.3039616"><ele>1.0</ele><time>2026-04-06T15:58:58.231Z</time></trkpt><trkpt lat="45.5520443" lon="12.3040076"><ele>1.1666666666666665</ele><time>2026-04-06T15:59:00.211Z</time></trkpt><trkpt lat="45.5519836" lon="12.3040808"><ele>1.3333333333333333</ele><time>2026-04-06T15:59:02.218Z</time></trkpt><trkpt lat="45.551927" lon="12.3041757"><ele>1.5</ele><time>2026-04-06T15:59:04.229Z</time></trkpt><trkpt lat="45.5518948" lon="12.3043046"><ele>1.6666666666666665</ele><time>2026-04-06T15:59:06.242Z</time></trkpt><trkpt lat="45.5518829" lon="12.3044248"><ele>1.8333333333333333</ele><time>2026-04-06T15:59:08.223Z</time></trkpt><trkpt lat="45.5518759" lon="12.3045397"><ele>2.0</ele><time>2026-04-06T15:59:10.235Z</time></trkpt><trkpt lat="45.5518895" lon="12.3046291"><ele>1.9999999999999998</ele><time>2026-04-06T15:59:13.216Z</time></trkpt><trkpt lat="45.5519281" lon="12.3047346"><ele>2.0</ele><time>2026-04-06T15:59:17.208Z</time></trkpt><trkpt lat="45.5519802" lon="12.3048332"><ele>2.0</ele><time>2026-04-06T15:59:20.224Z</time></trkpt><trkpt lat="45.5520427" lon="12.3048833"><ele>2.0</ele><time>2026-04-06T15:59:22.234Z</time></trkpt><trkpt lat="45.5521082" lon="12.3049233"><ele>1.9999999999999998</ele><time>2026-04-06T15:59:24.221Z</time></trkpt><trkpt lat="45.5521775" lon="12.3049448"><ele>2.0</ele><time>2026-04-06T15:59:26.218Z</time></trkpt><trkpt lat="45.5522463" lon="12.3049437"><ele>1.8333333333333333</ele><time>2026-04-06T15:59:28.238Z</time></trkpt><trkpt lat="45.5523203" lon="12.3049274"><ele>1.6666666666666665</ele><time>2026-04-06T15:59:30.221Z</time></trkpt><trkpt lat="45.5523949" lon="12.3048985"><ele>1.5</ele><time>2026-04-06T15:59:32.221Z</time></trkpt><trkpt lat="45.5524854" lon="12.3048654"><ele>1.3333333333333333</ele><time>2026-04-06T15:59:34.217Z</time></trkpt><trkpt lat="45.5525681" lon="12.3048528"><ele>1.1666666666666665</ele><time>2026-04-06T15:59:36.241Z</time></trkpt><trkpt lat="45.5526449" lon="12.3048569"><ele>1.0</ele><time>2026-04-06T15:59:38.233Z</time></trkpt><trkpt lat="45.5527242" lon="12.3049009"><ele>0.9999999999999999</ele><time>2026-04-06T15:59:40.238Z</time></trkpt><trkpt lat="45.5527782" lon="12.30499"><ele>1.0</ele><time>2026-04-06T15:59:42.227Z</time></trkpt><trkpt lat="45.5528033" lon="12.3051004"><ele>1.0</ele><time>2026-04-06T15:59:44.224Z</time></trkpt><trkpt lat="45.5528077" lon="12.305232"><ele>1.0</ele><time>2026-04-06T15:59:46.219Z</time></trkpt><trkpt lat="45.5527927" lon="12.3053591"><ele>0.9999999999999999</ele><time>2026-04-06T15:59:48.267Z</time></trkpt><trkpt lat="45.5527849" lon="12.3054782"><ele>1.0</ele><time>2026-04-06T15:59:50.25Z</time></trkpt><trkpt lat="45.5527855" lon="12.3056023"><ele>0.9999999999999999</ele><time>2026-04-06T15:59:52.232Z</time></trkpt><trkpt lat="45.552796" lon="12.3057215"><ele>1.0</ele><time>2026-04-06T15:59:54.226Z</time></trkpt><trkpt lat="45.5528181" lon="12.3058461"><ele>1.0</ele><time>2026-04-06T15:59:56.238Z</time></trkpt><trkpt lat="45.5528439" lon="12.3059628"><ele>1.0</ele><time>2026-04-06T15:59:58.226Z</time></trkpt><trkpt lat="45.5528716" lon="12.3060833"><ele>0.9999999999999999</ele><time>2026-04-06T16:00:00.224Z</time></trkpt><trkpt lat="45.5529011" lon="12.3061864"><ele>1.0</ele><time>2026-04-06T16:00:02.232Z</time></trkpt><trkpt lat="45.5529328" lon="12.3062978"><ele>1.3333333333333333</ele><time>2026-04-06T16:00:04.244Z</time></trkpt><trkpt lat="45.5529583" lon="12.3064069"><ele>1.6666666666666665</ele><time>2026-04-06T16:00:06.221Z</time></trkpt><trkpt lat="45.5529879" lon="12.3065314"><ele>2.0</ele><time>2026-04-06T16:00:08.222Z</time></trkpt><trkpt lat="45.5530216" lon="12.3066389"><ele>2.3333333333333335</ele><time>2026-04-06T16:00:10.233Z</time></trkpt><trkpt lat="45.553048" lon="12.3067549"><ele>2.6666666666666665</ele><time>2026-04-06T16:00:12.218Z</time></trkpt><trkpt lat="45.553072" lon="12.3068732"><ele>3.0</ele><time>2026-04-06T16:00:14.226Z</time></trkpt><trkpt lat="45.553087" lon="12.3070034"><ele>3.0</ele><time>2026-04-06T16:00:16.215Z</time></trkpt><trkpt lat="45.5531073" lon="12.3071061"><ele>3.0</ele><time>2026-04-06T16:00:18.226Z</time></trkpt><trkpt lat="45.5531297" lon="12.3072141"><ele>3.0</ele><time>2026-04-06T16:00:20.234Z</time></trkpt><trkpt lat="45.5531448" lon="12.3073366"><ele>3.0</ele><time>2026-04-06T16:00:22.225Z</time></trkpt><trkpt lat="45.5531614" lon="12.3074439"><ele>3.0</ele><time>2026-04-06T16:00:24.246Z</time></trkpt><trkpt lat="45.5531625" lon="12.3075598"><ele>3.0</ele><time>2026-04-06T16:00:26.219Z</time></trkpt><trkpt lat="45.5531628" lon="12.307671"><ele>3.0</ele><time>2026-04-06T16:00:28.234Z</time></trkpt><trkpt lat="45.5531711" lon="12.3077973"><ele>3.0</ele><time>2026-04-06T16:00:30.217Z</time></trkpt><trkpt lat="45.5531768" lon="12.307912"><ele>3.0</ele><time>2026-04-06T16:00:32.229Z</time></trkpt><trkpt lat="45.5531705" lon="12.3080258"><ele>3.0</ele><time>2026-04-06T16:00:34.23Z</time></trkpt><trkpt lat="45.5531654" lon="12.3081409"><ele>3.0</ele><time>2026-04-06T16:00:36.219Z</time></trkpt><trkpt lat="45.553157" lon="12.3082632"><ele>3.0</ele><time>2026-04-06T16:00:38.228Z</time></trkpt><trkpt lat="45.5531478" lon="12.3083856"><ele>3.0</ele><time>2026-04-06T16:00:40.222Z</time></trkpt><trkpt lat="45.5531396" lon="12.3084915"><ele>3.0</ele><time>2026-04-06T16:00:42.232Z</time></trkpt><trkpt lat="45.5531237" lon="12.3086027"><ele>3.0</ele><time>2026-04-06T16:00:44.218Z</time></trkpt><trkpt lat="45.5531156" lon="12.3087054"><ele>3.0</ele><time>2026-04-06T16:00:46.228Z</time></trkpt><trkpt lat="45.5530953" lon="12.3088086"><ele>3.0</ele><time>2026-04-06T16:00:48.236Z</time></trkpt><trkpt lat="45.5530783" lon="12.3089076"><ele>3.0</ele><time>2026-04-06T16:00:50.234Z</time></trkpt><trkpt lat="45.5530779" lon="12.3090201"><ele>3.0</ele><time>2026-04-06T16:00:53.229Z</time></trkpt><trkpt lat="45.553079" lon="12.3091189"><ele>3.0</ele><time>2026-04-06T16:00:57.229Z</time></trkpt><trkpt lat="45.5530472" lon="12.3092245"><ele>3.0</ele><time>2026-04-06T16:01:00.238Z</time></trkpt><trkpt lat="45.5530284" lon="12.309317"><ele>3.0</ele><time>2026-04-06T16:01:02.222Z</time></trkpt><trkpt lat="45.5530169" lon="12.3094806"><ele>3.0</ele><time>2026-04-06T16:01:05.248Z</time></trkpt><trkpt lat="45.5530164" lon="12.3095799"><ele>3.0</ele><time>2026-04-06T16:01:07.217Z</time></trkpt><trkpt lat="45.5530488" lon="12.3096938"><ele>3.0</ele><time>2026-04-06T16:01:10.223Z</time></trkpt><trkpt lat="45.553097" lon="12.3097569"><ele>3.0</ele><time>2026-04-06T16:01:12.231Z</time></trkpt><trkpt lat="45.5531554" lon="12.3098334"><ele>3.0</ele><time>2026-04-06T16:01:15.221Z</time></trkpt><trkpt lat="45.5531932" lon="12.309923"><ele>3.0</ele><time>2026-04-06T16:01:18.241Z</time></trkpt><trkpt lat="45.5531365" lon="12.3101051"><ele>3.0</ele><time>2026-04-06T16:01:23.22Z</time></trkpt><trkpt lat="45.5530724" lon="12.3103348"><ele>3.0</ele><time>2026-04-06T16:01:27.218Z</time></trkpt><trkpt lat="45.5529942" lon="12.3103641"><ele>3.0</ele><time>2026-04-06T16:01:30.237Z</time></trkpt><trkpt lat="45.5529423" lon="12.3104493"><ele>3.0</ele><time>2026-04-06T16:01:32.234Z</time></trkpt><trkpt lat="45.5529133" lon="12.3105374"><ele>3.0</ele><time>2026-04-06T16:01:33.215Z</time></trkpt><trkpt lat="45.5528817" lon="12.3106493"><ele>3.0</ele><time>2026-04-06T16:01:35.221Z</time></trkpt><trkpt lat="45.552838" lon="12.3107294"><ele>3.0</ele><time>2026-04-06T16:01:39.229Z</time></trkpt><trkpt lat="45.5528084" lon="12.3108187"><ele>2.9999999999999996</ele><time>2026-04-06T16:01:42.22Z</time></trkpt><trkpt lat="45.5527757" lon="12.3108956"><ele>3.0</ele><time>2026-04-06T16:01:45.224Z</time></trkpt><trkpt lat="45.55271" lon="12.3109361"><ele>3.0</ele><time>2026-04-06T16:01:49.234Z</time></trkpt><trkpt lat="45.5526394" lon="12.3109631"><ele>3.0</ele><time>2026-04-06T16:01:52.243Z</time></trkpt><trkpt lat="45.552571" lon="12.3109798"><ele>3.0</ele><time>2026-04-06T16:01:54.233Z</time></trkpt><trkpt lat="45.552504" lon="12.3109483"><ele>2.9999999999999996</ele><time>2026-04-06T16:01:57.211Z</time></trkpt><trkpt lat="45.5524479" lon="12.3108959"><ele>3.0</ele><time>2026-04-06T16:01:59.22Z</time></trkpt><trkpt lat="45.5523857" lon="12.3108538"><ele>3.0</ele><time>2026-04-06T16:02:02.222Z</time></trkpt><trkpt lat="45.5523074" lon="12.3108503"><ele>3.0</ele><time>2026-04-06T16:02:10.244Z</time></trkpt><trkpt lat="45.5522282" lon="12.310883"><ele>3.0</ele><time>2026-04-06T16:02:12.246Z</time></trkpt><trkpt lat="45.5521329" lon="12.3108412"><ele>3.0</ele><time>2026-04-06T16:02:14.221Z</time></trkpt><trkpt lat="45.5520523" lon="12.3108052"><ele>3.0</ele><time>2026-04-06T16:02:16.222Z</time></trkpt><trkpt lat="45.5519788" lon="12.3107833"><ele>3.0</ele><time>2026-04-06T16:02:18.231Z</time></trkpt><trkpt lat="45.5518999" lon="12.3107454"><ele>3.0</ele><time>2026-04-06T16:02:20.231Z</time></trkpt><trkpt lat="45.5518249" lon="12.3107139"><ele>3.0</ele><time>2026-04-06T16:02:22.223Z</time></trkpt><trkpt lat="45.5517511" lon="12.3106697"><ele>3.0</ele><time>2026-04-06T16:02:24.235Z</time></trkpt><trkpt lat="45.5516715" lon="12.3106224"><ele>3.0</ele><time>2026-04-06T16:02:26.223Z</time></trkpt><trkpt lat="45.5515883" lon="12.3105795"><ele>3.0</ele><time>2026-04-06T16:02:28.232Z</time></trkpt><trkpt lat="45.5515139" lon="12.3105425"><ele>3.0</ele><time>2026-04-06T16:02:30.224Z</time></trkpt><trkpt lat="45.5514313" lon="12.3105006"><ele>3.0</ele><time>2026-04-06T16:02:32.225Z</time></trkpt><trkpt lat="45.5513525" lon="12.3104562"><ele>3.0</ele><time>2026-04-06T16:02:34.217Z</time></trkpt><trkpt lat="45.5512734" lon="12.3104148"><ele>3.0</ele><time>2026-04-06T16:02:36.216Z</time></trkpt><trkpt lat="45.5511977" lon="12.3103778"><ele>3.0</ele><time>2026-04-06T16:02:38.238Z</time></trkpt><trkpt lat="45.5511264" lon="12.3103245"><ele>3.0</ele><time>2026-04-06T16:02:40.225Z</time></trkpt><trkpt lat="45.551052" lon="12.3102776"><ele>3.0</ele><time>2026-04-06T16:02:42.221Z</time></trkpt><trkpt lat="45.5509779" lon="12.3102456"><ele>3.0</ele><time>2026-04-06T16:02:44.218Z</time></trkpt><trkpt lat="45.5508974" lon="12.3101945"><ele>3.0</ele><time>2026-04-06T16:02:46.221Z</time></trkpt><trkpt lat="45.5508254" lon="12.3101565"><ele>3.0</ele><time>2026-04-06T16:02:48.222Z</time></trkpt><trkpt lat="45.5507564" lon="12.3101241"><ele>3.0</ele><time>2026-04-06T16:02:50.223Z</time></trkpt><trkpt lat="45.5506888" lon="12.3100919"><ele>3.0</ele><time>2026-04-06T16:02:52.222Z</time></trkpt><trkpt lat="45.5506181" lon="12.310061"><ele>3.0</ele><time>2026-04-06T16:02:54.232Z</time></trkpt><trkpt lat="45.5505441" lon="12.3100196"><ele>3.0</ele><time>2026-04-06T16:02:56.239Z</time></trkpt><trkpt lat="45.5504687" lon="12.3099724"><ele>3.0</ele><time>2026-04-06T16:02:58.223Z</time></trkpt><trkpt lat="45.5503957" lon="12.3099407"><ele>3.0</ele><time>2026-04-06T16:03:00.231Z</time></trkpt><trkpt lat="45.5503184" lon="12.3098981"><ele>3.0</ele><time>2026-04-06T16:03:02.227Z</time></trkpt><trkpt lat="45.5502296" lon="12.3098458"><ele>3.0</ele><time>2026-04-06T16:03:04.234Z</time></trkpt><trkpt lat="45.5501494" lon="12.3098056"><ele>3.0</ele><time>2026-04-06T16:03:06.238Z</time></trkpt><trkpt lat="45.550064" lon="12.3097641"><ele>3.0</ele><time>2026-04-06T16:03:08.238Z</time></trkpt><trkpt lat="45.5499835" lon="12.3097295"><ele>3.0</ele><time>2026-04-06T16:03:10.218Z</time></trkpt><trkpt lat="45.5499101" lon="12.3096945"><ele>3.0</ele><time>2026-04-06T16:03:12.234Z</time></trkpt><trkpt lat="45.549838" lon="12.3096617"><ele>3.0</ele><time>2026-04-06T16:03:14.215Z</time></trkpt><trkpt lat="45.5497637" lon="12.3096238"><ele>3.0</ele><time>2026-04-06T16:03:16.222Z</time></trkpt><trkpt lat="45.5496958" lon="12.309593"><ele>3.0</ele><time>2026-04-06T16:03:18.219Z</time></trkpt><trkpt lat="45.5496117" lon="12.3095832"><ele>3.0</ele><time>2026-04-06T16:03:21.231Z</time></trkpt><trkpt lat="45.549533" lon="12.3096506"><ele>3.0</ele><time>2026-04-06T16:03:24.229Z</time></trkpt><trkpt lat="45.549487" lon="12.3097389"><ele>3.0</ele><time>2026-04-06T16:03:26.238Z</time></trkpt><trkpt lat="45.5494347" lon="12.3098127"><ele>3.0</ele><time>2026-04-06T16:03:28.221Z</time></trkpt><trkpt lat="45.549374" lon="12.3098545"><ele>3.0</ele><time>2026-04-06T16:03:30.214Z</time></trkpt><trkpt lat="45.5493111" lon="12.309878"><ele>3.0</ele><time>2026-04-06T16:03:32.218Z</time></trkpt><trkpt lat="45.5492319" lon="12.3098868"><ele>2.9999999999999996</ele><time>2026-04-06T16:03:35.227Z</time></trkpt><trkpt lat="45.5491695" lon="12.3099051"><ele>3.0</ele><time>2026-04-06T16:03:38.232Z</time></trkpt><trkpt lat="45.5491102" lon="12.3098196"><ele>3.0</ele><time>2026-04-06T16:03:42.229Z</time></trkpt><trkpt lat="45.549047" lon="12.3097506"><ele>3.0</ele><time>2026-04-06T16:03:45.22Z</time></trkpt><trkpt lat="45.5489959" lon="12.3096569"><ele>3.0</ele><time>2026-04-06T16:03:48.219Z</time></trkpt><trkpt lat="45.5490126" lon="12.3095676"><ele>2.9999999999999996</ele><time>2026-04-06T16:03:50.218Z</time></trkpt><trkpt lat="45.5490404" lon="12.3094706"><ele>3.0</ele><time>2026-04-06T16:03:52.221Z</time></trkpt><trkpt lat="45.5490611" lon="12.3093728"><ele>2.8333333333333335</ele><time>2026-04-06T16:03:54.241Z</time></trkpt><trkpt lat="45.5490631" lon="12.3092702"><ele>2.6666666666666665</ele><time>2026-04-06T16:03:56.229Z</time></trkpt><trkpt lat="45.5490157" lon="12.3091897"><ele>2.5</ele><time>2026-04-06T16:03:58.223Z</time></trkpt><trkpt lat="45.5489448" lon="12.3091408"><ele>2.333333333333333</ele><time>2026-04-06T16:04:00.22Z</time></trkpt><trkpt lat="45.548871" lon="12.3091052"><ele>2.1666666666666665</ele><time>2026-04-06T16:04:02.237Z</time></trkpt><trkpt lat="45.5487996" lon="12.3090733"><ele>2.0</ele><time>2026-04-06T16:04:04.237Z</time></trkpt><trkpt lat="45.5487289" lon="12.3090403"><ele>1.857142857142857</ele><time>2026-04-06T16:04:06.237Z</time></trkpt><trkpt lat="45.5486588" lon="12.3090014"><ele>1.714285714285714</ele><time>2026-04-06T16:04:08.217Z</time></trkpt><trkpt lat="45.5485948" lon="12.3089656"><ele>1.5714285714285714</ele><time>2026-04-06T16:04:10.222Z</time></trkpt><trkpt lat="45.548532" lon="12.3089383"><ele>1.4285714285714284</ele><time>2026-04-06T16:04:12.24Z</time></trkpt><trkpt lat="45.5484719" lon="12.3089083"><ele>1.2857142857142856</ele><time>2026-04-06T16:04:14.226Z</time></trkpt><trkpt lat="45.548399" lon="12.3088673"><ele>1.1428571428571428</ele><time>2026-04-06T16:04:17.217Z</time></trkpt><trkpt lat="45.5483172" lon="12.30883"><ele>1.0</ele><time>2026-04-06T16:04:20.24Z</time></trkpt><trkpt lat="45.5482487" lon="12.3088291"><ele>1.0</ele><time>2026-04-06T16:04:22.238Z</time></trkpt><trkpt lat="45.5481783" lon="12.3088738"><ele>0.9999999999999999</ele><time>2026-04-06T16:04:24.227Z</time></trkpt><trkpt lat="45.5481215" lon="12.3089285"><ele>1.0</ele><time>2026-04-06T16:04:26.222Z</time></trkpt><trkpt lat="45.5480433" lon="12.3089192"><ele>1.0</ele><time>2026-04-06T16:04:29.224Z</time></trkpt><trkpt lat="45.5479872" lon="12.3088739"><ele>0.9999999999999999</ele><time>2026-04-06T16:04:31.227Z</time></trkpt><trkpt lat="45.5479695" lon="12.3087766"><ele>1.0</ele><time>2026-04-06T16:04:33.225Z</time></trkpt><trkpt lat="45.5479609" lon="12.3086696"><ele>1.0</ele><time>2026-04-06T16:04:35.226Z</time></trkpt><trkpt lat="45.5479044" lon="12.3085914"><ele>1.0</ele><time>2026-04-06T16:04:38.237Z</time></trkpt><trkpt lat="45.5478316" lon="12.308563"><ele>0.9999999999999999</ele><time>2026-04-06T16:04:41.22Z</time></trkpt><trkpt lat="45.5477482" lon="12.3085118"><ele>1.0</ele><time>2026-04-06T16:04:44.218Z</time></trkpt><trkpt lat="45.547685" lon="12.3084693"><ele>1.0</ele><time>2026-04-06T16:04:46.228Z</time></trkpt><trkpt lat="45.5476205" lon="12.3084397"><ele>0.9999999999999999</ele><time>2026-04-06T16:04:48.222Z</time></trkpt><trkpt lat="45.5475608" lon="12.3084108"><ele>1.0</ele><time>2026-04-06T16:04:50.23Z</time></trkpt><trkpt lat="45.5475004" lon="12.3083749"><ele>1.0</ele><time>2026-04-06T16:04:52.216Z</time></trkpt><trkpt lat="45.5474307" lon="12.3083358"><ele>1.0</ele><time>2026-04-06T16:04:54.213Z</time></trkpt><trkpt lat="45.5473673" lon="12.3082979"><ele>0.9999999999999999</ele><time>2026-04-06T16:04:56.254Z</time></trkpt><trkpt lat="45.5473038" lon="12.3082473"><ele>1.0</ele><time>2026-04-06T16:04:58.217Z</time></trkpt><trkpt lat="45.5472491" lon="12.3081963"><ele>1.0</ele><time>2026-04-06T16:05:00.221Z</time></trkpt><trkpt lat="45.5471926" lon="12.3081513"><ele>0.9999999999999999</ele><time>2026-04-06T16:05:02.228Z</time></trkpt><trkpt lat="45.5471332" lon="12.308105"><ele>1.0</ele><time>2026-04-06T16:05:04.221Z</time></trkpt><trkpt lat="45.5470572" lon="12.3080688"><ele>1.0</ele><time>2026-04-06T16:05:06.229Z</time></trkpt><trkpt lat="45.5469807" lon="12.3080449"><ele>1.1428571428571428</ele><time>2026-04-06T16:05:08.23Z</time></trkpt><trkpt lat="45.5468914" lon="12.3080161"><ele>1.2857142857142856</ele><time>2026-04-06T16:05:11.224Z</time></trkpt><trkpt lat="45.5468171" lon="12.3080008"><ele>1.4285714285714284</ele><time>2026-04-06T16:05:14.245Z</time></trkpt><trkpt lat="45.5467507" lon="12.3080297"><ele>1.5714285714285714</ele><time>2026-04-06T16:05:16.222Z</time></trkpt><trkpt lat="45.5467098" lon="12.3081014"><ele>1.714285714285714</ele><time>2026-04-06T16:05:19.229Z</time></trkpt><trkpt lat="45.5466459" lon="12.3080795"><ele>1.857142857142857</ele><time>2026-04-06T16:05:22.219Z</time></trkpt><trkpt lat="45.5465912" lon="12.3080093"><ele>2.0</ele><time>2026-04-06T16:05:25.221Z</time></trkpt><trkpt lat="45.5465255" lon="12.3079982"><ele>1.9999999999999998</ele><time>2026-04-06T16:05:28.227Z</time></trkpt><trkpt lat="45.5464843" lon="12.3079044"><ele>2.0</ele><time>2026-04-06T16:05:31.228Z</time></trkpt><trkpt lat="45.5464431" lon="12.3078074"><ele>2.0</ele><time>2026-04-06T16:05:33.232Z</time></trkpt><trkpt lat="45.546393" lon="12.3077198"><ele>2.0</ele><time>2026-04-06T16:05:35.232Z</time></trkpt><trkpt lat="45.5463296" lon="12.3076571"><ele>1.9999999999999998</ele><time>2026-04-06T16:05:37.213Z</time></trkpt><trkpt lat="45.5462603" lon="12.307616"><ele>2.0</ele><time>2026-04-06T16:05:39.23Z</time></trkpt><trkpt lat="45.5461901" lon="12.3075778"><ele>1.8333333333333333</ele><time>2026-04-06T16:05:41.217Z</time></trkpt><trkpt lat="45.5461139" lon="12.307552"><ele>1.6666666666666665</ele><time>2026-04-06T16:05:44.218Z</time></trkpt><trkpt lat="45.5460446" lon="12.3075248"><ele>1.5</ele><time>2026-04-06T16:05:47.224Z</time></trkpt><trkpt lat="45.5459637" lon="12.307498"><ele>1.3333333333333333</ele><time>2026-04-06T16:05:50.233Z</time></trkpt><trkpt lat="45.545912" lon="12.3074433"><ele>1.1666666666666665</ele><time>2026-04-06T16:05:53.24Z</time></trkpt><trkpt lat="45.5458288" lon="12.3074051"><ele>1.0</ele><time>2026-04-06T16:05:55.226Z</time></trkpt><trkpt lat="45.5457532" lon="12.3073798"><ele>1.0</ele><time>2026-04-06T16:05:57.219Z</time></trkpt><trkpt lat="45.545673" lon="12.3073421"><ele>0.9999999999999999</ele><time>2026-04-06T16:05:59.221Z</time></trkpt><trkpt lat="45.5456081" lon="12.3073078"><ele>1.0</ele><time>2026-04-06T16:06:01.223Z</time></trkpt><trkpt lat="45.5455475" lon="12.3072626"><ele>1.0</ele><time>2026-04-06T16:06:03.216Z</time></trkpt><trkpt lat="45.5454893" lon="12.3072228"><ele>0.9999999999999999</ele><time>2026-04-06T16:06:05.236Z</time></trkpt><trkpt lat="45.5454304" lon="12.307184"><ele>1.0</ele><time>2026-04-06T16:06:08.219Z</time></trkpt><trkpt lat="45.5453408" lon="12.3071685"><ele>1.0</ele><time>2026-04-06T16:06:11.209Z</time></trkpt><trkpt lat="45.5452369" lon="12.3071477"><ele>0.9999999999999999</ele><time>2026-04-06T16:06:13.215Z</time></trkpt><trkpt lat="45.5451619" lon="12.3071142"><ele>1.0</ele><time>2026-04-06T16:06:15.212Z</time></trkpt><trkpt lat="45.5450883" lon="12.3070763"><ele>1.0</ele><time>2026-04-06T16:06:17.218Z</time></trkpt><trkpt lat="45.5450204" lon="12.3070591"><ele>1.0</ele><time>2026-04-06T16:06:19.228Z</time></trkpt><trkpt lat="45.5449539" lon="12.3070337"><ele>0.9999999999999999</ele><time>2026-04-06T16:06:21.218Z</time></trkpt><trkpt lat="45.5448768" lon="12.3070015"><ele>1.0</ele><time>2026-04-06T16:06:23.225Z</time></trkpt><trkpt lat="45.5447991" lon="12.3069602"><ele>0.9999999999999999</ele><time>2026-04-06T16:06:25.219Z</time></trkpt><trkpt lat="45.5447184" lon="12.3069172"><ele>1.0</ele><time>2026-04-06T16:06:27.255Z</time></trkpt><trkpt lat="45.544652" lon="12.3068836"><ele>1.0</ele><time>2026-04-06T16:06:29.22Z</time></trkpt><trkpt lat="45.5445865" lon="12.306842"><ele>1.0</ele><time>2026-04-06T16:06:31.222Z</time></trkpt><trkpt lat="45.5445134" lon="12.3067981"><ele>0.9999999999999999</ele><time>2026-04-06T16:06:33.223Z</time></trkpt><trkpt lat="45.5444339" lon="12.3067472"><ele>1.0</ele><time>2026-04-06T16:06:35.222Z</time></trkpt><trkpt lat="45.5443575" lon="12.306706"><ele>1.1666666666666665</ele><time>2026-04-06T16:06:37.218Z</time></trkpt><trkpt lat="45.544283" lon="12.3066703"><ele>1.3333333333333333</ele><time>2026-04-06T16:06:39.217Z</time></trkpt><trkpt lat="45.5442065" lon="12.3066244"><ele>1.5</ele><time>2026-04-06T16:06:41.307Z</time></trkpt><trkpt lat="45.5441366" lon="12.306581"><ele>1.6666666666666665</ele><time>2026-04-06T16:06:43.233Z</time></trkpt><trkpt lat="45.544076" lon="12.3065431"><ele>1.8333333333333333</ele><time>2026-04-06T16:06:45.213Z</time></trkpt><trkpt lat="45.5440094" lon="12.3065114"><ele>2.0</ele><time>2026-04-06T16:06:48.233Z</time></trkpt><trkpt lat="45.5439135" lon="12.3064736"><ele>1.9999999999999998</ele><time>2026-04-06T16:06:51.227Z</time></trkpt><trkpt lat="45.5438515" lon="12.3064311"><ele>2.0</ele><time>2026-04-06T16:06:53.232Z</time></trkpt><trkpt lat="45.5437657" lon="12.3063791"><ele>2.0</ele><time>2026-04-06T16:06:56.229Z</time></trkpt><trkpt lat="45.5436994" lon="12.3063388"><ele>2.0</ele><time>2026-04-06T16:06:58.22Z</time></trkpt><trkpt lat="45.5436278" lon="12.3062995"><ele>1.9999999999999998</ele><time>2026-04-06T16:07:00.215Z</time></trkpt><trkpt lat="45.5435465" lon="12.3062549"><ele>2.0</ele><time>2026-04-06T16:07:03.217Z</time></trkpt><trkpt lat="45.5434849" lon="12.3062258"><ele>2.0</ele><time>2026-04-06T16:07:06.226Z</time></trkpt><trkpt lat="45.543363" lon="12.3059775"><ele>2.0</ele><time>2026-04-06T16:08:06.23Z</time></trkpt><trkpt lat="45.5432168" lon="12.3057598"><ele>2.0</ele><time>2026-04-06T16:08:12.243Z</time></trkpt><trkpt lat="45.5430922" lon="12.3055085"><ele>2.0</ele><time>2026-04-06T16:08:18.222Z</time></trkpt><trkpt lat="45.5430213" lon="12.3051916"><ele>2.0</ele><time>2026-04-06T16:08:21.226Z</time></trkpt><trkpt lat="45.5430079" lon="12.3050922"><ele>2.0</ele><time>2026-04-06T16:08:23.221Z</time></trkpt><trkpt lat="45.5430011" lon="12.3049965"><ele>2.0</ele><time>2026-04-06T16:08:25.229Z</time></trkpt><trkpt lat="45.543024" lon="12.3049051"><ele>2.0</ele><time>2026-04-06T16:08:27.289Z</time></trkpt><trkpt lat="45.5430836" lon="12.3048304"><ele>1.9999999999999998</ele><time>2026-04-06T16:08:30.222Z</time></trkpt><trkpt lat="45.5431309" lon="12.3047423"><ele>2.0</ele><time>2026-04-06T16:08:33.223Z</time></trkpt><trkpt lat="45.543156" lon="12.3046594"><ele>2.0</ele><time>2026-04-06T16:08:35.232Z</time></trkpt><trkpt lat="45.5431901" lon="12.3045829"><ele>2.0</ele><time>2026-04-06T16:08:37.228Z</time></trkpt><trkpt lat="45.5431706" lon="12.3044658"><ele>1.9999999999999998</ele><time>2026-04-06T16:08:41.218Z</time></trkpt><trkpt lat="45.5430753" lon="12.3044954"><ele>2.0</ele><time>2026-04-06T16:08:44.211Z</time></trkpt><trkpt lat="45.5430343" lon="12.3045798"><ele>1.9999999999999998</ele><time>2026-04-06T16:08:46.235Z</time></trkpt><trkpt lat="45.5430012" lon="12.3046719"><ele>2.0</ele><time>2026-04-06T16:08:49.22Z</time></trkpt><trkpt lat="45.5429588" lon="12.3047693"><ele>2.0</ele><time>2026-04-06T16:08:51.227Z</time></trkpt><trkpt lat="45.5429197" lon="12.3048588"><ele>2.0</ele><time>2026-04-06T16:08:53.238Z</time></trkpt><trkpt lat="45.5428846" lon="12.3049354"><ele>1.9999999999999998</ele><time>2026-04-06T16:08:55.227Z</time></trkpt><trkpt lat="45.5428403" lon="12.3050315"><ele>2.0</ele><time>2026-04-06T16:08:57.223Z</time></trkpt><trkpt lat="45.5427831" lon="12.3051221"><ele>1.2000000000000002</ele><time>2026-04-06T16:08:59.223Z</time></trkpt><trkpt lat="45.542698" lon="12.3052036"><ele>0.40000000000000013</ele><time>2026-04-06T16:09:01.232Z</time></trkpt><trkpt lat="45.5425994" lon="12.3052603"><ele>-0.40000000000000013</ele><time>2026-04-06T16:09:03.221Z</time></trkpt><trkpt lat="45.5424997" lon="12.3052824"><ele>-1.2000000000000002</ele><time>2026-04-06T16:09:05.214Z</time></trkpt><trkpt lat="45.5424129" lon="12.3052653"><ele>-2.0</ele><time>2026-04-06T16:09:07.233Z</time></trkpt><trkpt lat="45.5423068" lon="12.30523"><ele>-2.0</ele><time>2026-04-06T16:09:09.236Z</time></trkpt><trkpt lat="45.5422234" lon="12.3051776"><ele>-2.0</ele><time>2026-04-06T16:09:11.228Z</time></trkpt><trkpt lat="45.5421284" lon="12.3050986"><ele>-2.0</ele><time>2026-04-06T16:09:13.241Z</time></trkpt><trkpt lat="45.5420542" lon="12.305034"><ele>-2.0</ele><time>2026-04-06T16:09:15.227Z</time></trkpt><trkpt lat="45.5419762" lon="12.3049685"><ele>-2.0</ele><time>2026-04-06T16:09:17.239Z</time></trkpt><trkpt lat="45.541889" lon="12.3048907"><ele>-2.0</ele><time>2026-04-06T16:09:19.231Z</time></trkpt><trkpt lat="45.5418136" lon="12.3048212"><ele>-2.0</ele><time>2026-04-06T16:09:21.241Z</time></trkpt><trkpt lat="45.5417417" lon="12.3047523"><ele>-2.0</ele><time>2026-04-06T16:09:23.22Z</time></trkpt><trkpt lat="45.5416586" lon="12.3046803"><ele>-2.0</ele><time>2026-04-06T16:09:25.228Z</time></trkpt><trkpt lat="45.5415783" lon="12.3046049"><ele>-2.0</ele><time>2026-04-06T16:09:27.224Z</time></trkpt><trkpt lat="45.5415013" lon="12.3045396"><ele>-2.0</ele><time>2026-04-06T16:09:29.213Z</time></trkpt><trkpt lat="45.5414262" lon="12.3044723"><ele>-2.0</ele><time>2026-04-06T16:09:31.221Z</time></trkpt><trkpt lat="45.5413485" lon="12.3044048"><ele>-2.0</ele><time>2026-04-06T16:09:33.222Z</time></trkpt><trkpt lat="45.5412725" lon="12.3043297"><ele>-2.0</ele><time>2026-04-06T16:09:35.224Z</time></trkpt><trkpt lat="45.5411966" lon="12.3042549"><ele>-2.0</ele><time>2026-04-06T16:09:37.219Z</time></trkpt><trkpt lat="45.5411198" lon="12.3041842"><ele>-1.6</ele><time>2026-04-06T16:09:39.224Z</time></trkpt><trkpt lat="45.5410274" lon="12.3041046"><ele>-1.2000000000000002</ele><time>2026-04-06T16:09:41.246Z</time></trkpt><trkpt lat="45.5409485" lon="12.3040372"><ele>-0.8</ele><time>2026-04-06T16:09:43.228Z</time></trkpt><trkpt lat="45.5408766" lon="12.3039748"><ele>-0.4</ele><time>2026-04-06T16:09:45.22Z</time></trkpt><trkpt lat="45.5407969" lon="12.3039083"><ele>0.0</ele><time>2026-04-06T16:09:47.245Z</time></trkpt><trkpt lat="45.540723" lon="12.3038343"><ele>0.2</ele><time>2026-04-06T16:09:49.242Z</time></trkpt><trkpt lat="45.5406403" lon="12.3037564"><ele>0.4</ele><time>2026-04-06T16:09:51.233Z</time></trkpt><trkpt lat="45.5405622" lon="12.3036843"><ele>0.6000000000000001</ele><time>2026-04-06T16:09:53.227Z</time></trkpt><trkpt lat="45.5404865" lon="12.3036178"><ele>0.8</ele><time>2026-04-06T16:09:55.229Z</time></trkpt><trkpt lat="45.5404093" lon="12.3035454"><ele>1.0</ele><time>2026-04-06T16:09:57.215Z</time></trkpt><trkpt lat="45.5403294" lon="12.303459"><ele>1.0</ele><time>2026-04-06T16:09:59.226Z</time></trkpt><trkpt lat="45.540258" lon="12.3033862"><ele>1.0</ele><time>2026-04-06T16:10:01.221Z</time></trkpt><trkpt lat="45.5401821" lon="12.3032905"><ele>1.0</ele><time>2026-04-06T16:10:03.221Z</time></trkpt><trkpt lat="45.5401151" lon="12.3031969"><ele>1.0</ele><time>2026-04-06T16:10:05.231Z</time></trkpt><trkpt lat="45.5400513" lon="12.303107"><ele>1.0</ele><time>2026-04-06T16:10:07.234Z</time></trkpt><trkpt lat="45.5400025" lon="12.3029987"><ele>0.8</ele><time>2026-04-06T16:10:09.224Z</time></trkpt><trkpt lat="45.53998" lon="12.3028605"><ele>0.6000000000000001</ele><time>2026-04-06T16:10:11.254Z</time></trkpt><trkpt lat="45.5399818" lon="12.3027167"><ele>0.4</ele><time>2026-04-06T16:10:13.239Z</time></trkpt><trkpt lat="45.5400034" lon="12.3025691"><ele>0.2</ele><time>2026-04-06T16:10:15.228Z</time></trkpt><trkpt lat="45.5400098" lon="12.3024415"><ele>0.0</ele><time>2026-04-06T16:10:17.216Z</time></trkpt><trkpt lat="45.5399704" lon="12.3023189"><ele>0.0</ele><time>2026-04-06T16:10:19.215Z</time></trkpt><trkpt lat="45.5398978" lon="12.3022223"><ele>0.0</ele><time>2026-04-06T16:10:21.222Z</time></trkpt><trkpt lat="45.5398065" lon="12.3021576"><ele>0.0</ele><time>2026-04-06T16:10:23.216Z</time></trkpt><trkpt lat="45.539705" lon="12.3021823"><ele>0.0</ele><time>2026-04-06T16:10:25.226Z</time></trkpt><trkpt lat="45.5396084" lon="12.3022021"><ele>0.0</ele><time>2026-04-06T16:10:27.217Z</time></trkpt><trkpt lat="45.5395114" lon="12.3021803"><ele>0.2</ele><time>2026-04-06T16:10:29.216Z</time></trkpt><trkpt lat="45.5394212" lon="12.3021248"><ele>0.4</ele><time>2026-04-06T16:10:31.226Z</time></trkpt><trkpt lat="45.539341" lon="12.3020532"><ele>0.6000000000000001</ele><time>2026-04-06T16:10:33.221Z</time></trkpt><trkpt lat="45.5392695" lon="12.3019512"><ele>0.8</ele><time>2026-04-06T16:10:35.237Z</time></trkpt><trkpt lat="45.5392011" lon="12.3018414"><ele>1.0</ele><time>2026-04-06T16:10:37.224Z</time></trkpt><trkpt lat="45.5391356" lon="12.3017331"><ele>1.0</ele><time>2026-04-06T16:10:39.237Z</time></trkpt><trkpt lat="45.5390694" lon="12.3016227"><ele>1.0</ele><time>2026-04-06T16:10:41.221Z</time></trkpt><trkpt lat="45.5390009" lon="12.3015113"><ele>1.0</ele><time>2026-04-06T16:10:43.234Z</time></trkpt><trkpt lat="45.5389405" lon="12.3014117"><ele>1.0</ele><time>2026-04-06T16:10:45.228Z</time></trkpt><trkpt lat="45.5388731" lon="12.3013038"><ele>1.0</ele><time>2026-04-06T16:10:47.22Z</time></trkpt><trkpt lat="45.5388082" lon="12.3012006"><ele>1.0</ele><time>2026-04-06T16:10:49.226Z</time></trkpt><trkpt lat="45.5387488" lon="12.3011128"><ele>1.0</ele><time>2026-04-06T16:10:51.228Z</time></trkpt><trkpt lat="45.5386758" lon="12.3010065"><ele>1.0</ele><time>2026-04-06T16:10:53.22Z</time></trkpt><trkpt lat="45.5386042" lon="12.3009014"><ele>1.0</ele><time>2026-04-06T16:10:55.216Z</time></trkpt><trkpt lat="45.5385315" lon="12.3007984"><ele>1.0</ele><time>2026-04-06T16:10:57.231Z</time></trkpt><trkpt lat="45.5384642" lon="12.300706"><ele>1.0</ele><time>2026-04-06T16:10:59.225Z</time></trkpt><trkpt lat="45.538384" lon="12.300606"><ele>1.0</ele><time>2026-04-06T16:11:01.222Z</time></trkpt><trkpt lat="45.5383096" lon="12.3005134"><ele>1.0</ele><time>2026-04-06T16:11:03.229Z</time></trkpt><trkpt lat="45.538232" lon="12.300433"><ele>1.0</ele><time>2026-04-06T16:11:05.22Z</time></trkpt><trkpt lat="45.5381593" lon="12.3003518"><ele>1.0</ele><time>2026-04-06T16:11:07.237Z</time></trkpt><trkpt lat="45.5380863" lon="12.3002688"><ele>0.8</ele><time>2026-04-06T16:11:09.242Z</time></trkpt><trkpt lat="45.5380069" lon="12.3001826"><ele>0.6000000000000001</ele><time>2026-04-06T16:11:11.227Z</time></trkpt><trkpt lat="45.5379289" lon="12.3001063"><ele>0.4</ele><time>2026-04-06T16:11:13.224Z</time></trkpt><trkpt lat="45.5378438" lon="12.3000212"><ele>0.2</ele><time>2026-04-06T16:11:15.229Z</time></trkpt><trkpt lat="45.5377645" lon="12.2999482"><ele>0.0</ele><time>2026-04-06T16:11:17.224Z</time></trkpt><trkpt lat="45.5376909" lon="12.2998839"><ele>0.0</ele><time>2026-04-06T16:11:19.24Z</time></trkpt><trkpt lat="45.5376124" lon="12.2997998"><ele>0.0</ele><time>2026-04-06T16:11:21.233Z</time></trkpt><trkpt lat="45.5375318" lon="12.2997135"><ele>0.0</ele><time>2026-04-06T16:11:23.223Z</time></trkpt><trkpt lat="45.5374612" lon="12.2996429"><ele>0.0</ele><time>2026-04-06T16:11:25.234Z</time></trkpt><trkpt lat="45.5373908" lon="12.2995665"><ele>0.0</ele><time>2026-04-06T16:11:27.218Z</time></trkpt><trkpt lat="45.5373213" lon="12.2994973"><ele>0.0</ele><time>2026-04-06T16:11:29.22Z</time></trkpt><trkpt lat="45.5372141" lon="12.2994083"><ele>0.0</ele><time>2026-04-06T16:11:31.234Z</time></trkpt><trkpt lat="45.5371571" lon="12.2993616"><ele>0.0</ele><time>2026-04-06T16:11:32.236Z</time></trkpt><trkpt lat="45.5370742" lon="12.2992848"><ele>0.0</ele><time>2026-04-06T16:11:34.234Z</time></trkpt><trkpt lat="45.5369968" lon="12.2992092"><ele>0.0</ele><time>2026-04-06T16:11:36.22Z</time></trkpt><trkpt lat="45.5369144" lon="12.299121"><ele>0.0</ele><time>2026-04-06T16:11:38.228Z</time></trkpt><trkpt lat="45.5368378" lon="12.2990447"><ele>0.0</ele><time>2026-04-06T16:11:40.237Z</time></trkpt><trkpt lat="45.5367626" lon="12.2989634"><ele>0.0</ele><time>2026-04-06T16:11:42.232Z</time></trkpt><trkpt lat="45.5366925" lon="12.2988768"><ele>0.0</ele><time>2026-04-06T16:11:44.217Z</time></trkpt><trkpt lat="45.5366288" lon="12.2987789"><ele>0.0</ele><time>2026-04-06T16:11:46.229Z</time></trkpt><trkpt lat="45.5365781" lon="12.298669"><ele>-0.2</ele><time>2026-04-06T16:11:48.211Z</time></trkpt><trkpt lat="45.5365275" lon="12.2985563"><ele>-0.4</ele><time>2026-04-06T16:11:50.234Z</time></trkpt><trkpt lat="45.5364866" lon="12.2984311"><ele>-0.6000000000000001</ele><time>2026-04-06T16:11:52.221Z</time></trkpt><trkpt lat="45.536463" lon="12.2982981"><ele>-0.8</ele><time>2026-04-06T16:11:54.22Z</time></trkpt><trkpt lat="45.5364522" lon="12.2981851"><ele>-1.0</ele><time>2026-04-06T16:11:56.219Z</time></trkpt><trkpt lat="45.5364378" lon="12.2980334"><ele>-1.0</ele><time>2026-04-06T16:11:58.211Z</time></trkpt><trkpt lat="45.5364383" lon="12.2978835"><ele>-1.0</ele><time>2026-04-06T16:12:00.221Z</time></trkpt><trkpt lat="45.5364502" lon="12.2977527"><ele>-1.0</ele><time>2026-04-06T16:12:02.233Z</time></trkpt><trkpt lat="45.5364719" lon="12.2976201"><ele>-1.0</ele><time>2026-04-06T16:12:04.231Z</time></trkpt><trkpt lat="45.5365073" lon="12.2974826"><ele>-1.0</ele><time>2026-04-06T16:12:06.237Z</time></trkpt><trkpt lat="45.5365484" lon="12.2973622"><ele>-0.6000000000000001</ele><time>2026-04-06T16:12:08.247Z</time></trkpt><trkpt lat="45.5366124" lon="12.2972438"><ele>-0.20000000000000007</ele><time>2026-04-06T16:12:10.224Z</time></trkpt><trkpt lat="45.5366894" lon="12.2971348"><ele>0.20000000000000007</ele><time>2026-04-06T16:12:12.216Z</time></trkpt><trkpt lat="45.5367739" lon="12.2970547"><ele>0.6000000000000001</ele><time>2026-04-06T16:12:14.212Z</time></trkpt><trkpt lat="45.5368641" lon="12.2969733"><ele>1.0</ele><time>2026-04-06T16:12:16.216Z</time></trkpt><trkpt lat="45.5369499" lon="12.2969144"><ele>1.0</ele><time>2026-04-06T16:12:18.214Z</time></trkpt><trkpt lat="45.5370377" lon="12.2968726"><ele>1.0</ele><time>2026-04-06T16:12:20.233Z</time></trkpt><trkpt lat="45.5371401" lon="12.2968369"><ele>1.0</ele><time>2026-04-06T16:12:22.232Z</time></trkpt><trkpt lat="45.537242" lon="12.2968262"><ele>1.0</ele><time>2026-04-06T16:12:24.231Z</time></trkpt><trkpt lat="45.5373354" lon="12.2968248"><ele>1.0</ele><time>2026-04-06T16:12:26.225Z</time></trkpt><trkpt lat="45.5373992" lon="12.2968325"><ele>0.8</ele><time>2026-04-06T16:12:27.229Z</time></trkpt><trkpt lat="45.5374958" lon="12.2968509"><ele>0.6000000000000001</ele><time>2026-04-06T16:12:29.222Z</time></trkpt><trkpt lat="45.5375834" lon="12.2968923"><ele>0.4</ele><time>2026-04-06T16:12:31.21Z</time></trkpt><trkpt lat="45.5376728" lon="12.2969413"><ele>0.2</ele><time>2026-04-06T16:12:33.231Z</time></trkpt><trkpt lat="45.5377488" lon="12.2970009"><ele>0.0</ele><time>2026-04-06T16:12:35.22Z</time></trkpt><trkpt lat="45.5378246" lon="12.2970778"><ele>0.2</ele><time>2026-04-06T16:12:37.232Z</time></trkpt><trkpt lat="45.5378967" lon="12.2971676"><ele>0.4</ele><time>2026-04-06T16:12:39.252Z</time></trkpt><trkpt lat="45.5379542" lon="12.2972673"><ele>0.6000000000000001</ele><time>2026-04-06T16:12:41.22Z</time></trkpt><trkpt lat="45.537996" lon="12.2973766"><ele>0.8</ele><time>2026-04-06T16:12:43.223Z</time></trkpt><trkpt lat="45.5380498" lon="12.2975002"><ele>1.0</ele><time>2026-04-06T16:12:45.22Z</time></trkpt><trkpt lat="45.5380978" lon="12.2976329"><ele>1.0</ele><time>2026-04-06T16:12:47.217Z</time></trkpt><trkpt lat="45.5381279" lon="12.2977592"><ele>1.0</ele><time>2026-04-06T16:12:49.236Z</time></trkpt><trkpt lat="45.538148" lon="12.2978932"><ele>1.0</ele><time>2026-04-06T16:12:51.237Z</time></trkpt><trkpt lat="45.5381518" lon="12.2980321"><ele>1.0</ele><time>2026-04-06T16:12:53.241Z</time></trkpt><trkpt lat="45.5381493" lon="12.2981715"><ele>1.0</ele><time>2026-04-06T16:12:55.228Z</time></trkpt><trkpt lat="45.5381312" lon="12.2982983"><ele>1.1666666666666665</ele><time>2026-04-06T16:12:57.231Z</time></trkpt><trkpt lat="45.5381038" lon="12.2984205"><ele>1.3333333333333333</ele><time>2026-04-06T16:12:59.23Z</time></trkpt><trkpt lat="45.5380744" lon="12.2985214"><ele>1.5</ele><time>2026-04-06T16:13:01.219Z</time></trkpt><trkpt lat="45.5380305" lon="12.2986393"><ele>1.6666666666666665</ele><time>2026-04-06T16:13:03.233Z</time></trkpt><trkpt lat="45.5379768" lon="12.29874"><ele>1.8333333333333333</ele><time>2026-04-06T16:13:05.248Z</time></trkpt><trkpt lat="45.5379208" lon="12.2988337"><ele>2.0</ele><time>2026-04-06T16:13:07.245Z</time></trkpt><trkpt lat="45.537852" lon="12.2989203"><ele>1.6666666666666665</ele><time>2026-04-06T16:13:09.235Z</time></trkpt><trkpt lat="45.5377858" lon="12.2989953"><ele>1.3333333333333333</ele><time>2026-04-06T16:13:11.241Z</time></trkpt><trkpt lat="45.5377178" lon="12.2990663"><ele>1.0</ele><time>2026-04-06T16:13:13.237Z</time></trkpt><trkpt lat="45.537649" lon="12.2991313"><ele>0.6666666666666666</ele><time>2026-04-06T16:13:15.218Z</time></trkpt><trkpt lat="45.5375888" lon="12.299185"><ele>0.3333333333333333</ele><time>2026-04-06T16:13:17.228Z</time></trkpt><trkpt lat="45.5375201" lon="12.2992501"><ele>0.0</ele><time>2026-04-06T16:13:19.216Z</time></trkpt><trkpt lat="45.5374422" lon="12.2993243"><ele>0.0</ele><time>2026-04-06T16:13:21.259Z</time></trkpt><trkpt lat="45.5373629" lon="12.2994011"><ele>0.0</ele><time>2026-04-06T16:13:23.244Z</time></trkpt><trkpt lat="45.5372859" lon="12.2994785"><ele>0.0</ele><time>2026-04-06T16:13:25.228Z</time></trkpt><trkpt lat="45.5372127" lon="12.2995543"><ele>0.0</ele><time>2026-04-06T16:13:27.223Z</time></trkpt><trkpt lat="45.537142" lon="12.2996257"><ele>0.0</ele><time>2026-04-06T16:13:29.241Z</time></trkpt><trkpt lat="45.5370776" lon="12.2996921"><ele>0.0</ele><time>2026-04-06T16:13:31.229Z</time></trkpt><trkpt lat="45.5370158" lon="12.2997544"><ele>0.3333333333333333</ele><time>2026-04-06T16:13:33.222Z</time></trkpt><trkpt lat="45.5369512" lon="12.2998222"><ele>0.6666666666666666</ele><time>2026-04-06T16:13:35.233Z</time></trkpt><trkpt lat="45.5368914" lon="12.2998816"><ele>1.0</ele><time>2026-04-06T16:13:37.239Z</time></trkpt><trkpt lat="45.5368356" lon="12.2999406"><ele>1.3333333333333333</ele><time>2026-04-06T16:13:39.235Z</time></trkpt><trkpt lat="45.5367613" lon="12.300016"><ele>1.6666666666666665</ele><time>2026-04-06T16:13:42.237Z</time></trkpt><trkpt lat="45.5366912" lon="12.3000872"><ele>2.0</ele><time>2026-04-06T16:13:44.219Z</time></trkpt><trkpt lat="45.5366099" lon="12.3001711"><ele>2.0</ele><time>2026-04-06T16:13:46.225Z</time></trkpt><trkpt lat="45.5365469" lon="12.3002314"><ele>2.0</ele><time>2026-04-06T16:13:48.234Z</time></trkpt><trkpt lat="45.5364763" lon="12.3002998"><ele>2.0</ele><time>2026-04-06T16:13:50.231Z</time></trkpt><trkpt lat="45.5363899" lon="12.3003845"><ele>2.0</ele><time>2026-04-06T16:13:52.241Z</time></trkpt><trkpt lat="45.5363125" lon="12.3004578"><ele>2.0</ele><time>2026-04-06T16:13:54.238Z</time></trkpt><trkpt lat="45.5362237" lon="12.300546"><ele>1.8</ele><time>2026-04-06T16:13:56.249Z</time></trkpt><trkpt lat="45.5361314" lon="12.3006483"><ele>1.6</ele><time>2026-04-06T16:13:58.229Z</time></trkpt><trkpt lat="45.5360431" lon="12.3007827"><ele>1.4000000000000001</ele><time>2026-04-06T16:14:00.23Z</time></trkpt><trkpt lat="45.5360042" lon="12.3008595"><ele>1.2000000000000002</ele><time>2026-04-06T16:14:01.229Z</time></trkpt><trkpt lat="45.5359672" lon="12.3009331"><ele>1.0</ele><time>2026-04-06T16:14:02.237Z</time></trkpt><trkpt lat="45.5359035" lon="12.3010829"><ele>1.0</ele><time>2026-04-06T16:14:04.228Z</time></trkpt><trkpt lat="45.5358725" lon="12.3011646"><ele>1.0</ele><time>2026-04-06T16:14:05.222Z</time></trkpt><trkpt lat="45.5358158" lon="12.3013274"><ele>1.0</ele><time>2026-04-06T16:14:07.234Z</time></trkpt><trkpt lat="45.5357856" lon="12.3014121"><ele>1.0</ele><time>2026-04-06T16:14:08.219Z</time></trkpt><trkpt lat="45.5357214" lon="12.3015791"><ele>1.0</ele><time>2026-04-06T16:14:10.234Z</time></trkpt><trkpt lat="45.5356822" lon="12.3016611"><ele>1.0</ele><time>2026-04-06T16:14:11.215Z</time></trkpt><trkpt lat="45.5356406" lon="12.3017423"><ele>0.9999999999999999</ele><time>2026-04-06T16:14:12.229Z</time></trkpt><trkpt lat="45.5355992" lon="12.3018225"><ele>1.0</ele><time>2026-04-06T16:14:13.22Z</time></trkpt><trkpt lat="45.5355524" lon="12.3018985"><ele>1.0</ele><time>2026-04-06T16:14:14.234Z</time></trkpt><trkpt lat="45.535499" lon="12.3019638"><ele>0.9999999999999999</ele><time>2026-04-06T16:14:15.233Z</time></trkpt><trkpt lat="45.5354414" lon="12.3020189"><ele>1.0</ele><time>2026-04-06T16:14:16.238Z</time></trkpt><trkpt lat="45.5353729" lon="12.3020522"><ele>1.0</ele><time>2026-04-06T16:14:17.238Z</time></trkpt><trkpt lat="45.5352996" lon="12.3020637"><ele>1.2000000000000002</ele><time>2026-04-06T16:14:18.241Z</time></trkpt><trkpt lat="45.5352278" lon="12.3020602"><ele>1.4000000000000001</ele><time>2026-04-06T16:14:19.217Z</time></trkpt><trkpt lat="45.5351623" lon="12.3020391"><ele>1.6</ele><time>2026-04-06T16:14:20.241Z</time></trkpt><trkpt lat="45.5350693" lon="12.3019561"><ele>1.8</ele><time>2026-04-06T16:14:22.238Z</time></trkpt><trkpt lat="45.5350011" lon="12.3018454"><ele>2.0</ele><time>2026-04-06T16:14:24.236Z</time></trkpt><trkpt lat="45.5349227" lon="12.301731"><ele>2.0</ele><time>2026-04-06T16:14:26.225Z</time></trkpt><trkpt lat="45.5348375" lon="12.3016126"><ele>2.0</ele><time>2026-04-06T16:14:28.228Z</time></trkpt><trkpt lat="45.5347424" lon="12.3014998"><ele>2.0</ele><time>2026-04-06T16:14:30.233Z</time></trkpt><trkpt lat="45.5346377" lon="12.3014171"><ele>2.0</ele><time>2026-04-06T16:14:32.222Z</time></trkpt><trkpt lat="45.5345306" lon="12.301366"><ele>2.0</ele><time>2026-04-06T16:14:34.236Z</time></trkpt><trkpt lat="45.5344241" lon="12.3013457"><ele>2.0</ele><time>2026-04-06T16:14:36.231Z</time></trkpt><trkpt lat="45.5343277" lon="12.3012781"><ele>2.0</ele><time>2026-04-06T16:14:38.224Z</time></trkpt><trkpt lat="45.5342332" lon="12.3012714"><ele>2.0</ele><time>2026-04-06T16:14:40.219Z</time></trkpt><trkpt lat="45.5341437" lon="12.3013314"><ele>2.0</ele><time>2026-04-06T16:14:42.24Z</time></trkpt><trkpt lat="45.5340521" lon="12.3014025"><ele>2.1666666666666665</ele><time>2026-04-06T16:14:44.228Z</time></trkpt><trkpt lat="45.5339443" lon="12.3015059"><ele>2.333333333333333</ele><time>2026-04-06T16:14:46.218Z</time></trkpt><trkpt lat="45.5338963" lon="12.3015797"><ele>2.5</ele><time>2026-04-06T16:14:47.221Z</time></trkpt><trkpt lat="45.5338501" lon="12.3016537"><ele>2.6666666666666665</ele><time>2026-04-06T16:14:48.224Z</time></trkpt><trkpt lat="45.5338086" lon="12.3017311"><ele>2.8333333333333335</ele><time>2026-04-06T16:14:49.226Z</time></trkpt><trkpt lat="45.5337747" lon="12.3018141"><ele>3.0</ele><time>2026-04-06T16:14:50.231Z</time></trkpt><trkpt lat="45.533745" lon="12.3018992"><ele>2.5</ele><time>2026-04-06T16:14:51.222Z</time></trkpt><trkpt lat="45.5337194" lon="12.3019846"><ele>2.0</ele><time>2026-04-06T16:14:52.236Z</time></trkpt><trkpt lat="45.5336979" lon="12.3020704"><ele>1.5</ele><time>2026-04-06T16:14:53.236Z</time></trkpt><trkpt lat="45.5336789" lon="12.3021565"><ele>1.0</ele><time>2026-04-06T16:14:54.24Z</time></trkpt><trkpt lat="45.5336451" lon="12.3023233"><ele>0.5</ele><time>2026-04-06T16:14:56.25Z</time></trkpt><trkpt lat="45.5336013" lon="12.3024801"><ele>0.0</ele><time>2026-04-06T16:14:58.226Z</time></trkpt><trkpt lat="45.533527" lon="12.3025975"><ele>0.0</ele><time>2026-04-06T16:15:00.24Z</time></trkpt><trkpt lat="45.5334226" lon="12.302653"><ele>0.0</ele><time>2026-04-06T16:15:02.236Z</time></trkpt><trkpt lat="45.5333143" lon="12.3026884"><ele>0.0</ele><time>2026-04-06T16:15:04.24Z</time></trkpt><trkpt lat="45.5332037" lon="12.302718"><ele>0.0</ele><time>2026-04-06T16:15:06.229Z</time></trkpt><trkpt lat="45.5330954" lon="12.3027525"><ele>0.0</ele><time>2026-04-06T16:15:08.236Z</time></trkpt><trkpt lat="45.5329867" lon="12.302785"><ele>0.0</ele><time>2026-04-06T16:15:10.233Z</time></trkpt><trkpt lat="45.532875" lon="12.3028164"><ele>0.0</ele><time>2026-04-06T16:15:12.236Z</time></trkpt><trkpt lat="45.5327603" lon="12.3028512"><ele>0.0</ele><time>2026-04-06T16:15:14.251Z</time></trkpt><trkpt lat="45.5326543" lon="12.3028832"><ele>0.0</ele><time>2026-04-06T16:15:16.238Z</time></trkpt><trkpt lat="45.5325491" lon="12.3029137"><ele>0.0</ele><time>2026-04-06T16:15:18.233Z</time></trkpt><trkpt lat="45.5324396" lon="12.3029406"><ele>0.0</ele><time>2026-04-06T16:15:20.246Z</time></trkpt><trkpt lat="45.5323284" lon="12.3029707"><ele>0.0</ele><time>2026-04-06T16:15:22.242Z</time></trkpt><trkpt lat="45.5322185" lon="12.3029944"><ele>0.0</ele><time>2026-04-06T16:15:24.217Z</time></trkpt><trkpt lat="45.5321087" lon="12.3030217"><ele>0.0</ele><time>2026-04-06T16:15:26.235Z</time></trkpt><trkpt lat="45.531997" lon="12.3030571"><ele>0.2</ele><time>2026-04-06T16:15:28.227Z</time></trkpt><trkpt lat="45.5318855" lon="12.3030906"><ele>0.4</ele><time>2026-04-06T16:15:30.221Z</time></trkpt><trkpt lat="45.5317749" lon="12.303119"><ele>0.6000000000000001</ele><time>2026-04-06T16:15:32.215Z</time></trkpt><trkpt lat="45.531674" lon="12.3031431"><ele>0.8</ele><time>2026-04-06T16:15:34.242Z</time></trkpt><trkpt lat="45.5315652" lon="12.3031745"><ele>1.0</ele><time>2026-04-06T16:15:36.222Z</time></trkpt><trkpt lat="45.5314516" lon="12.3032108"><ele>1.0</ele><time>2026-04-06T16:15:38.237Z</time></trkpt><trkpt lat="45.531338" lon="12.3032454"><ele>1.0</ele><time>2026-04-06T16:15:40.224Z</time></trkpt><trkpt lat="45.5312255" lon="12.303275"><ele>1.0</ele><time>2026-04-06T16:15:42.236Z</time></trkpt><trkpt lat="45.5311145" lon="12.3033068"><ele>1.0</ele><time>2026-04-06T16:15:44.249Z</time></trkpt><trkpt lat="45.5310064" lon="12.3033396"><ele>1.0</ele><time>2026-04-06T16:15:46.232Z</time></trkpt><trkpt lat="45.5309004" lon="12.3033732"><ele>1.0</ele><time>2026-04-06T16:15:48.24Z</time></trkpt><trkpt lat="45.530792" lon="12.3034052"><ele>1.0</ele><time>2026-04-06T16:15:50.23Z</time></trkpt><trkpt lat="45.5306876" lon="12.3034383"><ele>1.0</ele><time>2026-04-06T16:15:52.216Z</time></trkpt><trkpt lat="45.5305818" lon="12.303461"><ele>1.0</ele><time>2026-04-06T16:15:54.222Z</time></trkpt><trkpt lat="45.5304741" lon="12.3034889"><ele>0.75</ele><time>2026-04-06T16:15:56.207Z</time></trkpt><trkpt lat="45.5303645" lon="12.3035268"><ele>0.5</ele><time>2026-04-06T16:15:58.22Z</time></trkpt><trkpt lat="45.5302569" lon="12.303558"><ele>0.25</ele><time>2026-04-06T16:16:00.206Z</time></trkpt><trkpt lat="45.5301444" lon="12.3035902"><ele>0.0</ele><time>2026-04-06T16:16:02.217Z</time></trkpt><trkpt lat="45.5300301" lon="12.3036285"><ele>0.0</ele><time>2026-04-06T16:16:04.232Z</time></trkpt><trkpt lat="45.5299145" lon="12.3036569"><ele>0.0</ele><time>2026-04-06T16:16:06.219Z</time></trkpt><trkpt lat="45.5298044" lon="12.3036904"><ele>0.0</ele><time>2026-04-06T16:16:08.22Z</time></trkpt><trkpt lat="45.529702" lon="12.3037197"><ele>0.0</ele><time>2026-04-06T16:16:10.204Z</time></trkpt><trkpt lat="45.5296013" lon="12.3037483"><ele>0.0</ele><time>2026-04-06T16:16:12.222Z</time></trkpt><trkpt lat="45.5295094" lon="12.303777"><ele>-0.2</ele><time>2026-04-06T16:16:14.237Z</time></trkpt><trkpt lat="45.529421" lon="12.3038045"><ele>-0.4</ele><time>2026-04-06T16:16:16.217Z</time></trkpt><trkpt lat="45.5293311" lon="12.3038229"><ele>-0.6000000000000001</ele><time>2026-04-06T16:16:18.229Z</time></trkpt><trkpt lat="45.5292371" lon="12.3038536"><ele>-0.8</ele><time>2026-04-06T16:16:20.212Z</time></trkpt><trkpt lat="45.529133" lon="12.3038819"><ele>-1.0</ele><time>2026-04-06T16:16:22.234Z</time></trkpt><trkpt lat="45.5290268" lon="12.3039091"><ele>-0.8</ele><time>2026-04-06T16:16:24.215Z</time></trkpt><trkpt lat="45.5289294" lon="12.3039325"><ele>-0.6000000000000001</ele><time>2026-04-06T16:16:26.224Z</time></trkpt><trkpt lat="45.5288298" lon="12.3039512"><ele>-0.4</ele><time>2026-04-06T16:16:28.222Z</time></trkpt><trkpt lat="45.5287452" lon="12.3039677"><ele>-0.2</ele><time>2026-04-06T16:16:30.215Z</time></trkpt><trkpt lat="45.5286438" lon="12.3039947"><ele>0.0</ele><time>2026-04-06T16:16:32.23Z</time></trkpt><trkpt lat="45.5285302" lon="12.304024"><ele>0.0</ele><time>2026-04-06T16:16:34.23Z</time></trkpt><trkpt lat="45.5284468" lon="12.3040394"><ele>0.0</ele><time>2026-04-06T16:16:36.229Z</time></trkpt><trkpt lat="45.5283588" lon="12.3040373"><ele>0.0</ele><time>2026-04-06T16:16:38.223Z</time></trkpt><trkpt lat="45.5282831" lon="12.3040471"><ele>0.0</ele><time>2026-04-06T16:16:40.223Z</time></trkpt><trkpt lat="45.5281931" lon="12.3040569"><ele>0.0</ele><time>2026-04-06T16:16:43.246Z</time></trkpt><trkpt lat="45.5281011" lon="12.3040979"><ele>0.0</ele><time>2026-04-06T16:16:46.232Z</time></trkpt><trkpt lat="45.5280259" lon="12.3041478"><ele>0.0</ele><time>2026-04-06T16:16:48.237Z</time></trkpt><trkpt lat="45.5279344" lon="12.3042126"><ele>0.0</ele><time>2026-04-06T16:16:50.227Z</time></trkpt><trkpt lat="45.5278303" lon="12.3042646"><ele>0.0</ele><time>2026-04-06T16:16:52.216Z</time></trkpt><trkpt lat="45.5277517" lon="12.3042994"><ele>0.0</ele><time>2026-04-06T16:16:54.236Z</time></trkpt><trkpt lat="45.5276705" lon="12.3043215"><ele>0.0</ele><time>2026-04-06T16:16:57.222Z</time></trkpt><trkpt lat="45.527595" lon="12.3043352"><ele>-0.16666666666666666</ele><time>2026-04-06T16:17:00.231Z</time></trkpt><trkpt lat="45.5275718" lon="12.304456"><ele>-0.3333333333333333</ele><time>2026-04-06T16:17:05.218Z</time></trkpt><trkpt lat="45.5275919" lon="12.3045516"><ele>-0.5</ele><time>2026-04-06T16:17:07.234Z</time></trkpt><trkpt lat="45.5275873" lon="12.3046627"><ele>-0.6666666666666666</ele><time>2026-04-06T16:17:09.236Z</time></trkpt><trkpt lat="45.5275771" lon="12.3047807"><ele>-0.8333333333333333</ele><time>2026-04-06T16:17:11.244Z</time></trkpt><trkpt lat="45.5275644" lon="12.3048911"><ele>-1.0</ele><time>2026-04-06T16:17:13.236Z</time></trkpt><trkpt lat="45.5275547" lon="12.3050047"><ele>-0.9999999999999999</ele><time>2026-04-06T16:17:15.25Z</time></trkpt><trkpt lat="45.5275477" lon="12.3051158"><ele>-1.0</ele><time>2026-04-06T16:17:17.25Z</time></trkpt><trkpt lat="45.5275376" lon="12.3052201"><ele>-1.0</ele><time>2026-04-06T16:17:19.244Z</time></trkpt><trkpt lat="45.5275338" lon="12.3053171"><ele>-1.0</ele><time>2026-04-06T16:17:21.223Z</time></trkpt><trkpt lat="45.5275311" lon="12.305441"><ele>-0.9999999999999999</ele><time>2026-04-06T16:17:23.238Z</time></trkpt><trkpt lat="45.527525" lon="12.3055823"><ele>-1.0</ele><time>2026-04-06T16:17:25.242Z</time></trkpt><trkpt lat="45.5275225" lon="12.3057234"><ele>-1.0</ele><time>2026-04-06T16:17:27.231Z</time></trkpt><trkpt lat="45.5275113" lon="12.3058801"><ele>-1.0</ele><time>2026-04-06T16:17:29.224Z</time></trkpt><trkpt lat="45.5275033" lon="12.3060255"><ele>-1.0</ele><time>2026-04-06T16:17:31.236Z</time></trkpt><trkpt lat="45.5274971" lon="12.3061574"><ele>-1.0</ele><time>2026-04-06T16:17:33.229Z</time></trkpt><trkpt lat="45.5274872" lon="12.3062797"><ele>-1.0</ele><time>2026-04-06T16:17:35.236Z</time></trkpt><trkpt lat="45.5274807" lon="12.3064082"><ele>-1.3333333333333333</ele><time>2026-04-06T16:17:37.231Z</time></trkpt><trkpt lat="45.5274788" lon="12.3065199"><ele>-1.6666666666666665</ele><time>2026-04-06T16:17:39.248Z</time></trkpt><trkpt lat="45.52747" lon="12.306623"><ele>-2.0</ele><time>2026-04-06T16:17:41.226Z</time></trkpt><trkpt lat="45.5274626" lon="12.3067484"><ele>-2.3333333333333335</ele><time>2026-04-06T16:17:43.246Z</time></trkpt><trkpt lat="45.5274509" lon="12.3068859"><ele>-2.6666666666666665</ele><time>2026-04-06T16:17:45.235Z</time></trkpt><trkpt lat="45.5274423" lon="12.3070217"><ele>-3.0</ele><time>2026-04-06T16:17:47.24Z</time></trkpt><trkpt lat="45.5274286" lon="12.3071496"><ele>-3.2</ele><time>2026-04-06T16:17:49.227Z</time></trkpt><trkpt lat="45.5274107" lon="12.3072712"><ele>-3.4</ele><time>2026-04-06T16:17:51.228Z</time></trkpt><trkpt lat="45.5273915" lon="12.3074037"><ele>-3.6000000000000005</ele><time>2026-04-06T16:17:53.26Z</time></trkpt><trkpt lat="45.5273773" lon="12.3075412"><ele>-3.8000000000000003</ele><time>2026-04-06T16:17:55.233Z</time></trkpt><trkpt lat="45.5273632" lon="12.3076822"><ele>-4.0</ele><time>2026-04-06T16:17:57.225Z</time></trkpt><trkpt lat="45.5273539" lon="12.3078203"><ele>-4.0</ele><time>2026-04-06T16:17:59.245Z</time></trkpt><trkpt lat="45.5273489" lon="12.3079614"><ele>-4.0</ele><time>2026-04-06T16:18:01.229Z</time></trkpt><trkpt lat="45.5273554" lon="12.3080989"><ele>-4.0</ele><time>2026-04-06T16:18:03.236Z</time></trkpt><trkpt lat="45.527365" lon="12.3082306"><ele>-4.0</ele><time>2026-04-06T16:18:05.234Z</time></trkpt><trkpt lat="45.5273779" lon="12.3083827"><ele>-4.0</ele><time>2026-04-06T16:18:07.228Z</time></trkpt><trkpt lat="45.5274031" lon="12.3085369"><ele>-3.8000000000000003</ele><time>2026-04-06T16:18:09.241Z</time></trkpt><trkpt lat="45.5274297" lon="12.308684"><ele>-3.6000000000000005</ele><time>2026-04-06T16:18:11.247Z</time></trkpt><trkpt lat="45.5274545" lon="12.3088086"><ele>-3.4</ele><time>2026-04-06T16:18:13.239Z</time></trkpt><trkpt lat="45.5274806" lon="12.3089392"><ele>-3.2</ele><time>2026-04-06T16:18:15.229Z</time></trkpt><trkpt lat="45.5275077" lon="12.3090856"><ele>-3.0</ele><time>2026-04-06T16:18:17.252Z</time></trkpt><trkpt lat="45.5275229" lon="12.3092317"><ele>-3.0</ele><time>2026-04-06T16:18:19.226Z</time></trkpt><trkpt lat="45.5275331" lon="12.3093867"><ele>-3.0</ele><time>2026-04-06T16:18:21.236Z</time></trkpt><trkpt lat="45.527532" lon="12.3095407"><ele>-3.0</ele><time>2026-04-06T16:18:23.219Z</time></trkpt><trkpt lat="45.5275241" lon="12.309685"><ele>-3.0</ele><time>2026-04-06T16:18:25.234Z</time></trkpt><trkpt lat="45.5274994" lon="12.3098171"><ele>-3.0</ele><time>2026-04-06T16:18:27.235Z</time></trkpt><trkpt lat="45.5274623" lon="12.3099508"><ele>-2.8</ele><time>2026-04-06T16:18:29.238Z</time></trkpt><trkpt lat="45.52741" lon="12.310093"><ele>-2.5999999999999996</ele><time>2026-04-06T16:18:31.242Z</time></trkpt><trkpt lat="45.5273547" lon="12.3102303"><ele>-2.4000000000000004</ele><time>2026-04-06T16:18:33.232Z</time></trkpt><trkpt lat="45.5273054" lon="12.3103415"><ele>-2.2</ele><time>2026-04-06T16:18:35.232Z</time></trkpt><trkpt lat="45.5272553" lon="12.310456"><ele>-2.0</ele><time>2026-04-06T16:18:37.222Z</time></trkpt><trkpt lat="45.527189" lon="12.3105748"><ele>-1.8</ele><time>2026-04-06T16:18:39.234Z</time></trkpt><trkpt lat="45.5271239" lon="12.3107115"><ele>-1.6</ele><time>2026-04-06T16:18:41.223Z</time></trkpt><trkpt lat="45.5270676" lon="12.3108391"><ele>-1.4000000000000001</ele><time>2026-04-06T16:18:43.23Z</time></trkpt><trkpt lat="45.527017" lon="12.3109601"><ele>-1.2000000000000002</ele><time>2026-04-06T16:18:45.231Z</time></trkpt><trkpt lat="45.5269628" lon="12.3110863"><ele>-1.0</ele><time>2026-04-06T16:18:47.226Z</time></trkpt><trkpt lat="45.5269073" lon="12.3112088"><ele>-1.4</ele><time>2026-04-06T16:18:49.219Z</time></trkpt><trkpt lat="45.5268554" lon="12.3113294"><ele>-1.8</ele><time>2026-04-06T16:18:51.23Z</time></trkpt><trkpt lat="45.5268013" lon="12.3114505"><ele>-2.1999999999999997</ele><time>2026-04-06T16:18:53.25Z</time></trkpt><trkpt lat="45.5267428" lon="12.3115799"><ele>-2.6</ele><time>2026-04-06T16:18:55.229Z</time></trkpt><trkpt lat="45.5266847" lon="12.3116926"><ele>-3.0</ele><time>2026-04-06T16:18:57.229Z</time></trkpt><trkpt lat="45.5266152" lon="12.3118111"><ele>-3.0</ele><time>2026-04-06T16:18:59.219Z</time></trkpt><trkpt lat="45.5265502" lon="12.3119277"><ele>-3.0</ele><time>2026-04-06T16:19:01.227Z</time></trkpt><trkpt lat="45.5264958" lon="12.3120662"><ele>-3.0</ele><time>2026-04-06T16:19:03.226Z</time></trkpt><trkpt lat="45.5264515" lon="12.31221"><ele>-3.0</ele><time>2026-04-06T16:19:05.225Z</time></trkpt><trkpt lat="45.5264217" lon="12.3123455"><ele>-3.0</ele><time>2026-04-06T16:19:07.228Z</time></trkpt><trkpt lat="45.526389" lon="12.3125024"><ele>-2.8</ele><time>2026-04-06T16:19:09.235Z</time></trkpt><trkpt lat="45.5263667" lon="12.3126516"><ele>-2.5999999999999996</ele><time>2026-04-06T16:19:11.225Z</time></trkpt><trkpt lat="45.5263458" lon="12.3127944"><ele>-2.4000000000000004</ele><time>2026-04-06T16:19:13.226Z</time></trkpt><trkpt lat="45.5263237" lon="12.3129392"><ele>-2.2</ele><time>2026-04-06T16:19:15.217Z</time></trkpt><trkpt lat="45.5262989" lon="12.3130789"><ele>-2.0</ele><time>2026-04-06T16:19:17.251Z</time></trkpt><trkpt lat="45.5262732" lon="12.3132214"><ele>-2.0</ele><time>2026-04-06T16:19:19.229Z</time></trkpt><trkpt lat="45.5262351" lon="12.3133619"><ele>-2.0</ele><time>2026-04-06T16:19:21.239Z</time></trkpt><trkpt lat="45.5261914" lon="12.3134897"><ele>-2.0</ele><time>2026-04-06T16:19:23.22Z</time></trkpt><trkpt lat="45.5261475" lon="12.3136173"><ele>-2.0</ele><time>2026-04-06T16:19:25.229Z</time></trkpt><trkpt lat="45.5261104" lon="12.3137533"><ele>-2.0</ele><time>2026-04-06T16:19:27.238Z</time></trkpt><trkpt lat="45.5260925" lon="12.3138398"><ele>-1.6</ele><time>2026-04-06T16:19:28.241Z</time></trkpt><trkpt lat="45.5260859" lon="12.3139929"><ele>-1.2000000000000002</ele><time>2026-04-06T16:19:30.233Z</time></trkpt><trkpt lat="45.5260984" lon="12.3141535"><ele>-0.8</ele><time>2026-04-06T16:19:32.24Z</time></trkpt><trkpt lat="45.5261218" lon="12.3142918"><ele>-0.4</ele><time>2026-04-06T16:19:34.219Z</time></trkpt><trkpt lat="45.5261415" lon="12.3144246"><ele>0.0</ele><time>2026-04-06T16:19:36.244Z</time></trkpt><trkpt lat="45.5261651" lon="12.3145675"><ele>0.0</ele><time>2026-04-06T16:19:38.251Z</time></trkpt><trkpt lat="45.5261958" lon="12.3147096"><ele>0.0</ele><time>2026-04-06T16:19:40.246Z</time></trkpt><trkpt lat="45.5262266" lon="12.3148507"><ele>0.0</ele><time>2026-04-06T16:19:42.239Z</time></trkpt><trkpt lat="45.5262691" lon="12.3149955"><ele>0.0</ele><time>2026-04-06T16:19:44.231Z</time></trkpt><trkpt lat="45.526306" lon="12.3151419"><ele>0.0</ele><time>2026-04-06T16:19:46.238Z</time></trkpt><trkpt lat="45.5263363" lon="12.315288"><ele>-0.2</ele><time>2026-04-06T16:19:48.263Z</time></trkpt><trkpt lat="45.5263679" lon="12.3154327"><ele>-0.4</ele><time>2026-04-06T16:19:50.221Z</time></trkpt><trkpt lat="45.5263895" lon="12.3155776"><ele>-0.6000000000000001</ele><time>2026-04-06T16:19:52.24Z</time></trkpt><trkpt lat="45.5264206" lon="12.3157267"><ele>-0.8</ele><time>2026-04-06T16:19:54.235Z</time></trkpt><trkpt lat="45.5264457" lon="12.3158724"><ele>-1.0</ele><time>2026-04-06T16:19:56.233Z</time></trkpt><trkpt lat="45.5264744" lon="12.3160216"><ele>-1.0</ele><time>2026-04-06T16:19:58.247Z</time></trkpt><trkpt lat="45.526496" lon="12.3161528"><ele>-1.0</ele><time>2026-04-06T16:20:00.217Z</time></trkpt><trkpt lat="45.5265213" lon="12.3162996"><ele>-1.0</ele><time>2026-04-06T16:20:02.245Z</time></trkpt><trkpt lat="45.5265452" lon="12.3164476"><ele>-1.0</ele><time>2026-04-06T16:20:04.233Z</time></trkpt><trkpt lat="45.5265701" lon="12.3165885"><ele>-1.0</ele><time>2026-04-06T16:20:06.243Z</time></trkpt><trkpt lat="45.5265902" lon="12.3167339"><ele>-1.2000000000000002</ele><time>2026-04-06T16:20:08.215Z</time></trkpt><trkpt lat="45.5266111" lon="12.3168785"><ele>-1.4000000000000001</ele><time>2026-04-06T16:20:10.218Z</time></trkpt><trkpt lat="45.5266292" lon="12.3170193"><ele>-1.6</ele><time>2026-04-06T16:20:12.232Z</time></trkpt><trkpt lat="45.5266543" lon="12.31716"><ele>-1.8</ele><time>2026-04-06T16:20:14.211Z</time></trkpt><trkpt lat="45.5266741" lon="12.3173065"><ele>-2.0</ele><time>2026-04-06T16:20:16.218Z</time></trkpt><trkpt lat="45.5267009" lon="12.3174564"><ele>-2.0</ele><time>2026-04-06T16:20:18.211Z</time></trkpt><trkpt lat="45.526732" lon="12.3176016"><ele>-2.0</ele><time>2026-04-06T16:20:20.23Z</time></trkpt><trkpt lat="45.5267637" lon="12.3177465"><ele>-2.0</ele><time>2026-04-06T16:20:22.217Z</time></trkpt><trkpt lat="45.5267933" lon="12.3178818"><ele>-2.0</ele><time>2026-04-06T16:20:24.224Z</time></trkpt><trkpt lat="45.5268286" lon="12.3180098"><ele>-2.0</ele><time>2026-04-06T16:20:26.223Z</time></trkpt><trkpt lat="45.526875" lon="12.3181541"><ele>-2.0</ele><time>2026-04-06T16:20:28.213Z</time></trkpt><trkpt lat="45.52693" lon="12.3182828"><ele>-2.0</ele><time>2026-04-06T16:20:30.236Z</time></trkpt><trkpt lat="45.526993" lon="12.3184096"><ele>-2.0</ele><time>2026-04-06T16:20:32.232Z</time></trkpt><trkpt lat="45.527056" lon="12.3185198"><ele>-2.0</ele><time>2026-04-06T16:20:34.226Z</time></trkpt><trkpt lat="45.5271261" lon="12.3186288"><ele>-2.0</ele><time>2026-04-06T16:20:36.224Z</time></trkpt><trkpt lat="45.527202" lon="12.3187346"><ele>-1.8</ele><time>2026-04-06T16:20:38.231Z</time></trkpt><trkpt lat="45.5272886" lon="12.3188322"><ele>-1.6</ele><time>2026-04-06T16:20:40.222Z</time></trkpt><trkpt lat="45.5273709" lon="12.3189253"><ele>-1.4000000000000001</ele><time>2026-04-06T16:20:42.234Z</time></trkpt><trkpt lat="45.5274558" lon="12.31901"><ele>-1.2000000000000002</ele><time>2026-04-06T16:20:44.242Z</time></trkpt><trkpt lat="45.5275413" lon="12.3190904"><ele>-1.0</ele><time>2026-04-06T16:20:46.218Z</time></trkpt><trkpt lat="45.5276351" lon="12.319161"><ele>-1.0</ele><time>2026-04-06T16:20:48.227Z</time></trkpt><trkpt lat="45.5277313" lon="12.3192354"><ele>-1.0</ele><time>2026-04-06T16:20:50.228Z</time></trkpt><trkpt lat="45.5278297" lon="12.3193006"><ele>-1.0</ele><time>2026-04-06T16:20:52.224Z</time></trkpt><trkpt lat="45.5279275" lon="12.3193654"><ele>-1.0</ele><time>2026-04-06T16:20:54.219Z</time></trkpt><trkpt lat="45.5280257" lon="12.3194319"><ele>-1.0</ele><time>2026-04-06T16:20:56.235Z</time></trkpt><trkpt lat="45.5281174" lon="12.3195206"><ele>-1.2000000000000002</ele><time>2026-04-06T16:20:58.236Z</time></trkpt><trkpt lat="45.5282019" lon="12.3196124"><ele>-1.4000000000000001</ele><time>2026-04-06T16:21:00.238Z</time></trkpt><trkpt lat="45.528282" lon="12.3197154"><ele>-1.6</ele><time>2026-04-06T16:21:02.223Z</time></trkpt><trkpt lat="45.5283541" lon="12.3198125"><ele>-1.8</ele><time>2026-04-06T16:21:04.222Z</time></trkpt><trkpt lat="45.528432" lon="12.3199052"><ele>-2.0</ele><time>2026-04-06T16:21:06.224Z</time></trkpt><trkpt lat="45.5285201" lon="12.3199982"><ele>-1.4000000000000001</ele><time>2026-04-06T16:21:08.227Z</time></trkpt><trkpt lat="45.5286184" lon="12.3200805"><ele>-0.8000000000000002</ele><time>2026-04-06T16:21:10.241Z</time></trkpt><trkpt lat="45.528714" lon="12.3201541"><ele>-0.19999999999999996</ele><time>2026-04-06T16:21:12.224Z</time></trkpt><trkpt lat="45.5288129" lon="12.3202123"><ele>0.4</ele><time>2026-04-06T16:21:14.241Z</time></trkpt><trkpt lat="45.5289178" lon="12.3202769"><ele>1.0</ele><time>2026-04-06T16:21:16.221Z</time></trkpt><trkpt lat="45.5290119" lon="12.3203463"><ele>1.1666666666666665</ele><time>2026-04-06T16:21:18.257Z</time></trkpt><trkpt lat="45.5290918" lon="12.3203912"><ele>1.3333333333333333</ele><time>2026-04-06T16:21:20.227Z</time></trkpt><trkpt lat="45.5291514" lon="12.3204337"><ele>1.5</ele><time>2026-04-06T16:21:21.23Z</time></trkpt><trkpt lat="45.5292481" lon="12.320411"><ele>1.6666666666666665</ele><time>2026-04-06T16:21:24.225Z</time></trkpt><trkpt lat="45.5293392" lon="12.3204393"><ele>1.8333333333333333</ele><time>2026-04-06T16:21:26.239Z</time></trkpt><trkpt lat="45.5294322" lon="12.3204643"><ele>2.0</ele><time>2026-04-06T16:21:28.224Z</time></trkpt><trkpt lat="45.5295306" lon="12.3204836"><ele>1.6</ele><time>2026-04-06T16:21:30.235Z</time></trkpt><trkpt lat="45.529631" lon="12.3204802"><ele>1.2000000000000002</ele><time>2026-04-06T16:21:32.219Z</time></trkpt><trkpt lat="45.5297235" lon="12.3204406"><ele>0.8</ele><time>2026-04-06T16:21:34.243Z</time></trkpt><trkpt lat="45.529818" lon="12.3203826"><ele>0.4</ele><time>2026-04-06T16:21:36.235Z</time></trkpt><trkpt lat="45.5299038" lon="12.3203068"><ele>0.0</ele><time>2026-04-06T16:21:38.228Z</time></trkpt><trkpt lat="45.5299725" lon="12.3202395"><ele>0.0</ele><time>2026-04-06T16:21:40.225Z</time></trkpt><trkpt lat="45.5300363" lon="12.3201679"><ele>0.0</ele><time>2026-04-06T16:21:42.228Z</time></trkpt><trkpt lat="45.5300941" lon="12.32012"><ele>0.0</ele><time>2026-04-06T16:21:44.226Z</time></trkpt><trkpt lat="45.5301865" lon="12.3201146"><ele>0.0</ele><time>2026-04-06T16:21:47.221Z</time></trkpt><trkpt lat="45.530243" lon="12.3201639"><ele>0.0</ele><time>2026-04-06T16:21:49.231Z</time></trkpt><trkpt lat="45.5303007" lon="12.3202166"><ele>0.0</ele><time>2026-04-06T16:21:51.228Z</time></trkpt><trkpt lat="45.5303497" lon="12.3202813"><ele>0.0</ele><time>2026-04-06T16:21:53.22Z</time></trkpt><trkpt lat="45.5303936" lon="12.3203471"><ele>-0.16666666666666666</ele><time>2026-04-06T16:21:55.206Z</time></trkpt><trkpt lat="45.5304659" lon="12.3204262"><ele>-0.3333333333333333</ele><time>2026-04-06T16:21:58.244Z</time></trkpt><trkpt lat="45.5305254" lon="12.3204897"><ele>-0.5</ele><time>2026-04-06T16:22:00.222Z</time></trkpt><trkpt lat="45.5305898" lon="12.3205485"><ele>-0.6666666666666666</ele><time>2026-04-06T16:22:02.237Z</time></trkpt><trkpt lat="45.5306626" lon="12.3206047"><ele>-0.8333333333333333</ele><time>2026-04-06T16:22:04.21Z</time></trkpt><trkpt lat="45.5307266" lon="12.3206474"><ele>-1.0</ele><time>2026-04-06T16:22:06.323Z</time></trkpt><trkpt lat="45.5308075" lon="12.3206894"><ele>-1.0</ele><time>2026-04-06T16:22:08.242Z</time></trkpt><trkpt lat="45.5308962" lon="12.3207124"><ele>-1.0</ele><time>2026-04-06T16:22:10.237Z</time></trkpt><trkpt lat="45.5309903" lon="12.3207253"><ele>-1.0</ele><time>2026-04-06T16:22:12.22Z</time></trkpt><trkpt lat="45.5310857" lon="12.3207245"><ele>-1.0</ele><time>2026-04-06T16:22:14.225Z</time></trkpt><trkpt lat="45.5311865" lon="12.3207117"><ele>-1.0</ele><time>2026-04-06T16:22:16.232Z</time></trkpt><trkpt lat="45.5312874" lon="12.3206973"><ele>-1.4</ele><time>2026-04-06T16:22:18.233Z</time></trkpt><trkpt lat="45.531387" lon="12.3206885"><ele>-1.8</ele><time>2026-04-06T16:22:20.224Z</time></trkpt><trkpt lat="45.5314844" lon="12.3207052"><ele>-2.1999999999999997</ele><time>2026-04-06T16:22:22.233Z</time></trkpt><trkpt lat="45.5315758" lon="12.3207593"><ele>-2.6</ele><time>2026-04-06T16:22:24.221Z</time></trkpt><trkpt lat="45.5316618" lon="12.3208263"><ele>-3.0</ele><time>2026-04-06T16:22:26.229Z</time></trkpt><trkpt lat="45.5317464" lon="12.3209024"><ele>-3.0</ele><time>2026-04-06T16:22:28.232Z</time></trkpt><trkpt lat="45.531829" lon="12.3209747"><ele>-3.0</ele><time>2026-04-06T16:22:30.228Z</time></trkpt><trkpt lat="45.531913" lon="12.3210472"><ele>-3.0</ele><time>2026-04-06T16:22:32.238Z</time></trkpt><trkpt lat="45.5319949" lon="12.3211141"><ele>-3.0</ele><time>2026-04-06T16:22:34.236Z</time></trkpt><trkpt lat="45.5320808" lon="12.3211819"><ele>-3.0</ele><time>2026-04-06T16:22:36.236Z</time></trkpt><trkpt lat="45.5321691" lon="12.3212526"><ele>-3.2</ele><time>2026-04-06T16:22:38.239Z</time></trkpt><trkpt lat="45.5322576" lon="12.3213236"><ele>-3.4</ele><time>2026-04-06T16:22:40.231Z</time></trkpt><trkpt lat="45.5323477" lon="12.3213905"><ele>-3.6000000000000005</ele><time>2026-04-06T16:22:42.241Z</time></trkpt><trkpt lat="45.5324349" lon="12.3214558"><ele>-3.8000000000000003</ele><time>2026-04-06T16:22:44.245Z</time></trkpt><trkpt lat="45.5325209" lon="12.321526"><ele>-4.0</ele><time>2026-04-06T16:22:46.227Z</time></trkpt><trkpt lat="45.5326076" lon="12.3215981"><ele>-4.2</ele><time>2026-04-06T16:22:48.241Z</time></trkpt><trkpt lat="45.5326905" lon="12.3216831"><ele>-4.4</ele><time>2026-04-06T16:22:50.222Z</time></trkpt><trkpt lat="45.5327582" lon="12.3217812"><ele>-4.6</ele><time>2026-04-06T16:22:52.244Z</time></trkpt><trkpt lat="45.5328083" lon="12.3219097"><ele>-4.8</ele><time>2026-04-06T16:22:54.239Z</time></trkpt><trkpt lat="45.5328395" lon="12.322048"><ele>-5.0</ele><time>2026-04-06T16:22:56.216Z</time></trkpt><trkpt lat="45.532877" lon="12.3221873"><ele>-4.4</ele><time>2026-04-06T16:22:58.228Z</time></trkpt><trkpt lat="45.5329167" lon="12.3223203"><ele>-3.8</ele><time>2026-04-06T16:23:00.24Z</time></trkpt><trkpt lat="45.5329652" lon="12.3224364"><ele>-3.2</ele><time>2026-04-06T16:23:02.246Z</time></trkpt><trkpt lat="45.5330171" lon="12.3225518"><ele>-2.6</ele><time>2026-04-06T16:23:04.238Z</time></trkpt><trkpt lat="45.5330701" lon="12.322665"><ele>-2.0</ele><time>2026-04-06T16:23:06.233Z</time></trkpt><trkpt lat="45.533122" lon="12.3227872"><ele>-2.0</ele><time>2026-04-06T16:23:08.267Z</time></trkpt><trkpt lat="45.5331703" lon="12.3229091"><ele>-2.0</ele><time>2026-04-06T16:23:10.246Z</time></trkpt><trkpt lat="45.5332076" lon="12.3230503"><ele>-2.0</ele><time>2026-04-06T16:23:12.229Z</time></trkpt><trkpt lat="45.5332183" lon="12.3232011"><ele>-2.0</ele><time>2026-04-06T16:23:14.236Z</time></trkpt><trkpt lat="45.5332053" lon="12.3233469"><ele>-2.0</ele><time>2026-04-06T16:23:16.258Z</time></trkpt><trkpt lat="45.533185" lon="12.3234869"><ele>-2.0</ele><time>2026-04-06T16:23:18.246Z</time></trkpt><trkpt lat="45.533162" lon="12.3236281"><ele>-2.0</ele><time>2026-04-06T16:23:20.239Z</time></trkpt><trkpt lat="45.5331352" lon="12.3237831"><ele>-2.0</ele><time>2026-04-06T16:23:22.227Z</time></trkpt><trkpt lat="45.5331193" lon="12.3239318"><ele>-2.0</ele><time>2026-04-06T16:23:24.251Z</time></trkpt><trkpt lat="45.533116" lon="12.3240761"><ele>-2.0</ele><time>2026-04-06T16:23:26.232Z</time></trkpt><trkpt lat="45.5331204" lon="12.3242221"><ele>-2.0</ele><time>2026-04-06T16:23:28.22Z</time></trkpt><trkpt lat="45.5331255" lon="12.3243684"><ele>-2.0</ele><time>2026-04-06T16:23:30.236Z</time></trkpt><trkpt lat="45.5331312" lon="12.324516"><ele>-2.0</ele><time>2026-04-06T16:23:32.233Z</time></trkpt><trkpt lat="45.5331377" lon="12.3246633"><ele>-2.0</ele><time>2026-04-06T16:23:34.231Z</time></trkpt><trkpt lat="45.5331448" lon="12.3248089"><ele>-2.0</ele><time>2026-04-06T16:23:36.23Z</time></trkpt><trkpt lat="45.5331518" lon="12.3249545"><ele>-1.8</ele><time>2026-04-06T16:23:38.237Z</time></trkpt><trkpt lat="45.5331584" lon="12.3251006"><ele>-1.6</ele><time>2026-04-06T16:23:40.215Z</time></trkpt><trkpt lat="45.5331672" lon="12.3252492"><ele>-1.4000000000000001</ele><time>2026-04-06T16:23:42.233Z</time></trkpt><trkpt lat="45.5331708" lon="12.3253987"><ele>-1.2000000000000002</ele><time>2026-04-06T16:23:44.237Z</time></trkpt><trkpt lat="45.5331541" lon="12.3255525"><ele>-1.0</ele><time>2026-04-06T16:23:46.237Z</time></trkpt><trkpt lat="45.5331259" lon="12.3256811"><ele>-1.0</ele><time>2026-04-06T16:23:48.234Z</time></trkpt><trkpt lat="45.5330934" lon="12.3258156"><ele>-1.0</ele><time>2026-04-06T16:23:50.248Z</time></trkpt><trkpt lat="45.5330576" lon="12.3259367"><ele>-1.0</ele><time>2026-04-06T16:23:52.255Z</time></trkpt><trkpt lat="45.5330178" lon="12.3260563"><ele>-1.0</ele><time>2026-04-06T16:23:54.268Z</time></trkpt><trkpt lat="45.5329754" lon="12.326189"><ele>-1.0</ele><time>2026-04-06T16:23:56.232Z</time></trkpt><trkpt lat="45.5329278" lon="12.3263145"><ele>-1.6</ele><time>2026-04-06T16:23:58.226Z</time></trkpt><trkpt lat="45.5328844" lon="12.3264603"><ele>-2.2</ele><time>2026-04-06T16:24:00.24Z</time></trkpt><trkpt lat="45.5328513" lon="12.3265876"><ele>-2.8000000000000003</ele><time>2026-04-06T16:24:02.247Z</time></trkpt><trkpt lat="45.532818" lon="12.3267184"><ele>-3.4000000000000004</ele><time>2026-04-06T16:24:04.237Z</time></trkpt><trkpt lat="45.532785" lon="12.3268439"><ele>-4.0</ele><time>2026-04-06T16:24:06.241Z</time></trkpt><trkpt lat="45.5327488" lon="12.326979"><ele>-4.0</ele><time>2026-04-06T16:24:08.242Z</time></trkpt><trkpt lat="45.5327141" lon="12.3271106"><ele>-4.0</ele><time>2026-04-06T16:24:10.22Z</time></trkpt><trkpt lat="45.5326778" lon="12.3272471"><ele>-4.0</ele><time>2026-04-06T16:24:12.254Z</time></trkpt><trkpt lat="45.5326435" lon="12.3273902"><ele>-4.0</ele><time>2026-04-06T16:24:14.231Z</time></trkpt><trkpt lat="45.5326135" lon="12.3275298"><ele>-4.0</ele><time>2026-04-06T16:24:16.233Z</time></trkpt><trkpt lat="45.5325909" lon="12.3276716"><ele>-4.0</ele><time>2026-04-06T16:24:18.224Z</time></trkpt><trkpt lat="45.5325703" lon="12.3278185"><ele>-4.0</ele><time>2026-04-06T16:24:20.23Z</time></trkpt><trkpt lat="45.5325626" lon="12.3279566"><ele>-4.0</ele><time>2026-04-06T16:24:22.249Z</time></trkpt><trkpt lat="45.5325539" lon="12.3281096"><ele>-4.0</ele><time>2026-04-06T16:24:24.239Z</time></trkpt><trkpt lat="45.5325536" lon="12.3282532"><ele>-4.0</ele><time>2026-04-06T16:24:26.25Z</time></trkpt><trkpt lat="45.5325528" lon="12.3283991"><ele>-4.0</ele><time>2026-04-06T16:24:28.234Z</time></trkpt><trkpt lat="45.5325556" lon="12.3285521"><ele>-4.0</ele><time>2026-04-06T16:24:30.256Z</time></trkpt><trkpt lat="45.5325612" lon="12.3286933"><ele>-4.0</ele><time>2026-04-06T16:24:32.232Z</time></trkpt><trkpt lat="45.5325716" lon="12.3288369"><ele>-4.0</ele><time>2026-04-06T16:24:34.235Z</time></trkpt><trkpt lat="45.5325889" lon="12.3289833"><ele>-4.0</ele><time>2026-04-06T16:24:36.223Z</time></trkpt><trkpt lat="45.5326177" lon="12.3291264"><ele>-3.8000000000000003</ele><time>2026-04-06T16:24:38.235Z</time></trkpt><trkpt lat="45.5326588" lon="12.3292614"><ele>-3.6000000000000005</ele><time>2026-04-06T16:24:40.226Z</time></trkpt><trkpt lat="45.5327094" lon="12.3293903"><ele>-3.4</ele><time>2026-04-06T16:24:42.251Z</time></trkpt><trkpt lat="45.5327621" lon="12.3295179"><ele>-3.2</ele><time>2026-04-06T16:24:44.245Z</time></trkpt><trkpt lat="45.5328183" lon="12.3296429"><ele>-3.0</ele><time>2026-04-06T16:24:46.234Z</time></trkpt><trkpt lat="45.532877" lon="12.3297707"><ele>-2.6</ele><time>2026-04-06T16:24:48.238Z</time></trkpt><trkpt lat="45.532934" lon="12.3299029"><ele>-2.1999999999999997</ele><time>2026-04-06T16:24:50.247Z</time></trkpt><trkpt lat="45.5329882" lon="12.3300387"><ele>-1.8</ele><time>2026-04-06T16:24:52.245Z</time></trkpt><trkpt lat="45.5330389" lon="12.3301754"><ele>-1.4</ele><time>2026-04-06T16:24:54.248Z</time></trkpt><trkpt lat="45.5330893" lon="12.3303054"><ele>-1.0</ele><time>2026-04-06T16:24:56.232Z</time></trkpt><trkpt lat="45.5331398" lon="12.3304434"><ele>-1.4</ele><time>2026-04-06T16:24:58.224Z</time></trkpt><trkpt lat="45.5331906" lon="12.3305772"><ele>-1.8</ele><time>2026-04-06T16:25:00.231Z</time></trkpt><trkpt lat="45.5332416" lon="12.3307107"><ele>-2.1999999999999997</ele><time>2026-04-06T16:25:02.226Z</time></trkpt><trkpt lat="45.5332989" lon="12.3308364"><ele>-2.6</ele><time>2026-04-06T16:25:04.231Z</time></trkpt><trkpt lat="45.5333593" lon="12.3309558"><ele>-3.0</ele><time>2026-04-06T16:25:06.24Z</time></trkpt><trkpt lat="45.5334391" lon="12.3310603"><ele>-3.0</ele><time>2026-04-06T16:25:08.246Z</time></trkpt><trkpt lat="45.5335363" lon="12.3311304"><ele>-3.0</ele><time>2026-04-06T16:25:10.237Z</time></trkpt><trkpt lat="45.5336389" lon="12.3311764"><ele>-3.0</ele><time>2026-04-06T16:25:12.24Z</time></trkpt><trkpt lat="45.533741" lon="12.3312082"><ele>-3.0</ele><time>2026-04-06T16:25:14.233Z</time></trkpt><trkpt lat="45.5338447" lon="12.3312386"><ele>-3.0</ele><time>2026-04-06T16:25:16.24Z</time></trkpt><trkpt lat="45.5339505" lon="12.3312704"><ele>-2.8</ele><time>2026-04-06T16:25:18.228Z</time></trkpt><trkpt lat="45.534057" lon="12.3313099"><ele>-2.5999999999999996</ele><time>2026-04-06T16:25:20.241Z</time></trkpt><trkpt lat="45.5341634" lon="12.3313636"><ele>-2.4000000000000004</ele><time>2026-04-06T16:25:22.23Z</time></trkpt><trkpt lat="45.534252" lon="12.3314583"><ele>-2.2</ele><time>2026-04-06T16:25:24.239Z</time></trkpt><trkpt lat="45.5343233" lon="12.3315743"><ele>-2.0</ele><time>2026-04-06T16:25:26.246Z</time></trkpt><trkpt lat="45.5343913" lon="12.3317048"><ele>-2.0</ele><time>2026-04-06T16:25:28.251Z</time></trkpt><trkpt lat="45.5344511" lon="12.3318292"><ele>-2.0</ele><time>2026-04-06T16:25:30.234Z</time></trkpt><trkpt lat="45.5345204" lon="12.3319571"><ele>-2.0</ele><time>2026-04-06T16:25:32.226Z</time></trkpt><trkpt lat="45.5345821" lon="12.3320849"><ele>-2.0</ele><time>2026-04-06T16:25:34.23Z</time></trkpt><trkpt lat="45.534641" lon="12.3322041"><ele>-2.0</ele><time>2026-04-06T16:25:36.24Z</time></trkpt><trkpt lat="45.5346974" lon="12.3323267"><ele>-2.0</ele><time>2026-04-06T16:25:38.223Z</time></trkpt><trkpt lat="45.5347541" lon="12.3324566"><ele>-2.0</ele><time>2026-04-06T16:25:40.219Z</time></trkpt><trkpt lat="45.5348034" lon="12.3325877"><ele>-2.0</ele><time>2026-04-06T16:25:42.236Z</time></trkpt><trkpt lat="45.5348321" lon="12.3327274"><ele>-2.0</ele><time>2026-04-06T16:25:44.237Z</time></trkpt><trkpt lat="45.5348369" lon="12.3328795"><ele>-2.0</ele><time>2026-04-06T16:25:46.235Z</time></trkpt><trkpt lat="45.5348175" lon="12.3330368"><ele>-1.8</ele><time>2026-04-06T16:25:48.237Z</time></trkpt><trkpt lat="45.5347895" lon="12.3331883"><ele>-1.6</ele><time>2026-04-06T16:25:50.228Z</time></trkpt><trkpt lat="45.5347567" lon="12.3333349"><ele>-1.4000000000000001</ele><time>2026-04-06T16:25:52.224Z</time></trkpt><trkpt lat="45.5347363" lon="12.3334749"><ele>-1.2000000000000002</ele><time>2026-04-06T16:25:54.24Z</time></trkpt><trkpt lat="45.534727" lon="12.3336232"><ele>-1.0</ele><time>2026-04-06T16:25:56.238Z</time></trkpt><trkpt lat="45.5347215" lon="12.33378"><ele>-1.2000000000000002</ele><time>2026-04-06T16:25:58.241Z</time></trkpt><trkpt lat="45.5347098" lon="12.3339264"><ele>-1.4000000000000001</ele><time>2026-04-06T16:26:00.224Z</time></trkpt><trkpt lat="45.534698" lon="12.3340713"><ele>-1.6</ele><time>2026-04-06T16:26:02.226Z</time></trkpt><trkpt lat="45.534686" lon="12.3342214"><ele>-1.8</ele><time>2026-04-06T16:26:04.23Z</time></trkpt><trkpt lat="45.5346703" lon="12.3343677"><ele>-2.0</ele><time>2026-04-06T16:26:06.228Z</time></trkpt><trkpt lat="45.5346531" lon="12.3345149"><ele>-2.0</ele><time>2026-04-06T16:26:08.253Z</time></trkpt><trkpt lat="45.5346255" lon="12.3346672"><ele>-2.0</ele><time>2026-04-06T16:26:10.243Z</time></trkpt><trkpt lat="45.534588" lon="12.3348097"><ele>-2.0</ele><time>2026-04-06T16:26:12.25Z</time></trkpt><trkpt lat="45.5345484" lon="12.3349516"><ele>-2.0</ele><time>2026-04-06T16:26:14.247Z</time></trkpt><trkpt lat="45.5345145" lon="12.3350774"><ele>-2.0</ele><time>2026-04-06T16:26:16.238Z</time></trkpt><trkpt lat="45.5344826" lon="12.3351812"><ele>-2.1666666666666665</ele><time>2026-04-06T16:26:18.219Z</time></trkpt><trkpt lat="45.5344527" lon="12.3352861"><ele>-2.333333333333333</ele><time>2026-04-06T16:26:20.216Z</time></trkpt><trkpt lat="45.5344249" lon="12.3353833"><ele>-2.5</ele><time>2026-04-06T16:26:22.231Z</time></trkpt><trkpt lat="45.5343987" lon="12.3354947"><ele>-2.6666666666666665</ele><time>2026-04-06T16:26:24.238Z</time></trkpt><trkpt lat="45.5343723" lon="12.33562"><ele>-2.8333333333333335</ele><time>2026-04-06T16:26:26.242Z</time></trkpt><trkpt lat="45.5343455" lon="12.3357428"><ele>-3.0</ele><time>2026-04-06T16:26:28.237Z</time></trkpt><trkpt lat="45.53431" lon="12.3358801"><ele>-3.2</ele><time>2026-04-06T16:26:30.238Z</time></trkpt><trkpt lat="45.5342729" lon="12.3360056"><ele>-3.4</ele><time>2026-04-06T16:26:32.219Z</time></trkpt><trkpt lat="45.534225" lon="12.3361254"><ele>-3.6000000000000005</ele><time>2026-04-06T16:26:34.222Z</time></trkpt><trkpt lat="45.5341699" lon="12.3362449"><ele>-3.8000000000000003</ele><time>2026-04-06T16:26:36.233Z</time></trkpt><trkpt lat="45.5341051" lon="12.3363636"><ele>-4.0</ele><time>2026-04-06T16:26:38.247Z</time></trkpt><trkpt lat="45.5340537" lon="12.3364495"><ele>-3.6666666666666665</ele><time>2026-04-06T16:26:40.235Z</time></trkpt><trkpt lat="45.5340037" lon="12.3365556"><ele>-3.333333333333333</ele><time>2026-04-06T16:26:42.233Z</time></trkpt><trkpt lat="45.5339641" lon="12.3366488"><ele>-3.0</ele><time>2026-04-06T16:26:44.232Z</time></trkpt><trkpt lat="45.5339255" lon="12.3367528"><ele>-2.6666666666666665</ele><time>2026-04-06T16:26:46.243Z</time></trkpt><trkpt lat="45.5338945" lon="12.3368651"><ele>-2.333333333333333</ele><time>2026-04-06T16:26:48.239Z</time></trkpt><trkpt lat="45.5338751" lon="12.3370023"><ele>-2.0</ele><time>2026-04-06T16:26:50.228Z</time></trkpt><trkpt lat="45.533869" lon="12.3371479"><ele>-1.8</ele><time>2026-04-06T16:26:52.226Z</time></trkpt><trkpt lat="45.5338754" lon="12.3372752"><ele>-1.6</ele><time>2026-04-06T16:26:54.25Z</time></trkpt><trkpt lat="45.5339038" lon="12.3373947"><ele>-1.4000000000000001</ele><time>2026-04-06T16:26:56.238Z</time></trkpt><trkpt lat="45.5339365" lon="12.3375273"><ele>-1.2000000000000002</ele><time>2026-04-06T16:26:58.24Z</time></trkpt><trkpt lat="45.5339738" lon="12.3376494"><ele>-1.0</ele><time>2026-04-06T16:27:00.226Z</time></trkpt><trkpt lat="45.5340004" lon="12.3377815"><ele>-1.0</ele><time>2026-04-06T16:27:02.235Z</time></trkpt><trkpt lat="45.5339801" lon="12.33792"><ele>-1.0</ele><time>2026-04-06T16:27:04.238Z</time></trkpt><trkpt lat="45.5339326" lon="12.3380306"><ele>-1.0</ele><time>2026-04-06T16:27:06.239Z</time></trkpt><trkpt lat="45.5338755" lon="12.338144"><ele>-1.0</ele><time>2026-04-06T16:27:08.232Z</time></trkpt><trkpt lat="45.5338171" lon="12.3382432"><ele>-1.0</ele><time>2026-04-06T16:27:10.225Z</time></trkpt><trkpt lat="45.5337521" lon="12.3383454"><ele>-1.6</ele><time>2026-04-06T16:27:12.227Z</time></trkpt><trkpt lat="45.5336882" lon="12.3384247"><ele>-2.2</ele><time>2026-04-06T16:27:14.252Z</time></trkpt><trkpt lat="45.5336208" lon="12.3385029"><ele>-2.8000000000000003</ele><time>2026-04-06T16:27:16.219Z</time></trkpt><trkpt lat="45.5335548" lon="12.3385987"><ele>-3.4000000000000004</ele><time>2026-04-06T16:27:18.238Z</time></trkpt><trkpt lat="45.5334933" lon="12.3387163"><ele>-4.0</ele><time>2026-04-06T16:27:20.223Z</time></trkpt><trkpt lat="45.5334355" lon="12.3388382"><ele>-4.0</ele><time>2026-04-06T16:27:22.231Z</time></trkpt><trkpt lat="45.5333828" lon="12.3389501"><ele>-4.0</ele><time>2026-04-06T16:27:24.237Z</time></trkpt><trkpt lat="45.5333279" lon="12.3390722"><ele>-4.0</ele><time>2026-04-06T16:27:26.224Z</time></trkpt><trkpt lat="45.5332768" lon="12.3391937"><ele>-4.0</ele><time>2026-04-06T16:27:28.238Z</time></trkpt><trkpt lat="45.5332275" lon="12.3393275"><ele>-4.0</ele><time>2026-04-06T16:27:30.231Z</time></trkpt><trkpt lat="45.5331917" lon="12.3394729"><ele>-4.0</ele><time>2026-04-06T16:27:32.252Z</time></trkpt><trkpt lat="45.5331705" lon="12.3396147"><ele>-4.0</ele><time>2026-04-06T16:27:34.246Z</time></trkpt><trkpt lat="45.5331554" lon="12.3397706"><ele>-4.0</ele><time>2026-04-06T16:27:36.238Z</time></trkpt><trkpt lat="45.5331438" lon="12.3399176"><ele>-4.0</ele><time>2026-04-06T16:27:38.224Z</time></trkpt><trkpt lat="45.5331348" lon="12.340053"><ele>-4.0</ele><time>2026-04-06T16:27:40.249Z</time></trkpt><trkpt lat="45.5331258" lon="12.3401871"><ele>-3.8000000000000003</ele><time>2026-04-06T16:27:42.228Z</time></trkpt><trkpt lat="45.5331166" lon="12.3403214"><ele>-3.6000000000000005</ele><time>2026-04-06T16:27:44.249Z</time></trkpt><trkpt lat="45.53311" lon="12.3404638"><ele>-3.4</ele><time>2026-04-06T16:27:46.22Z</time></trkpt><trkpt lat="45.5331019" lon="12.3406125"><ele>-3.2</ele><time>2026-04-06T16:27:48.242Z</time></trkpt><trkpt lat="45.5330967" lon="12.3407603"><ele>-3.0</ele><time>2026-04-06T16:27:50.224Z</time></trkpt><trkpt lat="45.5330921" lon="12.3409029"><ele>-3.0</ele><time>2026-04-06T16:27:52.237Z</time></trkpt><trkpt lat="45.5330814" lon="12.3410633"><ele>-3.0</ele><time>2026-04-06T16:27:54.234Z</time></trkpt><trkpt lat="45.5330689" lon="12.341214"><ele>-3.0</ele><time>2026-04-06T16:27:56.249Z</time></trkpt><trkpt lat="45.5330586" lon="12.3413627"><ele>-3.0</ele><time>2026-04-06T16:27:58.251Z</time></trkpt><trkpt lat="45.5330505" lon="12.3415021"><ele>-3.0</ele><time>2026-04-06T16:28:00.231Z</time></trkpt><trkpt lat="45.5330417" lon="12.3416522"><ele>-2.8</ele><time>2026-04-06T16:28:02.221Z</time></trkpt><trkpt lat="45.5330381" lon="12.3418023"><ele>-2.5999999999999996</ele><time>2026-04-06T16:28:04.241Z</time></trkpt><trkpt lat="45.5330426" lon="12.3419498"><ele>-2.4000000000000004</ele><time>2026-04-06T16:28:06.224Z</time></trkpt><trkpt lat="45.5330463" lon="12.342101"><ele>-2.2</ele><time>2026-04-06T16:28:08.229Z</time></trkpt><trkpt lat="45.5330577" lon="12.3422515"><ele>-2.0</ele><time>2026-04-06T16:28:10.234Z</time></trkpt><trkpt lat="45.5330676" lon="12.3424015"><ele>-1.8</ele><time>2026-04-06T16:28:12.236Z</time></trkpt><trkpt lat="45.5330702" lon="12.3425484"><ele>-1.6</ele><time>2026-04-06T16:28:14.23Z</time></trkpt><trkpt lat="45.5330544" lon="12.3426995"><ele>-1.4000000000000001</ele><time>2026-04-06T16:28:16.234Z</time></trkpt><trkpt lat="45.533018" lon="12.3428279"><ele>-1.2000000000000002</ele><time>2026-04-06T16:28:18.227Z</time></trkpt><trkpt lat="45.5329594" lon="12.3429583"><ele>-1.0</ele><time>2026-04-06T16:28:20.238Z</time></trkpt><trkpt lat="45.532902" lon="12.3430856"><ele>-1.2000000000000002</ele><time>2026-04-06T16:28:22.246Z</time></trkpt><trkpt lat="45.5328794" lon="12.3431728"><ele>-1.4000000000000001</ele><time>2026-04-06T16:28:23.234Z</time></trkpt><trkpt lat="45.5328436" lon="12.3433304"><ele>-1.6</ele><time>2026-04-06T16:28:25.238Z</time></trkpt><trkpt lat="45.5328199" lon="12.3434816"><ele>-1.8</ele><time>2026-04-06T16:28:27.251Z</time></trkpt><trkpt lat="45.5327945" lon="12.3436235"><ele>-2.0</ele><time>2026-04-06T16:28:29.243Z</time></trkpt><trkpt lat="45.5327692" lon="12.3437853"><ele>-2.2</ele><time>2026-04-06T16:28:31.237Z</time></trkpt><trkpt lat="45.532755" lon="12.3439349"><ele>-2.4000000000000004</ele><time>2026-04-06T16:28:33.25Z</time></trkpt><trkpt lat="45.532756" lon="12.3440858"><ele>-2.5999999999999996</ele><time>2026-04-06T16:28:35.226Z</time></trkpt><trkpt lat="45.5327791" lon="12.3442308"><ele>-2.8</ele><time>2026-04-06T16:28:37.232Z</time></trkpt><trkpt lat="45.5328221" lon="12.3443652"><ele>-3.0</ele><time>2026-04-06T16:28:39.229Z</time></trkpt><trkpt lat="45.5328802" lon="12.3445054"><ele>-3.0</ele><time>2026-04-06T16:28:41.232Z</time></trkpt><trkpt lat="45.5329565" lon="12.3446161"><ele>-3.0</ele><time>2026-04-06T16:28:43.236Z</time></trkpt><trkpt lat="45.5330417" lon="12.3447103"><ele>-3.0</ele><time>2026-04-06T16:28:45.24Z</time></trkpt><trkpt lat="45.5331303" lon="12.3448018"><ele>-3.0</ele><time>2026-04-06T16:28:47.224Z</time></trkpt><trkpt lat="45.5332199" lon="12.3448859"><ele>-3.0</ele><time>2026-04-06T16:28:49.237Z</time></trkpt><trkpt lat="45.5333157" lon="12.3449623"><ele>-3.0</ele><time>2026-04-06T16:28:51.242Z</time></trkpt><trkpt lat="45.5334102" lon="12.3450393"><ele>-3.0</ele><time>2026-04-06T16:28:53.226Z</time></trkpt><trkpt lat="45.5335005" lon="12.3451135"><ele>-3.0</ele><time>2026-04-06T16:28:55.216Z</time></trkpt><trkpt lat="45.5335969" lon="12.3452006"><ele>-3.0</ele><time>2026-04-06T16:28:57.223Z</time></trkpt><trkpt lat="45.5336818" lon="12.3452956"><ele>-3.0</ele><time>2026-04-06T16:28:59.224Z</time></trkpt><trkpt lat="45.5337639" lon="12.3454111"><ele>-2.8</ele><time>2026-04-06T16:29:01.228Z</time></trkpt><trkpt lat="45.5338173" lon="12.3455423"><ele>-2.5999999999999996</ele><time>2026-04-06T16:29:03.233Z</time></trkpt><trkpt lat="45.5338572" lon="12.3456891"><ele>-2.4000000000000004</ele><time>2026-04-06T16:29:05.241Z</time></trkpt><trkpt lat="45.5338727" lon="12.3458426"><ele>-2.2</ele><time>2026-04-06T16:29:07.243Z</time></trkpt><trkpt lat="45.5338545" lon="12.3460014"><ele>-2.0</ele><time>2026-04-06T16:29:09.251Z</time></trkpt><trkpt lat="45.5338079" lon="12.3461481"><ele>-2.0</ele><time>2026-04-06T16:29:11.241Z</time></trkpt><trkpt lat="45.5337428" lon="12.3462568"><ele>-2.0</ele><time>2026-04-06T16:29:13.24Z</time></trkpt><trkpt lat="45.5336909" lon="12.3463283"><ele>-2.0</ele><time>2026-04-06T16:29:15.236Z</time></trkpt><trkpt lat="45.5336263" lon="12.3464285"><ele>-2.0</ele><time>2026-04-06T16:29:17.248Z</time></trkpt><trkpt lat="45.5335455" lon="12.34653"><ele>-2.0</ele><time>2026-04-06T16:29:19.234Z</time></trkpt><trkpt lat="45.5334555" lon="12.3466027"><ele>-2.0</ele><time>2026-04-06T16:29:21.226Z</time></trkpt><trkpt lat="45.5333571" lon="12.3466723"><ele>-2.0</ele><time>2026-04-06T16:29:23.229Z</time></trkpt><trkpt lat="45.5332649" lon="12.346739"><ele>-2.0</ele><time>2026-04-06T16:29:25.238Z</time></trkpt><trkpt lat="45.5331794" lon="12.3467936"><ele>-2.0</ele><time>2026-04-06T16:29:27.228Z</time></trkpt><trkpt lat="45.5330933" lon="12.346843"><ele>-2.0</ele><time>2026-04-06T16:29:29.223Z</time></trkpt><trkpt lat="45.5330073" lon="12.3468942"><ele>-2.0</ele><time>2026-04-06T16:29:31.223Z</time></trkpt><trkpt lat="45.5329276" lon="12.3469598"><ele>-2.0</ele><time>2026-04-06T16:29:33.241Z</time></trkpt><trkpt lat="45.5328552" lon="12.3470458"><ele>-2.0</ele><time>2026-04-06T16:29:35.219Z</time></trkpt><trkpt lat="45.5328007" lon="12.3471478"><ele>-2.0</ele><time>2026-04-06T16:29:37.241Z</time></trkpt><trkpt lat="45.5327364" lon="12.347275"><ele>-2.0</ele><time>2026-04-06T16:29:39.224Z</time></trkpt><trkpt lat="45.5326918" lon="12.347382"><ele>-2.1666666666666665</ele><time>2026-04-06T16:29:41.221Z</time></trkpt><trkpt lat="45.5326612" lon="12.3474934"><ele>-2.333333333333333</ele><time>2026-04-06T16:29:43.243Z</time></trkpt><trkpt lat="45.5326344" lon="12.3476001"><ele>-2.5</ele><time>2026-04-06T16:29:45.249Z</time></trkpt><trkpt lat="45.5326252" lon="12.3477231"><ele>-2.6666666666666665</ele><time>2026-04-06T16:29:47.219Z</time></trkpt><trkpt lat="45.5326247" lon="12.3478739"><ele>-2.8333333333333335</ele><time>2026-04-06T16:29:49.233Z</time></trkpt><trkpt lat="45.5326437" lon="12.3479959"><ele>-3.0</ele><time>2026-04-06T16:29:51.242Z</time></trkpt><trkpt lat="45.5326759" lon="12.3481175"><ele>-3.0</ele><time>2026-04-06T16:29:53.233Z</time></trkpt><trkpt lat="45.5327261" lon="12.3482342"><ele>-3.0</ele><time>2026-04-06T16:29:55.236Z</time></trkpt><trkpt lat="45.5327862" lon="12.3483465"><ele>-3.0</ele><time>2026-04-06T16:29:57.249Z</time></trkpt><trkpt lat="45.5328655" lon="12.3484337"><ele>-3.0</ele><time>2026-04-06T16:29:59.23Z</time></trkpt><trkpt lat="45.5329488" lon="12.3485003"><ele>-3.0</ele><time>2026-04-06T16:30:01.255Z</time></trkpt><trkpt lat="45.533035" lon="12.3485505"><ele>-2.8333333333333335</ele><time>2026-04-06T16:30:03.22Z</time></trkpt><trkpt lat="45.5331219" lon="12.3485906"><ele>-2.6666666666666665</ele><time>2026-04-06T16:30:05.229Z</time></trkpt><trkpt lat="45.5331969" lon="12.3486204"><ele>-2.5</ele><time>2026-04-06T16:30:07.23Z</time></trkpt><trkpt lat="45.5332738" lon="12.3486482"><ele>-2.333333333333333</ele><time>2026-04-06T16:30:09.24Z</time></trkpt><trkpt lat="45.5333509" lon="12.3486641"><ele>-2.1666666666666665</ele><time>2026-04-06T16:30:11.227Z</time></trkpt><trkpt lat="45.5334348" lon="12.3486852"><ele>-2.0</ele><time>2026-04-06T16:30:13.247Z</time></trkpt><trkpt lat="45.5335248" lon="12.3487132"><ele>-2.0</ele><time>2026-04-06T16:30:15.222Z</time></trkpt><trkpt lat="45.5336211" lon="12.3487624"><ele>-2.0</ele><time>2026-04-06T16:30:17.239Z</time></trkpt><trkpt lat="45.533702" lon="12.3488495"><ele>-2.0</ele><time>2026-04-06T16:30:19.232Z</time></trkpt><trkpt lat="45.5337595" lon="12.3489728"><ele>-2.0</ele><time>2026-04-06T16:30:21.223Z</time></trkpt><trkpt lat="45.5338067" lon="12.3491006"><ele>-2.0</ele><time>2026-04-06T16:30:23.231Z</time></trkpt><trkpt lat="45.5338326" lon="12.3492413"><ele>-1.9999999999999998</ele><time>2026-04-06T16:30:25.249Z</time></trkpt><trkpt lat="45.5338361" lon="12.3493592"><ele>-2.0</ele><time>2026-04-06T16:30:27.238Z</time></trkpt><trkpt lat="45.5338346" lon="12.3494784"><ele>-2.0</ele><time>2026-04-06T16:30:29.247Z</time></trkpt><trkpt lat="45.5338274" lon="12.349599"><ele>-2.0</ele><time>2026-04-06T16:30:31.223Z</time></trkpt><trkpt lat="45.5338116" lon="12.3497195"><ele>-1.9999999999999998</ele><time>2026-04-06T16:30:33.224Z</time></trkpt><trkpt lat="45.5337898" lon="12.3498251"><ele>-2.0</ele><time>2026-04-06T16:30:35.237Z</time></trkpt><trkpt lat="45.5337634" lon="12.3499296"><ele>-2.1666666666666665</ele><time>2026-04-06T16:30:37.233Z</time></trkpt><trkpt lat="45.5337306" lon="12.3500514"><ele>-2.333333333333333</ele><time>2026-04-06T16:30:39.223Z</time></trkpt><trkpt lat="45.5336948" lon="12.3501659"><ele>-2.5</ele><time>2026-04-06T16:30:41.224Z</time></trkpt><trkpt lat="45.5336506" lon="12.350262"><ele>-2.6666666666666665</ele><time>2026-04-06T16:30:43.227Z</time></trkpt><trkpt lat="45.5335925" lon="12.3503227"><ele>-2.8333333333333335</ele><time>2026-04-06T16:30:45.232Z</time></trkpt><trkpt lat="45.5335313" lon="12.3503448"><ele>-3.0</ele><time>2026-04-06T16:30:47.228Z</time></trkpt><trkpt lat="45.5334667" lon="12.3503834"><ele>-3.1666666666666665</ele><time>2026-04-06T16:30:52.229Z</time></trkpt><trkpt lat="45.5335209" lon="12.3504411"><ele>-3.333333333333333</ele><time>2026-04-06T16:30:55.234Z</time></trkpt><trkpt lat="45.5335865" lon="12.3504714"><ele>-3.5</ele><time>2026-04-06T16:30:57.23Z</time></trkpt><trkpt lat="45.5336529" lon="12.3505197"><ele>-3.6666666666666665</ele><time>2026-04-06T16:30:59.228Z</time></trkpt><trkpt lat="45.5337161" lon="12.3505639"><ele>-3.833333333333333</ele><time>2026-04-06T16:31:01.237Z</time></trkpt><trkpt lat="45.5337925" lon="12.3506133"><ele>-4.0</ele><time>2026-04-06T16:31:03.229Z</time></trkpt><trkpt lat="45.5338909" lon="12.3506659"><ele>-3.4999999999999996</ele><time>2026-04-06T16:31:05.225Z</time></trkpt><trkpt lat="45.5339872" lon="12.3507202"><ele>-3.0</ele><time>2026-04-06T16:31:07.231Z</time></trkpt><trkpt lat="45.5341027" lon="12.3507889"><ele>-2.5</ele><time>2026-04-06T16:31:09.237Z</time></trkpt><trkpt lat="45.5341616" lon="12.3508264"><ele>-2.0</ele><time>2026-04-06T16:31:10.224Z</time></trkpt><trkpt lat="45.5342216" lon="12.3508636"><ele>-1.5</ele><time>2026-04-06T16:31:11.24Z</time></trkpt><trkpt lat="45.5342879" lon="12.3509033"><ele>-1.0</ele><time>2026-04-06T16:31:12.226Z</time></trkpt><trkpt lat="45.5343577" lon="12.3509461"><ele>-0.9999999999999999</ele><time>2026-04-06T16:31:13.23Z</time></trkpt><trkpt lat="45.5344268" lon="12.3509892"><ele>-1.0</ele><time>2026-04-06T16:31:14.222Z</time></trkpt><trkpt lat="45.5344976" lon="12.3510308"><ele>-1.0</ele><time>2026-04-06T16:31:15.239Z</time></trkpt><trkpt lat="45.5345698" lon="12.3510742"><ele>-1.0</ele><time>2026-04-06T16:31:16.238Z</time></trkpt><trkpt lat="45.5346412" lon="12.3511183"><ele>-0.9999999999999999</ele><time>2026-04-06T16:31:17.232Z</time></trkpt><trkpt lat="45.5347131" lon="12.3511628"><ele>-1.0</ele><time>2026-04-06T16:31:18.245Z</time></trkpt><trkpt lat="45.5347854" lon="12.3512056"><ele>-1.2857142857142856</ele><time>2026-04-06T16:31:19.227Z</time></trkpt><trkpt lat="45.5348569" lon="12.3512475"><ele>-1.5714285714285712</ele><time>2026-04-06T16:31:20.236Z</time></trkpt><trkpt lat="45.5349271" lon="12.3512899"><ele>-1.857142857142857</ele><time>2026-04-06T16:31:21.232Z</time></trkpt><trkpt lat="45.5349928" lon="12.3513347"><ele>-2.142857142857143</ele><time>2026-04-06T16:31:22.236Z</time></trkpt><trkpt lat="45.5350598" lon="12.3513722"><ele>-2.4285714285714284</ele><time>2026-04-06T16:31:23.246Z</time></trkpt><trkpt lat="45.5351239" lon="12.3514112"><ele>-2.714285714285714</ele><time>2026-04-06T16:31:24.248Z</time></trkpt><trkpt lat="45.5351891" lon="12.3514458"><ele>-3.0</ele><time>2026-04-06T16:31:25.222Z</time></trkpt><trkpt lat="45.5352517" lon="12.3514879"><ele>-2.9999999999999996</ele><time>2026-04-06T16:31:26.236Z</time></trkpt><trkpt lat="45.5353149" lon="12.3515281"><ele>-3.0</ele><time>2026-04-06T16:31:27.225Z</time></trkpt><trkpt lat="45.5353779" lon="12.351567"><ele>-3.0</ele><time>2026-04-06T16:31:28.232Z</time></trkpt><trkpt lat="45.5354423" lon="12.3516016"><ele>-3.0</ele><time>2026-04-06T16:31:29.238Z</time></trkpt><trkpt lat="45.5355063" lon="12.3516372"><ele>-3.0</ele><time>2026-04-06T16:31:30.239Z</time></trkpt><trkpt lat="45.5355682" lon="12.3516798"><ele>-2.9999999999999996</ele><time>2026-04-06T16:31:31.239Z</time></trkpt><trkpt lat="45.5356322" lon="12.3517152"><ele>-3.0</ele><time>2026-04-06T16:31:32.238Z</time></trkpt><trkpt lat="45.5356941" lon="12.3517533"><ele>-2.8571428571428568</ele><time>2026-04-06T16:31:33.236Z</time></trkpt><trkpt lat="45.5357565" lon="12.351791"><ele>-2.7142857142857144</ele><time>2026-04-06T16:31:34.246Z</time></trkpt><trkpt lat="45.5358193" lon="12.3518271"><ele>-2.571428571428571</ele><time>2026-04-06T16:31:35.249Z</time></trkpt><trkpt lat="45.5358829" lon="12.351862"><ele>-2.4285714285714284</ele><time>2026-04-06T16:31:36.253Z</time></trkpt><trkpt lat="45.5359452" lon="12.3519007"><ele>-2.2857142857142856</ele><time>2026-04-06T16:31:37.227Z</time></trkpt><trkpt lat="45.5360067" lon="12.3519428"><ele>-2.142857142857143</ele><time>2026-04-06T16:31:38.242Z</time></trkpt><trkpt lat="45.5360693" lon="12.3519823"><ele>-2.0</ele><time>2026-04-06T16:31:39.237Z</time></trkpt><trkpt lat="45.5361298" lon="12.3520232"><ele>-2.0</ele><time>2026-04-06T16:31:40.238Z</time></trkpt><trkpt lat="45.536191" lon="12.3520575"><ele>-1.9999999999999998</ele><time>2026-04-06T16:31:41.225Z</time></trkpt><trkpt lat="45.5362506" lon="12.3520953"><ele>-2.0</ele><time>2026-04-06T16:31:42.229Z</time></trkpt><trkpt lat="45.5363097" lon="12.3521332"><ele>-2.0</ele><time>2026-04-06T16:31:43.237Z</time></trkpt><trkpt lat="45.5363684" lon="12.3521689"><ele>-1.9999999999999998</ele><time>2026-04-06T16:31:44.214Z</time></trkpt><trkpt lat="45.5364274" lon="12.3522024"><ele>-2.0</ele><time>2026-04-06T16:31:45.219Z</time></trkpt><trkpt lat="45.5364856" lon="12.3522403"><ele>-2.0</ele><time>2026-04-06T16:31:46.228Z</time></trkpt><trkpt lat="45.5365437" lon="12.3522794"><ele>-2.2</ele><time>2026-04-06T16:31:47.229Z</time></trkpt><trkpt lat="45.5366006" lon="12.3523207"><ele>-2.4000000000000004</ele><time>2026-04-06T16:31:48.238Z</time></trkpt><trkpt lat="45.5367116" lon="12.3523982"><ele>-2.5999999999999996</ele><time>2026-04-06T16:31:50.231Z</time></trkpt><trkpt lat="45.5368203" lon="12.3524714"><ele>-2.8</ele><time>2026-04-06T16:31:52.238Z</time></trkpt><trkpt lat="45.536931" lon="12.3525326"><ele>-3.0</ele><time>2026-04-06T16:31:54.24Z</time></trkpt><trkpt lat="45.5370492" lon="12.3525556"><ele>-3.0</ele><time>2026-04-06T16:31:56.261Z</time></trkpt><trkpt lat="45.5371679" lon="12.3525456"><ele>-3.0</ele><time>2026-04-06T16:31:58.229Z</time></trkpt><trkpt lat="45.5372841" lon="12.3525678"><ele>-3.0</ele><time>2026-04-06T16:32:00.256Z</time></trkpt><trkpt lat="45.5374045" lon="12.3526292"><ele>-3.0</ele><time>2026-04-06T16:32:02.227Z</time></trkpt><trkpt lat="45.5374658" lon="12.3526634"><ele>-3.0</ele><time>2026-04-06T16:32:03.239Z</time></trkpt><trkpt lat="45.5375264" lon="12.3527003"><ele>-2.9999999999999996</ele><time>2026-04-06T16:32:04.235Z</time></trkpt><trkpt lat="45.5375863" lon="12.3527393"><ele>-3.0</ele><time>2026-04-06T16:32:05.251Z</time></trkpt><trkpt lat="45.5376443" lon="12.3527826"><ele>-3.0</ele><time>2026-04-06T16:32:06.24Z</time></trkpt><trkpt lat="45.5377035" lon="12.3528239"><ele>-3.0</ele><time>2026-04-06T16:32:07.251Z</time></trkpt><trkpt lat="45.537762" lon="12.3528663"><ele>-3.0</ele><time>2026-04-06T16:32:08.239Z</time></trkpt><trkpt lat="45.5378201" lon="12.3529077"><ele>-2.9999999999999996</ele><time>2026-04-06T16:32:09.249Z</time></trkpt><trkpt lat="45.5378791" lon="12.3529465"><ele>-3.0</ele><time>2026-04-06T16:32:10.234Z</time></trkpt><trkpt lat="45.5379381" lon="12.352981"><ele>-3.0</ele><time>2026-04-06T16:32:11.249Z</time></trkpt><trkpt lat="45.538052" lon="12.3530504"><ele>-3.0</ele><time>2026-04-06T16:32:13.232Z</time></trkpt><trkpt lat="45.5381704" lon="12.3530582"><ele>-3.0</ele><time>2026-04-06T16:32:15.231Z</time></trkpt><trkpt lat="45.5382708" lon="12.3529645"><ele>-3.0</ele><time>2026-04-06T16:32:17.233Z</time></trkpt><trkpt lat="45.5383456" lon="12.3528243"><ele>-3.0</ele><time>2026-04-06T16:32:19.237Z</time></trkpt><trkpt lat="45.5384161" lon="12.3526758"><ele>-3.0</ele><time>2026-04-06T16:32:21.242Z</time></trkpt><trkpt lat="45.5384431" lon="12.3525925"><ele>-3.0</ele><time>2026-04-06T16:32:22.239Z</time></trkpt><trkpt lat="45.5384696" lon="12.3525091"><ele>-3.0</ele><time>2026-04-06T16:32:23.239Z</time></trkpt><trkpt lat="45.5384965" lon="12.3524255"><ele>-3.0</ele><time>2026-04-06T16:32:24.222Z</time></trkpt><trkpt lat="45.538525" lon="12.3523402"><ele>-3.0</ele><time>2026-04-06T16:32:25.23Z</time></trkpt><trkpt lat="45.538554" lon="12.3522541"><ele>-2.9999999999999996</ele><time>2026-04-06T16:32:26.253Z</time></trkpt><trkpt lat="45.5385815" lon="12.3521687"><ele>-3.0</ele><time>2026-04-06T16:32:27.214Z</time></trkpt><trkpt lat="45.5386112" lon="12.3520851"><ele>-3.0</ele><time>2026-04-06T16:32:28.239Z</time></trkpt><trkpt lat="45.5386388" lon="12.3520024"><ele>-3.0</ele><time>2026-04-06T16:32:29.243Z</time></trkpt><trkpt lat="45.5386652" lon="12.351919"><ele>-3.0</ele><time>2026-04-06T16:32:30.238Z</time></trkpt><trkpt lat="45.5386919" lon="12.3518372"><ele>-2.9999999999999996</ele><time>2026-04-06T16:32:31.248Z</time></trkpt><trkpt lat="45.5387461" lon="12.3516749"><ele>-3.0</ele><time>2026-04-06T16:32:33.231Z</time></trkpt><trkpt lat="45.5388013" lon="12.3515166"><ele>-3.0</ele><time>2026-04-06T16:32:35.245Z</time></trkpt><trkpt lat="45.5388435" lon="12.3513622"><ele>-3.0</ele><time>2026-04-06T16:32:37.236Z</time></trkpt><trkpt lat="45.5388889" lon="12.3512189"><ele>-3.0</ele><time>2026-04-06T16:32:39.236Z</time></trkpt><trkpt lat="45.5389424" lon="12.3510727"><ele>-3.0</ele><time>2026-04-06T16:32:41.224Z</time></trkpt><trkpt lat="45.5389986" lon="12.3509205"><ele>-3.0</ele><time>2026-04-06T16:32:43.237Z</time></trkpt><trkpt lat="45.5390506" lon="12.3507632"><ele>-3.0</ele><time>2026-04-06T16:32:45.246Z</time></trkpt><trkpt lat="45.5391089" lon="12.3506136"><ele>-3.0</ele><time>2026-04-06T16:32:47.237Z</time></trkpt><trkpt lat="45.5391875" lon="12.3504871"><ele>-3.0</ele><time>2026-04-06T16:32:49.238Z</time></trkpt><trkpt lat="45.5393012" lon="12.3504187"><ele>-2.8333333333333335</ele><time>2026-04-06T16:32:51.233Z</time></trkpt><trkpt lat="45.5393639" lon="12.3504055"><ele>-2.6666666666666665</ele><time>2026-04-06T16:32:52.243Z</time></trkpt><trkpt lat="45.5394275" lon="12.3504148"><ele>-2.5</ele><time>2026-04-06T16:32:53.236Z</time></trkpt><trkpt lat="45.5394887" lon="12.3504374"><ele>-2.333333333333333</ele><time>2026-04-06T16:32:54.246Z</time></trkpt><trkpt lat="45.5396048" lon="12.3505046"><ele>-2.1666666666666665</ele><time>2026-04-06T16:32:56.238Z</time></trkpt><trkpt lat="45.5397179" lon="12.3505705"><ele>-2.0</ele><time>2026-04-06T16:32:58.229Z</time></trkpt><trkpt lat="45.5398317" lon="12.3506366"><ele>-2.0</ele><time>2026-04-06T16:33:00.224Z</time></trkpt><trkpt lat="45.5399469" lon="12.3507019"><ele>-1.9999999999999998</ele><time>2026-04-06T16:33:02.234Z</time></trkpt><trkpt lat="45.5400057" lon="12.3507344"><ele>-2.0</ele><time>2026-04-06T16:33:03.234Z</time></trkpt><trkpt lat="45.5400643" lon="12.3507697"><ele>-2.0</ele><time>2026-04-06T16:33:04.223Z</time></trkpt><trkpt lat="45.5401226" lon="12.3508042"><ele>-1.9999999999999998</ele><time>2026-04-06T16:33:05.244Z</time></trkpt><trkpt lat="45.5401824" lon="12.3508341"><ele>-2.0</ele><time>2026-04-06T16:33:06.246Z</time></trkpt><trkpt lat="45.5402418" lon="12.3508642"><ele>-2.0</ele><time>2026-04-06T16:33:07.221Z</time></trkpt><trkpt lat="45.5403029" lon="12.3508895"><ele>-1.9999999999999998</ele><time>2026-04-06T16:33:08.234Z</time></trkpt><trkpt lat="45.5403661" lon="12.3509036"><ele>-2.0</ele><time>2026-04-06T16:33:09.229Z</time></trkpt><trkpt lat="45.5404301" lon="12.3509062"><ele>-2.0</ele><time>2026-04-06T16:33:10.231Z</time></trkpt><trkpt lat="45.5404934" lon="12.3509033"><ele>-2.0</ele><time>2026-04-06T16:33:11.232Z</time></trkpt><trkpt lat="45.5406153" lon="12.350857"><ele>-1.9999999999999998</ele><time>2026-04-06T16:33:13.225Z</time></trkpt><trkpt lat="45.5407205" lon="12.3507691"><ele>-2.0</ele><time>2026-04-06T16:33:15.233Z</time></trkpt><trkpt lat="45.5408044" lon="12.3506413"><ele>-1.6</ele><time>2026-04-06T16:33:17.215Z</time></trkpt><trkpt lat="45.5408863" lon="12.3505118"><ele>-1.2000000000000002</ele><time>2026-04-06T16:33:19.237Z</time></trkpt><trkpt lat="45.5409274" lon="12.3504431"><ele>-0.8</ele><time>2026-04-06T16:33:20.224Z</time></trkpt><trkpt lat="45.5410062" lon="12.3503055"><ele>-0.4</ele><time>2026-04-06T16:33:22.246Z</time></trkpt><trkpt lat="45.5410886" lon="12.3501732"><ele>0.0</ele><time>2026-04-06T16:33:24.221Z</time></trkpt><trkpt lat="45.5411324" lon="12.3501072"><ele>0.0</ele><time>2026-04-06T16:33:25.221Z</time></trkpt><trkpt lat="45.5411734" lon="12.3500361"><ele>0.0</ele><time>2026-04-06T16:33:26.233Z</time></trkpt><trkpt lat="45.5412144" lon="12.3499654"><ele>0.0</ele><time>2026-04-06T16:33:27.229Z</time></trkpt><trkpt lat="45.5412553" lon="12.349896"><ele>0.0</ele><time>2026-04-06T16:33:28.231Z</time></trkpt><trkpt lat="45.5412954" lon="12.3498266"><ele>0.0</ele><time>2026-04-06T16:33:29.222Z</time></trkpt><trkpt lat="45.5413744" lon="12.3496862"><ele>0.0</ele><time>2026-04-06T16:33:31.217Z</time></trkpt><trkpt lat="45.5414149" lon="12.3496161"><ele>0.0</ele><time>2026-04-06T16:33:32.235Z</time></trkpt><trkpt lat="45.5414561" lon="12.3495458"><ele>0.14285714285714285</ele><time>2026-04-06T16:33:33.228Z</time></trkpt><trkpt lat="45.5414977" lon="12.3494738"><ele>0.2857142857142857</ele><time>2026-04-06T16:33:34.237Z</time></trkpt><trkpt lat="45.5415352" lon="12.3493967"><ele>0.42857142857142855</ele><time>2026-04-06T16:33:35.233Z</time></trkpt><trkpt lat="45.5415689" lon="12.3493161"><ele>0.5714285714285714</ele><time>2026-04-06T16:33:36.222Z</time></trkpt><trkpt lat="45.5415981" lon="12.3492321"><ele>0.7142857142857142</ele><time>2026-04-06T16:33:37.234Z</time></trkpt><trkpt lat="45.5416247" lon="12.3491462"><ele>0.8571428571428571</ele><time>2026-04-06T16:33:38.22Z</time></trkpt><trkpt lat="45.5416464" lon="12.3490578"><ele>1.0</ele><time>2026-04-06T16:33:39.235Z</time></trkpt><trkpt lat="45.5416666" lon="12.34897"><ele>1.0</ele><time>2026-04-06T16:33:40.23Z</time></trkpt><trkpt lat="45.5416842" lon="12.3488814"><ele>0.9999999999999999</ele><time>2026-04-06T16:33:41.236Z</time></trkpt><trkpt lat="45.5416985" lon="12.3487915"><ele>1.0</ele><time>2026-04-06T16:33:42.228Z</time></trkpt><trkpt lat="45.5417142" lon="12.3487022"><ele>1.0</ele><time>2026-04-06T16:33:43.227Z</time></trkpt><trkpt lat="45.5417288" lon="12.3486123"><ele>0.9999999999999999</ele><time>2026-04-06T16:33:44.235Z</time></trkpt><trkpt lat="45.5417423" lon="12.3485219"><ele>1.0</ele><time>2026-04-06T16:33:45.223Z</time></trkpt><trkpt lat="45.5417569" lon="12.3484308"><ele>1.0</ele><time>2026-04-06T16:33:46.23Z</time></trkpt><trkpt lat="45.5417713" lon="12.3483392"><ele>0.8571428571428571</ele><time>2026-04-06T16:33:47.238Z</time></trkpt><trkpt lat="45.5417874" lon="12.348248"><ele>0.7142857142857142</ele><time>2026-04-06T16:33:48.234Z</time></trkpt><trkpt lat="45.5417998" lon="12.348155"><ele>0.5714285714285714</ele><time>2026-04-06T16:33:49.242Z</time></trkpt><trkpt lat="45.5418124" lon="12.3480618"><ele>0.42857142857142855</ele><time>2026-04-06T16:33:50.25Z</time></trkpt><trkpt lat="45.5418276" lon="12.3479696"><ele>0.2857142857142857</ele><time>2026-04-06T16:33:51.231Z</time></trkpt><trkpt lat="45.5418417" lon="12.3478782"><ele>0.14285714285714285</ele><time>2026-04-06T16:33:52.238Z</time></trkpt><trkpt lat="45.5418555" lon="12.3477879"><ele>0.0</ele><time>2026-04-06T16:33:53.233Z</time></trkpt><trkpt lat="45.5418725" lon="12.3476988"><ele>0.0</ele><time>2026-04-06T16:33:54.23Z</time></trkpt><trkpt lat="45.5418872" lon="12.3476092"><ele>0.0</ele><time>2026-04-06T16:33:55.229Z</time></trkpt><trkpt lat="45.5419041" lon="12.3475205"><ele>0.0</ele><time>2026-04-06T16:33:56.22Z</time></trkpt><trkpt lat="45.5419384" lon="12.3473513"><ele>0.0</ele><time>2026-04-06T16:33:58.233Z</time></trkpt><trkpt lat="45.5419685" lon="12.3471934"><ele>0.0</ele><time>2026-04-06T16:34:00.238Z</time></trkpt><trkpt lat="45.5420018" lon="12.3470492"><ele>0.0</ele><time>2026-04-06T16:34:02.223Z</time></trkpt><trkpt lat="45.5420367" lon="12.346901"><ele>0.0</ele><time>2026-04-06T16:34:04.243Z</time></trkpt><trkpt lat="45.5420658" lon="12.3467482"><ele>0.0</ele><time>2026-04-06T16:34:06.241Z</time></trkpt><trkpt lat="45.5421044" lon="12.3465918"><ele>0.0</ele><time>2026-04-06T16:34:08.23Z</time></trkpt><trkpt lat="45.5421324" lon="12.3464213"><ele>-0.25</ele><time>2026-04-06T16:34:10.23Z</time></trkpt><trkpt lat="45.5421705" lon="12.3462552"><ele>-0.5</ele><time>2026-04-06T16:34:12.24Z</time></trkpt><trkpt lat="45.5422094" lon="12.3460885"><ele>-0.75</ele><time>2026-04-06T16:34:14.243Z</time></trkpt><trkpt lat="45.5422464" lon="12.3459195"><ele>-1.0</ele><time>2026-04-06T16:34:16.24Z</time></trkpt><trkpt lat="45.5422802" lon="12.3457502"><ele>-1.0</ele><time>2026-04-06T16:34:18.219Z</time></trkpt><trkpt lat="45.5423197" lon="12.3455853"><ele>-1.0</ele><time>2026-04-06T16:34:20.23Z</time></trkpt><trkpt lat="45.5423656" lon="12.3454264"><ele>-1.0</ele><time>2026-04-06T16:34:22.223Z</time></trkpt><trkpt lat="45.5424283" lon="12.3452776"><ele>-1.0</ele><time>2026-04-06T16:34:24.223Z</time></trkpt><trkpt lat="45.5424978" lon="12.345132"><ele>-0.8</ele><time>2026-04-06T16:34:26.248Z</time></trkpt><trkpt lat="45.542569" lon="12.3449944"><ele>-0.6000000000000001</ele><time>2026-04-06T16:34:28.233Z</time></trkpt><trkpt lat="45.5426358" lon="12.3448623"><ele>-0.4</ele><time>2026-04-06T16:34:30.235Z</time></trkpt><trkpt lat="45.5426982" lon="12.3447333"><ele>-0.2</ele><time>2026-04-06T16:34:32.225Z</time></trkpt><trkpt lat="45.5427619" lon="12.3446149"><ele>0.0</ele><time>2026-04-06T16:34:34.226Z</time></trkpt><trkpt lat="45.5428295" lon="12.3444963"><ele>-0.5</ele><time>2026-04-06T16:34:36.235Z</time></trkpt><trkpt lat="45.5428998" lon="12.3443703"><ele>-1.0</ele><time>2026-04-06T16:34:38.226Z</time></trkpt><trkpt lat="45.5429711" lon="12.3442379"><ele>-1.5</ele><time>2026-04-06T16:34:40.234Z</time></trkpt><trkpt lat="45.5430469" lon="12.3441069"><ele>-2.0</ele><time>2026-04-06T16:34:42.225Z</time></trkpt><trkpt lat="45.5431294" lon="12.3439831"><ele>-1.75</ele><time>2026-04-06T16:34:44.222Z</time></trkpt><trkpt lat="45.5432188" lon="12.3438666"><ele>-1.5</ele><time>2026-04-06T16:34:46.248Z</time></trkpt><trkpt lat="45.5433156" lon="12.3437664"><ele>-1.25</ele><time>2026-04-06T16:34:48.234Z</time></trkpt><trkpt lat="45.543412" lon="12.3436716"><ele>-1.0</ele><time>2026-04-06T16:34:50.229Z</time></trkpt><trkpt lat="45.5435088" lon="12.3435831"><ele>-1.0</ele><time>2026-04-06T16:34:52.221Z</time></trkpt><trkpt lat="45.5436046" lon="12.3434932"><ele>-1.0</ele><time>2026-04-06T16:34:54.22Z</time></trkpt><trkpt lat="45.5436951" lon="12.3434032"><ele>-1.0</ele><time>2026-04-06T16:34:56.231Z</time></trkpt><trkpt lat="45.5437804" lon="12.3433216"><ele>-1.0</ele><time>2026-04-06T16:34:58.221Z</time></trkpt><trkpt lat="45.5438622" lon="12.3432455"><ele>-1.0</ele><time>2026-04-06T16:35:00.221Z</time></trkpt><trkpt lat="45.5439397" lon="12.3431716"><ele>-1.0</ele><time>2026-04-06T16:35:02.227Z</time></trkpt><trkpt lat="45.5440136" lon="12.3430999"><ele>-1.0</ele><time>2026-04-06T16:35:04.235Z</time></trkpt><trkpt lat="45.5440896" lon="12.3430269"><ele>-1.0</ele><time>2026-04-06T16:35:06.226Z</time></trkpt><trkpt lat="45.5441748" lon="12.3429497"><ele>-1.0</ele><time>2026-04-06T16:35:08.221Z</time></trkpt><trkpt lat="45.5442643" lon="12.3428652"><ele>-1.0</ele><time>2026-04-06T16:35:10.223Z</time></trkpt><trkpt lat="45.5443536" lon="12.3427751"><ele>-0.8</ele><time>2026-04-06T16:35:12.237Z</time></trkpt><trkpt lat="45.5444443" lon="12.3426883"><ele>-0.6000000000000001</ele><time>2026-04-06T16:35:14.219Z</time></trkpt><trkpt lat="45.5445336" lon="12.3425984"><ele>-0.4</ele><time>2026-04-06T16:35:16.228Z</time></trkpt><trkpt lat="45.544625" lon="12.3425091"><ele>-0.2</ele><time>2026-04-06T16:35:18.241Z</time></trkpt><trkpt lat="45.544718" lon="12.3424232"><ele>0.0</ele><time>2026-04-06T16:35:20.237Z</time></trkpt><trkpt lat="45.5448098" lon="12.3423345"><ele>0.0</ele><time>2026-04-06T16:35:22.233Z</time></trkpt><trkpt lat="45.5449163" lon="12.3422464"><ele>0.0</ele><time>2026-04-06T16:35:24.24Z</time></trkpt><trkpt lat="45.5450131" lon="12.3421725"><ele>0.0</ele><time>2026-04-06T16:35:26.245Z</time></trkpt><trkpt lat="45.5451188" lon="12.3421275"><ele>0.0</ele><time>2026-04-06T16:35:28.248Z</time></trkpt><trkpt lat="45.5452267" lon="12.3421041"><ele>0.0</ele><time>2026-04-06T16:35:30.23Z</time></trkpt><trkpt lat="45.5453409" lon="12.3420929"><ele>0.0</ele><time>2026-04-06T16:35:32.222Z</time></trkpt><trkpt lat="45.5454517" lon="12.3420953"><ele>0.0</ele><time>2026-04-06T16:35:34.223Z</time></trkpt><trkpt lat="45.5455586" lon="12.3420935"><ele>0.0</ele><time>2026-04-06T16:35:36.237Z</time></trkpt><trkpt lat="45.5456622" lon="12.3420889"><ele>0.0</ele><time>2026-04-06T16:35:38.237Z</time></trkpt><trkpt lat="45.5457792" lon="12.3420787"><ele>0.25</ele><time>2026-04-06T16:35:40.242Z</time></trkpt><trkpt lat="45.5459004" lon="12.3420698"><ele>0.5</ele><time>2026-04-06T16:35:42.249Z</time></trkpt><trkpt lat="45.5460109" lon="12.3420618"><ele>0.75</ele><time>2026-04-06T16:35:44.23Z</time></trkpt><trkpt lat="45.5461254" lon="12.3420571"><ele>1.0</ele><time>2026-04-06T16:35:46.224Z</time></trkpt><trkpt lat="45.5462412" lon="12.342065"><ele>1.25</ele><time>2026-04-06T16:35:48.241Z</time></trkpt><trkpt lat="45.5463596" lon="12.3420974"><ele>1.5</ele><time>2026-04-06T16:35:50.251Z</time></trkpt><trkpt lat="45.5464763" lon="12.3421441"><ele>1.75</ele><time>2026-04-06T16:35:52.227Z</time></trkpt><trkpt lat="45.5465839" lon="12.3421937"><ele>2.0</ele><time>2026-04-06T16:35:54.232Z</time></trkpt><trkpt lat="45.5466922" lon="12.3422367"><ele>2.0</ele><time>2026-04-06T16:35:56.245Z</time></trkpt><trkpt lat="45.5467961" lon="12.3422827"><ele>2.0</ele><time>2026-04-06T16:35:58.239Z</time></trkpt><trkpt lat="45.5469052" lon="12.3423316"><ele>2.0</ele><time>2026-04-06T16:36:00.23Z</time></trkpt><trkpt lat="45.5470097" lon="12.3423788"><ele>2.0</ele><time>2026-04-06T16:36:02.232Z</time></trkpt><trkpt lat="45.5471174" lon="12.3424233"><ele>2.0</ele><time>2026-04-06T16:36:04.225Z</time></trkpt><trkpt lat="45.5472213" lon="12.3424613"><ele>2.0</ele><time>2026-04-06T16:36:06.235Z</time></trkpt><trkpt lat="45.5473154" lon="12.3424981"><ele>2.0</ele><time>2026-04-06T16:36:08.238Z</time></trkpt><trkpt lat="45.5474067" lon="12.3425297"><ele>2.0</ele><time>2026-04-06T16:36:10.225Z</time></trkpt><trkpt lat="45.5474905" lon="12.3425686"><ele>2.0</ele><time>2026-04-06T16:36:12.241Z</time></trkpt><trkpt lat="45.5475781" lon="12.3426055"><ele>2.0</ele><time>2026-04-06T16:36:14.238Z</time></trkpt><trkpt lat="45.5476647" lon="12.3426394"><ele>1.9999999999999998</ele><time>2026-04-06T16:36:16.254Z</time></trkpt><trkpt lat="45.5477573" lon="12.3426733"><ele>2.0</ele><time>2026-04-06T16:36:18.242Z</time></trkpt><trkpt lat="45.5478521" lon="12.3427051"><ele>2.0</ele><time>2026-04-06T16:36:20.227Z</time></trkpt><trkpt lat="45.5479362" lon="12.3427393"><ele>2.0</ele><time>2026-04-06T16:36:22.264Z</time></trkpt><trkpt lat="45.5480192" lon="12.3427777"><ele>1.9999999999999998</ele><time>2026-04-06T16:36:24.237Z</time></trkpt><trkpt lat="45.5480826" lon="12.3428054"><ele>2.0</ele><time>2026-04-06T16:36:26.233Z</time></trkpt><trkpt lat="45.54819" lon="12.3428697"><ele>1.9999999999999998</ele><time>2026-04-06T16:36:28.23Z</time></trkpt><trkpt lat="45.5482746" lon="12.3429352"><ele>2.0</ele><time>2026-04-06T16:36:31.237Z</time></trkpt><trkpt lat="45.5483241" lon="12.3430039"><ele>2.0</ele><time>2026-04-06T16:36:33.228Z</time></trkpt><trkpt lat="45.5483753" lon="12.3430978"><ele>2.0</ele><time>2026-04-06T16:36:36.237Z</time></trkpt><trkpt lat="45.5484021" lon="12.3431889"><ele>1.9999999999999998</ele><time>2026-04-06T16:36:38.218Z</time></trkpt><trkpt lat="45.5484078" lon="12.3433384"><ele>2.0</ele><time>2026-04-06T16:36:41.233Z</time></trkpt><trkpt lat="45.5484151" lon="12.3434607"><ele>2.0</ele><time>2026-04-06T16:36:43.22Z</time></trkpt><trkpt lat="45.5484307" lon="12.343559"><ele>1.9999999999999998</ele><time>2026-04-06T16:36:45.232Z</time></trkpt><trkpt lat="45.5484462" lon="12.343659"><ele>2.0</ele><time>2026-04-06T16:36:47.237Z</time></trkpt><trkpt lat="45.5484669" lon="12.3437587"><ele>2.0</ele><time>2026-04-06T16:36:49.23Z</time></trkpt><trkpt lat="45.5484933" lon="12.3438804"><ele>1.9999999999999998</ele><time>2026-04-06T16:36:51.226Z</time></trkpt><trkpt lat="45.5485189" lon="12.3439704"><ele>2.0</ele><time>2026-04-06T16:36:53.224Z</time></trkpt><trkpt lat="45.5485469" lon="12.344067"><ele>2.0</ele><time>2026-04-06T16:36:55.219Z</time></trkpt><trkpt lat="45.5485997" lon="12.3441789"><ele>1.9999999999999998</ele><time>2026-04-06T16:36:58.236Z</time></trkpt><trkpt lat="45.548651" lon="12.3442595"><ele>2.0</ele><time>2026-04-06T16:37:00.232Z</time></trkpt><trkpt lat="45.5487008" lon="12.3443525"><ele>2.0</ele><time>2026-04-06T16:37:02.242Z</time></trkpt><trkpt lat="45.5487456" lon="12.3444268"><ele>2.0</ele><time>2026-04-06T16:37:04.235Z</time></trkpt><trkpt lat="45.5487986" lon="12.3445014"><ele>1.9999999999999998</ele><time>2026-04-06T16:37:06.235Z</time></trkpt><trkpt lat="45.5488497" lon="12.3445684"><ele>2.0</ele><time>2026-04-06T16:37:08.233Z</time></trkpt><trkpt lat="45.5489161" lon="12.3446477"><ele>1.9999999999999998</ele><time>2026-04-06T16:37:11.233Z</time></trkpt><trkpt lat="45.5489859" lon="12.3447032"><ele>2.0</ele><time>2026-04-06T16:37:14.234Z</time></trkpt><trkpt lat="45.5490624" lon="12.3447587"><ele>2.0</ele><time>2026-04-06T16:37:16.257Z</time></trkpt><trkpt lat="45.5491305" lon="12.3448002"><ele>2.0</ele><time>2026-04-06T16:37:18.231Z</time></trkpt><trkpt lat="45.5491958" lon="12.344836"><ele>1.9999999999999998</ele><time>2026-04-06T16:37:21.237Z</time></trkpt><trkpt lat="45.5492714" lon="12.3448793"><ele>2.0</ele><time>2026-04-06T16:37:25.226Z</time></trkpt><trkpt lat="45.5493317" lon="12.3449147"><ele>2.0</ele><time>2026-04-06T16:37:27.225Z</time></trkpt><trkpt lat="45.5494085" lon="12.3449489"><ele>1.9999999999999998</ele><time>2026-04-06T16:37:29.234Z</time></trkpt><trkpt lat="45.5494827" lon="12.344979"><ele>2.0</ele><time>2026-04-06T16:37:31.22Z</time></trkpt><trkpt lat="45.5495478" lon="12.3450116"><ele>2.0</ele><time>2026-04-06T16:37:33.238Z</time></trkpt><trkpt lat="45.5496317" lon="12.3450521"><ele>1.9999999999999998</ele><time>2026-04-06T16:37:36.246Z</time></trkpt><trkpt lat="45.5496893" lon="12.3450927"><ele>2.0</ele><time>2026-04-06T16:37:39.235Z</time></trkpt><trkpt lat="45.5497498" lon="12.3451304"><ele>2.0</ele><time>2026-04-06T16:37:43.222Z</time></trkpt><trkpt lat="45.5498399" lon="12.3451463"><ele>1.9999999999999998</ele><time>2026-04-06T16:37:48.247Z</time></trkpt><trkpt lat="45.5499096" lon="12.3452151"><ele>2.0</ele><time>2026-04-06T16:37:51.249Z</time></trkpt><trkpt lat="45.5499697" lon="12.3452499"><ele>2.0</ele><time>2026-04-06T16:37:53.246Z</time></trkpt><trkpt lat="45.5500338" lon="12.3452762"><ele>2.0</ele><time>2026-04-06T16:37:55.233Z</time></trkpt><trkpt lat="45.5501039" lon="12.3453068"><ele>1.9999999999999998</ele><time>2026-04-06T16:37:57.235Z</time></trkpt><trkpt lat="45.5502037" lon="12.3453512"><ele>2.0</ele><time>2026-04-06T16:37:59.228Z</time></trkpt><trkpt lat="45.5502717" lon="12.3453829"><ele>2.0</ele><time>2026-04-06T16:38:01.238Z</time></trkpt><trkpt lat="45.550363" lon="12.3454324"><ele>2.0</ele><time>2026-04-06T16:38:03.237Z</time></trkpt><trkpt lat="45.5504504" lon="12.3454835"><ele>2.0</ele><time>2026-04-06T16:38:05.225Z</time></trkpt><trkpt lat="45.5505356" lon="12.345529"><ele>2.0</ele><time>2026-04-06T16:38:07.222Z</time></trkpt><trkpt lat="45.5506196" lon="12.3455723"><ele>2.0</ele><time>2026-04-06T16:38:09.223Z</time></trkpt><trkpt lat="45.5507047" lon="12.3456207"><ele>2.1666666666666665</ele><time>2026-04-06T16:38:11.229Z</time></trkpt><trkpt lat="45.5507999" lon="12.3456661"><ele>2.333333333333333</ele><time>2026-04-06T16:38:13.238Z</time></trkpt><trkpt lat="45.550874" lon="12.3457134"><ele>2.5</ele><time>2026-04-06T16:38:15.25Z</time></trkpt><trkpt lat="45.5509555" lon="12.3457632"><ele>2.6666666666666665</ele><time>2026-04-06T16:38:17.234Z</time></trkpt><trkpt lat="45.5510261" lon="12.3458018"><ele>2.8333333333333335</ele><time>2026-04-06T16:38:19.222Z</time></trkpt><trkpt lat="45.5510979" lon="12.3458504"><ele>3.0</ele><time>2026-04-06T16:38:21.225Z</time></trkpt><trkpt lat="45.5511727" lon="12.3458865"><ele>2.8</ele><time>2026-04-06T16:38:23.227Z</time></trkpt><trkpt lat="45.5512548" lon="12.3459298"><ele>2.5999999999999996</ele><time>2026-04-06T16:38:25.242Z</time></trkpt><trkpt lat="45.5513439" lon="12.345983"><ele>2.4000000000000004</ele><time>2026-04-06T16:38:27.255Z</time></trkpt><trkpt lat="45.5514268" lon="12.3460271"><ele>2.2</ele><time>2026-04-06T16:38:29.241Z</time></trkpt><trkpt lat="45.5515079" lon="12.3460691"><ele>2.0</ele><time>2026-04-06T16:38:31.237Z</time></trkpt><trkpt lat="45.551596" lon="12.3461119"><ele>2.0</ele><time>2026-04-06T16:38:33.227Z</time></trkpt><trkpt lat="45.5516928" lon="12.3461601"><ele>2.0</ele><time>2026-04-06T16:38:35.229Z</time></trkpt><trkpt lat="45.551786" lon="12.3462048"><ele>2.0</ele><time>2026-04-06T16:38:37.231Z</time></trkpt><trkpt lat="45.5518798" lon="12.3462501"><ele>2.0</ele><time>2026-04-06T16:38:39.223Z</time></trkpt><trkpt lat="45.5519675" lon="12.3462951"><ele>2.0</ele><time>2026-04-06T16:38:41.228Z</time></trkpt><trkpt lat="45.552055" lon="12.346334"><ele>1.9999999999999998</ele><time>2026-04-06T16:38:43.243Z</time></trkpt><trkpt lat="45.552139" lon="12.3463714"><ele>2.0</ele><time>2026-04-06T16:38:45.231Z</time></trkpt><trkpt lat="45.5522173" lon="12.346404"><ele>2.0</ele><time>2026-04-06T16:38:47.241Z</time></trkpt><trkpt lat="45.5522982" lon="12.3464359"><ele>2.0</ele><time>2026-04-06T16:38:49.226Z</time></trkpt><trkpt lat="45.55239" lon="12.3464772"><ele>1.9999999999999998</ele><time>2026-04-06T16:38:51.226Z</time></trkpt><trkpt lat="45.5524807" lon="12.3465204"><ele>2.0</ele><time>2026-04-06T16:38:53.225Z</time></trkpt><trkpt lat="45.5525654" lon="12.3465629"><ele>2.0</ele><time>2026-04-06T16:38:55.243Z</time></trkpt><trkpt lat="45.5526557" lon="12.3465978"><ele>2.0</ele><time>2026-04-06T16:38:57.24Z</time></trkpt><trkpt lat="45.5527509" lon="12.3466375"><ele>2.0</ele><time>2026-04-06T16:38:59.226Z</time></trkpt><trkpt lat="45.5528486" lon="12.3466797"><ele>2.0</ele><time>2026-04-06T16:39:01.241Z</time></trkpt><trkpt lat="45.5529425" lon="12.3467167"><ele>2.0</ele><time>2026-04-06T16:39:03.221Z</time></trkpt><trkpt lat="45.5530377" lon="12.3467534"><ele>1.6</ele><time>2026-04-06T16:39:05.223Z</time></trkpt><trkpt lat="45.553132" lon="12.3467885"><ele>1.2000000000000002</ele><time>2026-04-06T16:39:07.244Z</time></trkpt><trkpt lat="45.5532222" lon="12.3468248"><ele>0.8</ele><time>2026-04-06T16:39:09.246Z</time></trkpt><trkpt lat="45.5533172" lon="12.3468636"><ele>0.4</ele><time>2026-04-06T16:39:11.235Z</time></trkpt><trkpt lat="45.5534143" lon="12.3468989"><ele>0.0</ele><time>2026-04-06T16:39:13.238Z</time></trkpt><trkpt lat="45.5535195" lon="12.346929"><ele>0.0</ele><time>2026-04-06T16:39:15.245Z</time></trkpt><trkpt lat="45.553621" lon="12.3469638"><ele>0.0</ele><time>2026-04-06T16:39:17.238Z</time></trkpt><trkpt lat="45.553726" lon="12.3469988"><ele>0.0</ele><time>2026-04-06T16:39:19.282Z</time></trkpt><trkpt lat="45.5538302" lon="12.347035"><ele>0.0</ele><time>2026-04-06T16:39:21.219Z</time></trkpt><trkpt lat="45.5539316" lon="12.3470794"><ele>0.0</ele><time>2026-04-06T16:39:23.221Z</time></trkpt><trkpt lat="45.5540358" lon="12.3471168"><ele>0.0</ele><time>2026-04-06T16:39:25.222Z</time></trkpt><trkpt lat="45.5541367" lon="12.3471516"><ele>0.0</ele><time>2026-04-06T16:39:27.217Z</time></trkpt><trkpt lat="45.5542406" lon="12.3471868"><ele>0.0</ele><time>2026-04-06T16:39:29.249Z</time></trkpt><trkpt lat="45.554346" lon="12.3472233"><ele>0.0</ele><time>2026-04-06T16:39:31.246Z</time></trkpt><trkpt lat="45.5544497" lon="12.3472575"><ele>0.0</ele><time>2026-04-06T16:39:33.237Z</time></trkpt><trkpt lat="45.5545565" lon="12.347293"><ele>0.4</ele><time>2026-04-06T16:39:35.229Z</time></trkpt><trkpt lat="45.5546599" lon="12.347324"><ele>0.8</ele><time>2026-04-06T16:39:37.239Z</time></trkpt><trkpt lat="45.5547661" lon="12.3473581"><ele>1.2000000000000002</ele><time>2026-04-06T16:39:39.244Z</time></trkpt><trkpt lat="45.5548693" lon="12.347391"><ele>1.6</ele><time>2026-04-06T16:39:41.218Z</time></trkpt><trkpt lat="45.5549732" lon="12.3474257"><ele>2.0</ele><time>2026-04-06T16:39:43.226Z</time></trkpt><trkpt lat="45.55508" lon="12.347458"><ele>2.0</ele><time>2026-04-06T16:39:45.242Z</time></trkpt><trkpt lat="45.5551887" lon="12.3474887"><ele>2.0</ele><time>2026-04-06T16:39:47.24Z</time></trkpt><trkpt lat="45.5552877" lon="12.3475213"><ele>2.0</ele><time>2026-04-06T16:39:49.242Z</time></trkpt><trkpt lat="45.5553793" lon="12.3475528"><ele>2.0</ele><time>2026-04-06T16:39:51.245Z</time></trkpt><trkpt lat="45.5554691" lon="12.347581"><ele>2.0</ele><time>2026-04-06T16:39:53.237Z</time></trkpt><trkpt lat="45.5555528" lon="12.3475859"><ele>2.0</ele><time>2026-04-06T16:39:55.238Z</time></trkpt><trkpt lat="45.5556313" lon="12.3475896"><ele>1.9999999999999998</ele><time>2026-04-06T16:39:57.243Z</time></trkpt><trkpt lat="45.5557052" lon="12.3476177"><ele>2.0</ele><time>2026-04-06T16:39:59.224Z</time></trkpt><trkpt lat="45.5557694" lon="12.3476356"><ele>2.0</ele><time>2026-04-06T16:40:01.23Z</time></trkpt><trkpt lat="45.55585" lon="12.3476744"><ele>1.9999999999999998</ele><time>2026-04-06T16:40:05.226Z</time></trkpt><trkpt lat="45.5559119" lon="12.3477022"><ele>2.0</ele><time>2026-04-06T16:40:08.227Z</time></trkpt><trkpt lat="45.5559753" lon="12.3477276"><ele>2.0</ele><time>2026-04-06T16:40:11.238Z</time></trkpt><trkpt lat="45.5560128" lon="12.3478017"><ele>1.9999999999999998</ele><time>2026-04-06T16:40:17.225Z</time></trkpt><trkpt lat="45.5559598" lon="12.3478798"><ele>2.0</ele><time>2026-04-06T16:40:21.224Z</time></trkpt><trkpt lat="45.5559481" lon="12.3479733"><ele>2.0</ele><time>2026-04-06T16:40:23.235Z</time></trkpt><trkpt lat="45.555944" lon="12.3480802"><ele>2.0</ele><time>2026-04-06T16:40:25.24Z</time></trkpt><trkpt lat="45.5559359" lon="12.3482115"><ele>1.9999999999999998</ele><time>2026-04-06T16:40:27.244Z</time></trkpt><trkpt lat="45.5559262" lon="12.3483506"><ele>2.0</ele><time>2026-04-06T16:40:29.237Z</time></trkpt><trkpt lat="45.5559152" lon="12.348488"><ele>1.8</ele><time>2026-04-06T16:40:31.216Z</time></trkpt><trkpt lat="45.5558972" lon="12.3486283"><ele>1.6</ele><time>2026-04-06T16:40:33.241Z</time></trkpt><trkpt lat="45.5558803" lon="12.3487667"><ele>1.4000000000000001</ele><time>2026-04-06T16:40:35.248Z</time></trkpt><trkpt lat="45.555868" lon="12.3488922"><ele>1.2000000000000002</ele><time>2026-04-06T16:40:37.242Z</time></trkpt><trkpt lat="45.5558557" lon="12.3490324"><ele>1.0</ele><time>2026-04-06T16:40:39.241Z</time></trkpt><trkpt lat="45.5558448" lon="12.3491558"><ele>1.0</ele><time>2026-04-06T16:40:41.23Z</time></trkpt><trkpt lat="45.5558334" lon="12.3492802"><ele>1.0</ele><time>2026-04-06T16:40:43.236Z</time></trkpt><trkpt lat="45.5558222" lon="12.349419"><ele>1.0</ele><time>2026-04-06T16:40:45.243Z</time></trkpt><trkpt lat="45.5558082" lon="12.3495635"><ele>1.0</ele><time>2026-04-06T16:40:47.238Z</time></trkpt><trkpt lat="45.555788" lon="12.3497022"><ele>1.0</ele><time>2026-04-06T16:40:49.241Z</time></trkpt><trkpt lat="45.5557667" lon="12.349849"><ele>0.8</ele><time>2026-04-06T16:40:51.244Z</time></trkpt><trkpt lat="45.5557489" lon="12.3499868"><ele>0.6000000000000001</ele><time>2026-04-06T16:40:53.227Z</time></trkpt><trkpt lat="45.5557309" lon="12.3501239"><ele>0.4</ele><time>2026-04-06T16:40:55.238Z</time></trkpt><trkpt lat="45.5557087" lon="12.3502656"><ele>0.2</ele><time>2026-04-06T16:40:57.234Z</time></trkpt><trkpt lat="45.5556884" lon="12.3504092"><ele>0.0</ele><time>2026-04-06T16:40:59.235Z</time></trkpt><trkpt lat="45.5556669" lon="12.3505588"><ele>0.0</ele><time>2026-04-06T16:41:01.228Z</time></trkpt><trkpt lat="45.5556463" lon="12.3507011"><ele>0.0</ele><time>2026-04-06T16:41:03.223Z</time></trkpt><trkpt lat="45.5556284" lon="12.3508432"><ele>0.0</ele><time>2026-04-06T16:41:05.221Z</time></trkpt><trkpt lat="45.5556097" lon="12.3509887"><ele>0.0</ele><time>2026-04-06T16:41:07.224Z</time></trkpt><trkpt lat="45.5555899" lon="12.3511353"><ele>0.0</ele><time>2026-04-06T16:41:09.237Z</time></trkpt><trkpt lat="45.5555685" lon="12.3512801"><ele>-0.2</ele><time>2026-04-06T16:41:11.237Z</time></trkpt><trkpt lat="45.5555466" lon="12.3514277"><ele>-0.4</ele><time>2026-04-06T16:41:13.234Z</time></trkpt><trkpt lat="45.5555301" lon="12.3515696"><ele>-0.6000000000000001</ele><time>2026-04-06T16:41:15.232Z</time></trkpt><trkpt lat="45.5555107" lon="12.3517195"><ele>-0.8</ele><time>2026-04-06T16:41:17.238Z</time></trkpt><trkpt lat="45.5554907" lon="12.3518623"><ele>-1.0</ele><time>2026-04-06T16:41:19.229Z</time></trkpt><trkpt lat="45.5554703" lon="12.3520055"><ele>-1.0</ele><time>2026-04-06T16:41:21.233Z</time></trkpt><trkpt lat="45.5554518" lon="12.3521443"><ele>-1.0</ele><time>2026-04-06T16:41:23.221Z</time></trkpt><trkpt lat="45.5554322" lon="12.3522869"><ele>-1.0</ele><time>2026-04-06T16:41:25.234Z</time></trkpt><trkpt lat="45.5554133" lon="12.3524276"><ele>-1.0</ele><time>2026-04-06T16:41:27.224Z</time></trkpt><trkpt lat="45.5553928" lon="12.352582"><ele>-1.0</ele><time>2026-04-06T16:41:29.222Z</time></trkpt><trkpt lat="45.5553721" lon="12.3527101"><ele>-0.6000000000000001</ele><time>2026-04-06T16:41:31.239Z</time></trkpt><trkpt lat="45.5553483" lon="12.3528478"><ele>-0.20000000000000007</ele><time>2026-04-06T16:41:33.221Z</time></trkpt><trkpt lat="45.5553277" lon="12.3529915"><ele>0.20000000000000007</ele><time>2026-04-06T16:41:35.243Z</time></trkpt><trkpt lat="45.5553086" lon="12.3531318"><ele>0.6000000000000001</ele><time>2026-04-06T16:41:37.253Z</time></trkpt><trkpt lat="45.555291" lon="12.3532598"><ele>1.0</ele><time>2026-04-06T16:41:39.231Z</time></trkpt><trkpt lat="45.5552709" lon="12.3533951"><ele>0.9999999999999999</ele><time>2026-04-06T16:41:41.232Z</time></trkpt><trkpt lat="45.5552561" lon="12.3535181"><ele>1.0</ele><time>2026-04-06T16:41:43.232Z</time></trkpt><trkpt lat="45.5552416" lon="12.3536317"><ele>1.0</ele><time>2026-04-06T16:41:45.241Z</time></trkpt><trkpt lat="45.5552361" lon="12.3537265"><ele>1.0</ele><time>2026-04-06T16:41:47.225Z</time></trkpt><trkpt lat="45.5552523" lon="12.3538282"><ele>0.9999999999999999</ele><time>2026-04-06T16:41:50.242Z</time></trkpt><trkpt lat="45.5553081" lon="12.3538912"><ele>1.0</ele><time>2026-04-06T16:41:52.226Z</time></trkpt><trkpt lat="45.5554107" lon="12.3539469"><ele>1.0</ele><time>2026-04-06T16:41:54.229Z</time></trkpt><trkpt lat="45.5555077" lon="12.3540025"><ele>1.0</ele><time>2026-04-06T16:41:56.229Z</time></trkpt><trkpt lat="45.555618" lon="12.3540526"><ele>1.0</ele><time>2026-04-06T16:41:58.228Z</time></trkpt><trkpt lat="45.5557135" lon="12.3540969"><ele>1.0</ele><time>2026-04-06T16:42:00.217Z</time></trkpt><trkpt lat="45.5557959" lon="12.3541367"><ele>1.0</ele><time>2026-04-06T16:42:02.221Z</time></trkpt><trkpt lat="45.5558744" lon="12.3541732"><ele>1.0</ele><time>2026-04-06T16:42:04.249Z</time></trkpt><trkpt lat="45.5559525" lon="12.3542115"><ele>1.0</ele><time>2026-04-06T16:42:06.227Z</time></trkpt><trkpt lat="45.5560225" lon="12.3542479"><ele>1.0</ele><time>2026-04-06T16:42:08.236Z</time></trkpt><trkpt lat="45.5561143" lon="12.3542934"><ele>1.0</ele><time>2026-04-06T16:42:10.234Z</time></trkpt><trkpt lat="45.5562143" lon="12.3543445"><ele>1.0</ele><time>2026-04-06T16:42:12.251Z</time></trkpt><trkpt lat="45.5563089" lon="12.3543834"><ele>0.8</ele><time>2026-04-06T16:42:14.22Z</time></trkpt><trkpt lat="45.5564033" lon="12.3544315"><ele>0.6000000000000001</ele><time>2026-04-06T16:42:16.247Z</time></trkpt><trkpt lat="45.5564889" lon="12.3544747"><ele>0.4</ele><time>2026-04-06T16:42:18.234Z</time></trkpt><trkpt lat="45.5565818" lon="12.3545167"><ele>0.2</ele><time>2026-04-06T16:42:20.238Z</time></trkpt><trkpt lat="45.5566774" lon="12.354561"><ele>0.0</ele><time>2026-04-06T16:42:22.246Z</time></trkpt><trkpt lat="45.5567702" lon="12.3546056"><ele>0.0</ele><time>2026-04-06T16:42:24.23Z</time></trkpt><trkpt lat="45.5568677" lon="12.3546504"><ele>0.0</ele><time>2026-04-06T16:42:26.23Z</time></trkpt><trkpt lat="45.5569686" lon="12.3546921"><ele>0.0</ele><time>2026-04-06T16:42:28.225Z</time></trkpt><trkpt lat="45.5570631" lon="12.3547452"><ele>0.0</ele><time>2026-04-06T16:42:30.228Z</time></trkpt><trkpt lat="45.5571166" lon="12.3548685"><ele>0.0</ele><time>2026-04-06T16:42:32.222Z</time></trkpt><trkpt lat="45.557094" lon="12.3550092"><ele>0.0</ele><time>2026-04-06T16:42:34.226Z</time></trkpt><trkpt lat="45.5570505" lon="12.355163"><ele>0.0</ele><time>2026-04-06T16:42:36.24Z</time></trkpt><trkpt lat="45.5570048" lon="12.3553135"><ele>0.0</ele><time>2026-04-06T16:42:38.223Z</time></trkpt><trkpt lat="45.5569655" lon="12.355463"><ele>0.0</ele><time>2026-04-06T16:42:40.232Z</time></trkpt><trkpt lat="45.5569279" lon="12.355607"><ele>-0.25</ele><time>2026-04-06T16:42:42.238Z</time></trkpt><trkpt lat="45.5568882" lon="12.3557497"><ele>-0.5</ele><time>2026-04-06T16:42:44.247Z</time></trkpt><trkpt lat="45.5568506" lon="12.3559025"><ele>-0.75</ele><time>2026-04-06T16:42:46.233Z</time></trkpt><trkpt lat="45.5568126" lon="12.3560557"><ele>-1.0</ele><time>2026-04-06T16:42:48.233Z</time></trkpt><trkpt lat="45.5567689" lon="12.3562082"><ele>-1.0</ele><time>2026-04-06T16:42:50.251Z</time></trkpt><trkpt lat="45.5567271" lon="12.3563558"><ele>-1.0</ele><time>2026-04-06T16:42:52.238Z</time></trkpt><trkpt lat="45.556692" lon="12.3564952"><ele>-1.0</ele><time>2026-04-06T16:42:54.267Z</time></trkpt><trkpt lat="45.55666" lon="12.3566238"><ele>-1.0</ele><time>2026-04-06T16:42:56.238Z</time></trkpt><trkpt lat="45.5566287" lon="12.3567608"><ele>-1.0</ele><time>2026-04-06T16:42:58.231Z</time></trkpt><trkpt lat="45.5565873" lon="12.3569058"><ele>-0.6000000000000001</ele><time>2026-04-06T16:43:00.218Z</time></trkpt><trkpt lat="45.5565484" lon="12.3570509"><ele>-0.20000000000000007</ele><time>2026-04-06T16:43:02.231Z</time></trkpt><trkpt lat="45.5565053" lon="12.3572021"><ele>0.20000000000000007</ele><time>2026-04-06T16:43:04.218Z</time></trkpt><trkpt lat="45.5564671" lon="12.3573429"><ele>0.6000000000000001</ele><time>2026-04-06T16:43:06.232Z</time></trkpt><trkpt lat="45.5564295" lon="12.3574717"><ele>1.0</ele><time>2026-04-06T16:43:08.245Z</time></trkpt><trkpt lat="45.556393" lon="12.3576144"><ele>1.2000000000000002</ele><time>2026-04-06T16:43:10.231Z</time></trkpt><trkpt lat="45.5563622" lon="12.3577538"><ele>1.4000000000000001</ele><time>2026-04-06T16:43:12.251Z</time></trkpt><trkpt lat="45.5563228" lon="12.3578913"><ele>1.6</ele><time>2026-04-06T16:43:14.236Z</time></trkpt><trkpt lat="45.5562904" lon="12.3580144"><ele>1.8</ele><time>2026-04-06T16:43:16.237Z</time></trkpt><trkpt lat="45.5562684" lon="12.3581463"><ele>2.0</ele><time>2026-04-06T16:43:18.237Z</time></trkpt><trkpt lat="45.556298" lon="12.3582967"><ele>2.0</ele><time>2026-04-06T16:43:20.237Z</time></trkpt><trkpt lat="45.556341" lon="12.3583981"><ele>2.0</ele><time>2026-04-06T16:43:22.237Z</time></trkpt><trkpt lat="45.5563883" lon="12.3585261"><ele>2.0</ele><time>2026-04-06T16:43:24.232Z</time></trkpt><trkpt lat="45.5564238" lon="12.3586446"><ele>2.0</ele><time>2026-04-06T16:43:26.223Z</time></trkpt><trkpt lat="45.5564621" lon="12.3587846"><ele>2.0</ele><time>2026-04-06T16:43:28.24Z</time></trkpt><trkpt lat="45.556492" lon="12.3589117"><ele>1.8</ele><time>2026-04-06T16:43:30.236Z</time></trkpt><trkpt lat="45.5565285" lon="12.3590136"><ele>1.6</ele><time>2026-04-06T16:43:32.24Z</time></trkpt><trkpt lat="45.5565955" lon="12.3590963"><ele>1.4000000000000001</ele><time>2026-04-06T16:43:34.248Z</time></trkpt><trkpt lat="45.5566918" lon="12.35914"><ele>1.2000000000000002</ele><time>2026-04-06T16:43:36.24Z</time></trkpt><trkpt lat="45.5567948" lon="12.3591717"><ele>1.0</ele><time>2026-04-06T16:43:38.246Z</time></trkpt><trkpt lat="45.5568781" lon="12.3592091"><ele>1.0</ele><time>2026-04-06T16:43:40.234Z</time></trkpt><trkpt lat="45.556943" lon="12.3592178"><ele>0.9999999999999999</ele><time>2026-04-06T16:43:44.235Z</time></trkpt><trkpt lat="45.5568902" lon="12.3591617"><ele>1.0</ele><time>2026-04-06T16:43:49.243Z</time></trkpt><trkpt lat="45.5568067" lon="12.3591685"><ele>1.0</ele><time>2026-04-06T16:43:53.248Z</time></trkpt><trkpt lat="45.5567491" lon="12.3590991"><ele>0.9999999999999999</ele><time>2026-04-06T16:43:57.243Z</time></trkpt><trkpt lat="45.5566905" lon="12.3590616"><ele>1.0</ele><time>2026-04-06T16:44:00.242Z</time></trkpt><trkpt lat="45.55661" lon="12.3590617"><ele>1.0</ele><time>2026-04-06T16:44:05.239Z</time></trkpt><trkpt lat="45.5565448" lon="12.3590333"><ele>0.9999999999999999</ele><time>2026-04-06T16:44:09.242Z</time></trkpt><trkpt lat="45.5565173" lon="12.3589406"><ele>1.0</ele><time>2026-04-06T16:44:13.256Z</time></trkpt><trkpt lat="45.5565057" lon="12.3588208"><ele>1.0</ele><time>2026-04-06T16:44:16.231Z</time></trkpt><trkpt lat="45.5564903" lon="12.3587236"><ele>1.0</ele><time>2026-04-06T16:44:18.255Z</time></trkpt><trkpt lat="45.5564575" lon="12.3586389"><ele>0.9999999999999999</ele><time>2026-04-06T16:44:21.234Z</time></trkpt><trkpt lat="45.5564269" lon="12.3585441"><ele>1.0</ele><time>2026-04-06T16:44:24.238Z</time></trkpt><trkpt lat="45.5563927" lon="12.3584243"><ele>1.1666666666666665</ele><time>2026-04-06T16:44:27.231Z</time></trkpt><trkpt lat="45.556362" lon="12.3583112"><ele>1.3333333333333333</ele><time>2026-04-06T16:44:30.241Z</time></trkpt><trkpt lat="45.5563227" lon="12.3582115"><ele>1.5</ele><time>2026-04-06T16:44:34.246Z</time></trkpt><trkpt lat="45.5562762" lon="12.3581392"><ele>1.6666666666666665</ele><time>2026-04-06T16:44:37.22Z</time></trkpt><trkpt lat="45.556283" lon="12.3580346"><ele>1.8333333333333333</ele><time>2026-04-06T16:44:40.229Z</time></trkpt><trkpt lat="45.5563158" lon="12.3579283"><ele>2.0</ele><time>2026-04-06T16:44:43.225Z</time></trkpt><trkpt lat="45.5563399" lon="12.357823"><ele>1.9999999999999998</ele><time>2026-04-06T16:44:45.23Z</time></trkpt><trkpt lat="45.5563661" lon="12.3577275"><ele>2.0</ele><time>2026-04-06T16:44:47.223Z</time></trkpt><trkpt lat="45.5563887" lon="12.3576424"><ele>2.0</ele><time>2026-04-06T16:44:49.241Z</time></trkpt><trkpt lat="45.5564323" lon="12.3575204"><ele>2.0</ele><time>2026-04-06T16:44:52.245Z</time></trkpt><trkpt lat="45.5564703" lon="12.3574222"><ele>1.9999999999999998</ele><time>2026-04-06T16:44:54.233Z</time></trkpt><trkpt lat="45.5564955" lon="12.3573164"><ele>2.0</ele><time>2026-04-06T16:44:56.229Z</time></trkpt><trkpt lat="45.556514" lon="12.3572005"><ele>1.8333333333333333</ele><time>2026-04-06T16:44:58.221Z</time></trkpt><trkpt lat="45.5565413" lon="12.357098"><ele>1.6666666666666665</ele><time>2026-04-06T16:45:00.23Z</time></trkpt><trkpt lat="45.556572" lon="12.3569864"><ele>1.5</ele><time>2026-04-06T16:45:02.238Z</time></trkpt><trkpt lat="45.5566023" lon="12.3568696"><ele>1.3333333333333333</ele><time>2026-04-06T16:45:04.24Z</time></trkpt><trkpt lat="45.5566299" lon="12.3567715"><ele>1.1666666666666665</ele><time>2026-04-06T16:45:06.239Z</time></trkpt><trkpt lat="45.5566601" lon="12.3566653"><ele>1.0</ele><time>2026-04-06T16:45:08.226Z</time></trkpt><trkpt lat="45.5566931" lon="12.356557"><ele>0.9999999999999999</ele><time>2026-04-06T16:45:10.233Z</time></trkpt><trkpt lat="45.5567256" lon="12.3564513"><ele>1.0</ele><time>2026-04-06T16:45:12.234Z</time></trkpt><trkpt lat="45.5567532" lon="12.3563309"><ele>1.0</ele><time>2026-04-06T16:45:14.25Z</time></trkpt><trkpt lat="45.5567808" lon="12.3562319"><ele>1.0</ele><time>2026-04-06T16:45:16.25Z</time></trkpt><trkpt lat="45.5568138" lon="12.3561221"><ele>0.9999999999999999</ele><time>2026-04-06T16:45:18.245Z</time></trkpt><trkpt lat="45.5568463" lon="12.3560216"><ele>1.0</ele><time>2026-04-06T16:45:20.236Z</time></trkpt><trkpt lat="45.5568754" lon="12.355914"><ele>0.8333333333333333</ele><time>2026-04-06T16:45:22.218Z</time></trkpt><trkpt lat="45.5568962" lon="12.3558084"><ele>0.6666666666666666</ele><time>2026-04-06T16:45:24.227Z</time></trkpt><trkpt lat="45.5569208" lon="12.3557081"><ele>0.5</ele><time>2026-04-06T16:45:26.234Z</time></trkpt><trkpt lat="45.5569654" lon="12.3555846"><ele>0.3333333333333333</ele><time>2026-04-06T16:45:28.231Z</time></trkpt><trkpt lat="45.5570097" lon="12.3554629"><ele>0.16666666666666666</ele><time>2026-04-06T16:45:30.229Z</time></trkpt><trkpt lat="45.5570373" lon="12.355347"><ele>0.0</ele><time>2026-04-06T16:45:32.239Z</time></trkpt><trkpt lat="45.5570613" lon="12.3552403"><ele>0.0</ele><time>2026-04-06T16:45:34.236Z</time></trkpt><trkpt lat="45.5570865" lon="12.3551394"><ele>0.0</ele><time>2026-04-06T16:45:36.238Z</time></trkpt><trkpt lat="45.5571056" lon="12.3550475"><ele>0.0</ele><time>2026-04-06T16:45:38.24Z</time></trkpt><trkpt lat="45.5571435" lon="12.354922"><ele>0.0</ele><time>2026-04-06T16:45:41.229Z</time></trkpt><trkpt lat="45.5571455" lon="12.3547939"><ele>0.0</ele><time>2026-04-06T16:45:44.241Z</time></trkpt><trkpt lat="45.5570836" lon="12.3547019"><ele>0.0</ele><time>2026-04-06T16:45:46.234Z</time></trkpt><trkpt lat="45.5569984" lon="12.3546523"><ele>0.0</ele><time>2026-04-06T16:45:48.253Z</time></trkpt><trkpt lat="45.5569136" lon="12.3546138"><ele>0.0</ele><time>2026-04-06T16:45:50.237Z</time></trkpt><trkpt lat="45.5568407" lon="12.3545899"><ele>0.0</ele><time>2026-04-06T16:45:52.233Z</time></trkpt><trkpt lat="45.5567596" lon="12.3545616"><ele>0.0</ele><time>2026-04-06T16:45:54.236Z</time></trkpt><trkpt lat="45.5566696" lon="12.3545243"><ele>0.0</ele><time>2026-04-06T16:45:56.252Z</time></trkpt><trkpt lat="45.5565761" lon="12.35448"><ele>0.0</ele><time>2026-04-06T16:45:58.248Z</time></trkpt><trkpt lat="45.5564948" lon="12.354433"><ele>0.0</ele><time>2026-04-06T16:46:00.225Z</time></trkpt><trkpt lat="45.5564165" lon="12.354391"><ele>0.0</ele><time>2026-04-06T16:46:02.24Z</time></trkpt><trkpt lat="45.5563456" lon="12.354359"><ele>0.0</ele><time>2026-04-06T16:46:04.237Z</time></trkpt><trkpt lat="45.5562593" lon="12.3543198"><ele>0.0</ele><time>2026-04-06T16:46:06.224Z</time></trkpt><trkpt lat="45.5561673" lon="12.3542833"><ele>0.0</ele><time>2026-04-06T16:46:08.233Z</time></trkpt><trkpt lat="45.5560843" lon="12.3542479"><ele>0.0</ele><time>2026-04-06T16:46:10.241Z</time></trkpt><trkpt lat="45.5560016" lon="12.3542026"><ele>0.2</ele><time>2026-04-06T16:46:12.248Z</time></trkpt><trkpt lat="45.555891" lon="12.3541515"><ele>0.4</ele><time>2026-04-06T16:46:14.247Z</time></trkpt><trkpt lat="45.5557895" lon="12.3541036"><ele>0.6000000000000001</ele><time>2026-04-06T16:46:16.233Z</time></trkpt><trkpt lat="45.5556877" lon="12.354056"><ele>0.8</ele><time>2026-04-06T16:46:18.238Z</time></trkpt><trkpt lat="45.5555981" lon="12.3540129"><ele>1.0</ele><time>2026-04-06T16:46:20.237Z</time></trkpt><trkpt lat="45.5555143" lon="12.3539686"><ele>0.9999999999999999</ele><time>2026-04-06T16:46:22.237Z</time></trkpt><trkpt lat="45.5554216" lon="12.353921"><ele>1.0</ele><time>2026-04-06T16:46:24.247Z</time></trkpt><trkpt lat="45.5553373" lon="12.353872"><ele>1.0</ele><time>2026-04-06T16:46:26.254Z</time></trkpt><trkpt lat="45.5552777" lon="12.3538018"><ele>1.0</ele><time>2026-04-06T16:46:28.24Z</time></trkpt><trkpt lat="45.555237" lon="12.3537101"><ele>0.9999999999999999</ele><time>2026-04-06T16:46:30.234Z</time></trkpt><trkpt lat="45.5552435" lon="12.3536158"><ele>1.0</ele><time>2026-04-06T16:46:32.256Z</time></trkpt><trkpt lat="45.5552604" lon="12.3535274"><ele>0.9999999999999999</ele><time>2026-04-06T16:46:34.241Z</time></trkpt><trkpt lat="45.5552866" lon="12.353406"><ele>1.0</ele><time>2026-04-06T16:46:36.241Z</time></trkpt><trkpt lat="45.5553073" lon="12.3532778"><ele>1.0</ele><time>2026-04-06T16:46:38.243Z</time></trkpt><trkpt lat="45.5553257" lon="12.3531509"><ele>1.0</ele><time>2026-04-06T16:46:40.24Z</time></trkpt><trkpt lat="45.5553445" lon="12.3530338"><ele>0.9999999999999999</ele><time>2026-04-06T16:46:42.231Z</time></trkpt><trkpt lat="45.5553646" lon="12.3529241"><ele>1.0</ele><time>2026-04-06T16:46:44.243Z</time></trkpt><trkpt lat="45.5553804" lon="12.3528193"><ele>0.6666666666666666</ele><time>2026-04-06T16:46:46.248Z</time></trkpt><trkpt lat="45.5553988" lon="12.3527016"><ele>0.3333333333333333</ele><time>2026-04-06T16:46:48.229Z</time></trkpt><trkpt lat="45.5554224" lon="12.3525664"><ele>0.0</ele><time>2026-04-06T16:46:50.24Z</time></trkpt><trkpt lat="45.5554414" lon="12.3524486"><ele>-0.3333333333333333</ele><time>2026-04-06T16:46:52.241Z</time></trkpt><trkpt lat="45.5554623" lon="12.3523114"><ele>-0.6666666666666666</ele><time>2026-04-06T16:46:54.246Z</time></trkpt><trkpt lat="45.5554785" lon="12.3522043"><ele>-1.0</ele><time>2026-04-06T16:46:56.245Z</time></trkpt><trkpt lat="45.5554984" lon="12.3520846"><ele>-1.0</ele><time>2026-04-06T16:46:58.23Z</time></trkpt><trkpt lat="45.5555136" lon="12.3519559"><ele>-1.0</ele><time>2026-04-06T16:47:00.229Z</time></trkpt><trkpt lat="45.5555279" lon="12.3518326"><ele>-1.0</ele><time>2026-04-06T16:47:02.24Z</time></trkpt><trkpt lat="45.555546" lon="12.3517013"><ele>-1.0</ele><time>2026-04-06T16:47:04.237Z</time></trkpt><trkpt lat="45.5555621" lon="12.351578"><ele>-1.0</ele><time>2026-04-06T16:47:06.24Z</time></trkpt><trkpt lat="45.5555794" lon="12.351439"><ele>-0.8</ele><time>2026-04-06T16:47:08.23Z</time></trkpt><trkpt lat="45.5555974" lon="12.3513042"><ele>-0.6000000000000001</ele><time>2026-04-06T16:47:10.239Z</time></trkpt><trkpt lat="45.555614" lon="12.3511661"><ele>-0.4</ele><time>2026-04-06T16:47:12.235Z</time></trkpt><trkpt lat="45.5556389" lon="12.351035"><ele>-0.2</ele><time>2026-04-06T16:47:14.24Z</time></trkpt><trkpt lat="45.555657" lon="12.3508926"><ele>0.0</ele><time>2026-04-06T16:47:16.238Z</time></trkpt><trkpt lat="45.5556768" lon="12.3507487"><ele>0.0</ele><time>2026-04-06T16:47:18.239Z</time></trkpt><trkpt lat="45.5556986" lon="12.3506082"><ele>0.0</ele><time>2026-04-06T16:47:20.27Z</time></trkpt><trkpt lat="45.5557177" lon="12.350469"><ele>0.0</ele><time>2026-04-06T16:47:22.26Z</time></trkpt><trkpt lat="45.5557355" lon="12.3503268"><ele>0.0</ele><time>2026-04-06T16:47:24.246Z</time></trkpt><trkpt lat="45.5557548" lon="12.3501902"><ele>0.0</ele><time>2026-04-06T16:47:26.242Z</time></trkpt><trkpt lat="45.5557797" lon="12.3500393"><ele>0.0</ele><time>2026-04-06T16:47:28.251Z</time></trkpt><trkpt lat="45.5557995" lon="12.3498904"><ele>0.0</ele><time>2026-04-06T16:47:30.236Z</time></trkpt><trkpt lat="45.5558193" lon="12.3497478"><ele>0.0</ele><time>2026-04-06T16:47:32.23Z</time></trkpt><trkpt lat="45.555836" lon="12.349607"><ele>0.0</ele><time>2026-04-06T16:47:34.223Z</time></trkpt><trkpt lat="45.5558525" lon="12.3494612"><ele>0.0</ele><time>2026-04-06T16:47:36.241Z</time></trkpt><trkpt lat="45.555865" lon="12.349324"><ele>0.2</ele><time>2026-04-06T16:47:38.244Z</time></trkpt><trkpt lat="45.5558742" lon="12.3491756"><ele>0.4</ele><time>2026-04-06T16:47:40.242Z</time></trkpt><trkpt lat="45.5558754" lon="12.3490338"><ele>0.6000000000000001</ele><time>2026-04-06T16:47:42.246Z</time></trkpt><trkpt lat="45.5558841" lon="12.3488882"><ele>0.8</ele><time>2026-04-06T16:47:44.231Z</time></trkpt><trkpt lat="45.5559014" lon="12.3487361"><ele>1.0</ele><time>2026-04-06T16:47:46.239Z</time></trkpt><trkpt lat="45.5559172" lon="12.3485875"><ele>0.9999999999999999</ele><time>2026-04-06T16:47:48.323Z</time></trkpt><trkpt lat="45.5559317" lon="12.3484309"><ele>1.0</ele><time>2026-04-06T16:47:50.25Z</time></trkpt><trkpt lat="45.5559389" lon="12.3483054"><ele>1.0</ele><time>2026-04-06T16:47:52.246Z</time></trkpt><trkpt lat="45.5559436" lon="12.3482034"><ele>1.0</ele><time>2026-04-06T16:47:54.231Z</time></trkpt><trkpt lat="45.5559488" lon="12.3480966"><ele>0.9999999999999999</ele><time>2026-04-06T16:47:56.224Z</time></trkpt><trkpt lat="45.5559489" lon="12.3479918"><ele>1.0</ele><time>2026-04-06T16:47:58.237Z</time></trkpt><trkpt lat="45.5559669" lon="12.3479023"><ele>1.1666666666666665</ele><time>2026-04-06T16:48:00.24Z</time></trkpt><trkpt lat="45.5560021" lon="12.3478185"><ele>1.3333333333333333</ele><time>2026-04-06T16:48:02.232Z</time></trkpt><trkpt lat="45.5560604" lon="12.3477554"><ele>1.5</ele><time>2026-04-06T16:48:04.232Z</time></trkpt><trkpt lat="45.5561481" lon="12.3477733"><ele>1.6666666666666665</ele><time>2026-04-06T16:48:06.241Z</time></trkpt><trkpt lat="45.5562389" lon="12.3478195"><ele>1.8333333333333333</ele><time>2026-04-06T16:48:08.247Z</time></trkpt><trkpt lat="45.5563349" lon="12.347859"><ele>2.0</ele><time>2026-04-06T16:48:10.222Z</time></trkpt><trkpt lat="45.5564338" lon="12.3478912"><ele>1.4000000000000001</ele><time>2026-04-06T16:48:12.233Z</time></trkpt><trkpt lat="45.5565427" lon="12.3479223"><ele>0.8000000000000002</ele><time>2026-04-06T16:48:14.241Z</time></trkpt><trkpt lat="45.5566518" lon="12.3479549"><ele>0.19999999999999996</ele><time>2026-04-06T16:48:16.222Z</time></trkpt><trkpt lat="45.5567523" lon="12.3479874"><ele>-0.4</ele><time>2026-04-06T16:48:18.225Z</time></trkpt><trkpt lat="45.5568523" lon="12.3480221"><ele>-1.0</ele><time>2026-04-06T16:48:20.23Z</time></trkpt><trkpt lat="45.5569542" lon="12.3480553"><ele>-0.4</ele><time>2026-04-06T16:48:22.239Z</time></trkpt><trkpt lat="45.5570614" lon="12.3480898"><ele>0.19999999999999996</ele><time>2026-04-06T16:48:24.241Z</time></trkpt><trkpt lat="45.5571679" lon="12.3481239"><ele>0.8000000000000002</ele><time>2026-04-06T16:48:26.224Z</time></trkpt><trkpt lat="45.5572765" lon="12.3481507"><ele>1.4000000000000001</ele><time>2026-04-06T16:48:28.225Z</time></trkpt><trkpt lat="45.5573861" lon="12.3481827"><ele>2.0</ele><time>2026-04-06T16:48:30.22Z</time></trkpt><trkpt lat="45.5574961" lon="12.348222"><ele>2.0</ele><time>2026-04-06T16:48:32.227Z</time></trkpt><trkpt lat="45.557601" lon="12.3482575"><ele>2.0</ele><time>2026-04-06T16:48:34.236Z</time></trkpt><trkpt lat="45.5577073" lon="12.348289"><ele>2.0</ele><time>2026-04-06T16:48:36.231Z</time></trkpt><trkpt lat="45.5578167" lon="12.3483109"><ele>2.0</ele><time>2026-04-06T16:48:38.24Z</time></trkpt><trkpt lat="45.5579177" lon="12.3483417"><ele>2.0</ele><time>2026-04-06T16:48:40.225Z</time></trkpt><trkpt lat="45.5580134" lon="12.3483798"><ele>1.9999999999999998</ele><time>2026-04-06T16:48:42.226Z</time></trkpt><trkpt lat="45.5581114" lon="12.3484154"><ele>2.0</ele><time>2026-04-06T16:48:44.229Z</time></trkpt><trkpt lat="45.5582003" lon="12.3484534"><ele>2.0</ele><time>2026-04-06T16:48:46.239Z</time></trkpt><trkpt lat="45.558277" lon="12.3484831"><ele>2.0</ele><time>2026-04-06T16:48:48.236Z</time></trkpt><trkpt lat="45.5583472" lon="12.3485119"><ele>1.9999999999999998</ele><time>2026-04-06T16:48:50.227Z</time></trkpt><trkpt lat="45.5584205" lon="12.3485534"><ele>2.0</ele><time>2026-04-06T16:48:52.221Z</time></trkpt><trkpt lat="45.5584982" lon="12.3485809"><ele>2.0</ele><time>2026-04-06T16:48:54.236Z</time></trkpt><trkpt lat="45.5585746" lon="12.3486135"><ele>2.0</ele><time>2026-04-06T16:48:56.227Z</time></trkpt><trkpt lat="45.5586697" lon="12.3486696"><ele>2.0</ele><time>2026-04-06T16:48:58.241Z</time></trkpt><trkpt lat="45.5587679" lon="12.3487126"><ele>2.0</ele><time>2026-04-06T16:49:00.219Z</time></trkpt><trkpt lat="45.5588519" lon="12.3487395"><ele>2.0</ele><time>2026-04-06T16:49:02.24Z</time></trkpt><trkpt lat="45.5589449" lon="12.3487751"><ele>2.0</ele><time>2026-04-06T16:49:04.232Z</time></trkpt><trkpt lat="45.5590341" lon="12.3488044"><ele>2.0</ele><time>2026-04-06T16:49:06.253Z</time></trkpt><trkpt lat="45.5591483" lon="12.3488408"><ele>2.0</ele><time>2026-04-06T16:49:08.234Z</time></trkpt><trkpt lat="45.5592491" lon="12.3488747"><ele>2.0</ele><time>2026-04-06T16:49:10.245Z</time></trkpt><trkpt lat="45.5593509" lon="12.348903"><ele>2.0</ele><time>2026-04-06T16:49:12.23Z</time></trkpt><trkpt lat="45.55945" lon="12.3489359"><ele>2.0</ele><time>2026-04-06T16:49:14.236Z</time></trkpt><trkpt lat="45.5595495" lon="12.3489725"><ele>2.0</ele><time>2026-04-06T16:49:16.223Z</time></trkpt><trkpt lat="45.5596537" lon="12.3490051"><ele>2.0</ele><time>2026-04-06T16:49:18.241Z</time></trkpt><trkpt lat="45.5597473" lon="12.3490301"><ele>2.0</ele><time>2026-04-06T16:49:20.231Z</time></trkpt><trkpt lat="45.5598475" lon="12.3490579"><ele>2.0</ele><time>2026-04-06T16:49:22.239Z</time></trkpt><trkpt lat="45.5599527" lon="12.3490976"><ele>2.0</ele><time>2026-04-06T16:49:24.235Z</time></trkpt><trkpt lat="45.5600579" lon="12.3491349"><ele>2.0</ele><time>2026-04-06T16:49:26.242Z</time></trkpt><trkpt lat="45.5601654" lon="12.3491702"><ele>2.0</ele><time>2026-04-06T16:49:28.236Z</time></trkpt><trkpt lat="45.5602758" lon="12.349204"><ele>2.0</ele><time>2026-04-06T16:49:30.226Z</time></trkpt><trkpt lat="45.5603882" lon="12.3492387"><ele>2.0</ele><time>2026-04-06T16:49:32.235Z</time></trkpt><trkpt lat="45.5605" lon="12.3492703"><ele>1.8</ele><time>2026-04-06T16:49:34.226Z</time></trkpt><trkpt lat="45.5606048" lon="12.3493022"><ele>1.6</ele><time>2026-04-06T16:49:36.245Z</time></trkpt><trkpt lat="45.5607063" lon="12.3493324"><ele>1.4000000000000001</ele><time>2026-04-06T16:49:38.226Z</time></trkpt><trkpt lat="45.5608058" lon="12.3493611"><ele>1.2000000000000002</ele><time>2026-04-06T16:49:40.223Z</time></trkpt><trkpt lat="45.5609107" lon="12.3493972"><ele>1.0</ele><time>2026-04-06T16:49:42.236Z</time></trkpt><trkpt lat="45.5610169" lon="12.3494275"><ele>1.0</ele><time>2026-04-06T16:49:44.222Z</time></trkpt><trkpt lat="45.5611231" lon="12.3494562"><ele>1.0</ele><time>2026-04-06T16:49:46.227Z</time></trkpt><trkpt lat="45.5612233" lon="12.3494782"><ele>1.0</ele><time>2026-04-06T16:49:48.241Z</time></trkpt><trkpt lat="45.5613186" lon="12.3495054"><ele>1.0</ele><time>2026-04-06T16:49:50.243Z</time></trkpt><trkpt lat="45.5614125" lon="12.3495388"><ele>1.0</ele><time>2026-04-06T16:49:52.238Z</time></trkpt><trkpt lat="45.5615093" lon="12.3495699"><ele>1.2000000000000002</ele><time>2026-04-06T16:49:54.239Z</time></trkpt><trkpt lat="45.5616072" lon="12.3496014"><ele>1.4000000000000001</ele><time>2026-04-06T16:49:56.223Z</time></trkpt><trkpt lat="45.5617019" lon="12.3496338"><ele>1.6</ele><time>2026-04-06T16:49:58.234Z</time></trkpt><trkpt lat="45.5618147" lon="12.3496802"><ele>1.8</ele><time>2026-04-06T16:50:00.228Z</time></trkpt><trkpt lat="45.5619177" lon="12.3497418"><ele>2.0</ele><time>2026-04-06T16:50:02.234Z</time></trkpt><trkpt lat="45.5620087" lon="12.3498354"><ele>1.6</ele><time>2026-04-06T16:50:04.238Z</time></trkpt><trkpt lat="45.562079" lon="12.3499396"><ele>1.2000000000000002</ele><time>2026-04-06T16:50:06.241Z</time></trkpt><trkpt lat="45.5621406" lon="12.3500699"><ele>0.8</ele><time>2026-04-06T16:50:08.253Z</time></trkpt><trkpt lat="45.5621948" lon="12.3501937"><ele>0.4</ele><time>2026-04-06T16:50:10.237Z</time></trkpt><trkpt lat="45.562237" lon="12.3503012"><ele>0.0</ele><time>2026-04-06T16:50:12.22Z</time></trkpt><trkpt lat="45.5622799" lon="12.3504049"><ele>0.0</ele><time>2026-04-06T16:50:14.226Z</time></trkpt><trkpt lat="45.5623192" lon="12.3505088"><ele>0.0</ele><time>2026-04-06T16:50:16.238Z</time></trkpt><trkpt lat="45.5623557" lon="12.3506239"><ele>0.0</ele><time>2026-04-06T16:50:18.244Z</time></trkpt><trkpt lat="45.5624027" lon="12.3507288"><ele>0.0</ele><time>2026-04-06T16:50:20.242Z</time></trkpt><trkpt lat="45.5624509" lon="12.3508422"><ele>0.0</ele><time>2026-04-06T16:50:22.253Z</time></trkpt><trkpt lat="45.5624901" lon="12.3509644"><ele>0.0</ele><time>2026-04-06T16:50:24.238Z</time></trkpt><trkpt lat="45.5625381" lon="12.3510829"><ele>0.2</ele><time>2026-04-06T16:50:26.238Z</time></trkpt><trkpt lat="45.5625891" lon="12.3512041"><ele>0.4</ele><time>2026-04-06T16:50:28.257Z</time></trkpt><trkpt lat="45.5626417" lon="12.3513297"><ele>0.6000000000000001</ele><time>2026-04-06T16:50:30.243Z</time></trkpt><trkpt lat="45.562698" lon="12.351453"><ele>0.8</ele><time>2026-04-06T16:50:32.227Z</time></trkpt><trkpt lat="45.5627531" lon="12.3515797"><ele>1.0</ele><time>2026-04-06T16:50:34.226Z</time></trkpt><trkpt lat="45.5628035" lon="12.3517041"><ele>1.0</ele><time>2026-04-06T16:50:36.241Z</time></trkpt><trkpt lat="45.562855" lon="12.3518296"><ele>1.0</ele><time>2026-04-06T16:50:38.239Z</time></trkpt><trkpt lat="45.5629057" lon="12.3519562"><ele>1.0</ele><time>2026-04-06T16:50:40.224Z</time></trkpt><trkpt lat="45.5629541" lon="12.3520768"><ele>1.0</ele><time>2026-04-06T16:50:42.251Z</time></trkpt><trkpt lat="45.5630001" lon="12.3521817"><ele>1.0</ele><time>2026-04-06T16:50:44.228Z</time></trkpt><trkpt lat="45.5630447" lon="12.3522839"><ele>0.9999999999999999</ele><time>2026-04-06T16:50:46.247Z</time></trkpt><trkpt lat="45.5630872" lon="12.3523734"><ele>1.0</ele><time>2026-04-06T16:50:48.254Z</time></trkpt><trkpt lat="45.5631304" lon="12.3524549"><ele>1.0</ele><time>2026-04-06T16:50:50.243Z</time></trkpt><trkpt lat="45.563171" lon="12.3525238"><ele>1.0</ele><time>2026-04-06T16:50:52.242Z</time></trkpt><trkpt lat="45.5632171" lon="12.3526092"><ele>0.9999999999999999</ele><time>2026-04-06T16:50:54.229Z</time></trkpt><trkpt lat="45.5632601" lon="12.3526937"><ele>1.0</ele><time>2026-04-06T16:50:56.238Z</time></trkpt><trkpt lat="45.5633197" lon="12.352811"><ele>1.0</ele><time>2026-04-06T16:50:58.231Z</time></trkpt><trkpt lat="45.563369" lon="12.3528918"><ele>1.0</ele><time>2026-04-06T16:51:00.228Z</time></trkpt><trkpt lat="45.5634276" lon="12.3529803"><ele>1.0</ele><time>2026-04-06T16:51:02.24Z</time></trkpt><trkpt lat="45.5634976" lon="12.3530683"><ele>1.0</ele><time>2026-04-06T16:51:04.237Z</time></trkpt><trkpt lat="45.5635778" lon="12.3531477"><ele>1.0</ele><time>2026-04-06T16:51:06.241Z</time></trkpt><trkpt lat="45.5636587" lon="12.3532481"><ele>1.3333333333333333</ele><time>2026-04-06T16:51:08.226Z</time></trkpt><trkpt lat="45.5637196" lon="12.3533328"><ele>1.6666666666666665</ele><time>2026-04-06T16:51:10.229Z</time></trkpt><trkpt lat="45.5637915" lon="12.3534111"><ele>2.0</ele><time>2026-04-06T16:51:12.226Z</time></trkpt><trkpt lat="45.5638684" lon="12.3535"><ele>2.3333333333333335</ele><time>2026-04-06T16:51:14.228Z</time></trkpt><trkpt lat="45.5639364" lon="12.3535825"><ele>2.6666666666666665</ele><time>2026-04-06T16:51:16.244Z</time></trkpt><trkpt lat="45.5640048" lon="12.3536551"><ele>3.0</ele><time>2026-04-06T16:51:18.241Z</time></trkpt><trkpt lat="45.5640822" lon="12.3537347"><ele>3.0</ele><time>2026-04-06T16:51:20.242Z</time></trkpt><trkpt lat="45.5641625" lon="12.3538154"><ele>3.0</ele><time>2026-04-06T16:51:22.236Z</time></trkpt><trkpt lat="45.5642403" lon="12.3538848"><ele>3.0</ele><time>2026-04-06T16:51:24.237Z</time></trkpt><trkpt lat="45.5643332" lon="12.3539598"><ele>3.0</ele><time>2026-04-06T16:51:26.238Z</time></trkpt><trkpt lat="45.564428" lon="12.3540271"><ele>3.0</ele><time>2026-04-06T16:51:28.233Z</time></trkpt><trkpt lat="45.5645212" lon="12.3540735"><ele>2.8</ele><time>2026-04-06T16:51:30.218Z</time></trkpt><trkpt lat="45.5646093" lon="12.354127"><ele>2.5999999999999996</ele><time>2026-04-06T16:51:32.235Z</time></trkpt><trkpt lat="45.5646947" lon="12.3541719"><ele>2.4000000000000004</ele><time>2026-04-06T16:51:34.238Z</time></trkpt><trkpt lat="45.5647887" lon="12.3542008"><ele>2.2</ele><time>2026-04-06T16:51:36.237Z</time></trkpt><trkpt lat="45.5648876" lon="12.3542405"><ele>2.0</ele><time>2026-04-06T16:51:38.243Z</time></trkpt><trkpt lat="45.5649786" lon="12.3542802"><ele>2.0</ele><time>2026-04-06T16:51:40.231Z</time></trkpt><trkpt lat="45.5650686" lon="12.354316"><ele>2.0</ele><time>2026-04-06T16:51:42.243Z</time></trkpt><trkpt lat="45.565153" lon="12.3543453"><ele>2.0</ele><time>2026-04-06T16:51:44.236Z</time></trkpt><trkpt lat="45.5652425" lon="12.3543766"><ele>2.0</ele><time>2026-04-06T16:51:46.243Z</time></trkpt><trkpt lat="45.5653267" lon="12.3544051"><ele>2.0</ele><time>2026-04-06T16:51:48.227Z</time></trkpt><trkpt lat="45.5654371" lon="12.354443"><ele>2.0</ele><time>2026-04-06T16:51:50.235Z</time></trkpt><trkpt lat="45.5655378" lon="12.3544833"><ele>2.0</ele><time>2026-04-06T16:51:52.23Z</time></trkpt><trkpt lat="45.5656291" lon="12.354522"><ele>2.0</ele><time>2026-04-06T16:51:54.24Z</time></trkpt><trkpt lat="45.5657326" lon="12.3545472"><ele>2.0</ele><time>2026-04-06T16:51:56.23Z</time></trkpt><trkpt lat="45.5658325" lon="12.3545815"><ele>2.0</ele><time>2026-04-06T16:51:58.226Z</time></trkpt><trkpt lat="45.5659341" lon="12.3546212"><ele>2.0</ele><time>2026-04-06T16:52:00.25Z</time></trkpt><trkpt lat="45.5660303" lon="12.3546637"><ele>2.0</ele><time>2026-04-06T16:52:02.249Z</time></trkpt><trkpt lat="45.5661207" lon="12.3547011"><ele>2.0</ele><time>2026-04-06T16:52:04.25Z</time></trkpt><trkpt lat="45.5662171" lon="12.3547356"><ele>2.0</ele><time>2026-04-06T16:52:06.239Z</time></trkpt><trkpt lat="45.5663061" lon="12.3547718"><ele>2.0</ele><time>2026-04-06T16:52:08.237Z</time></trkpt><trkpt lat="45.5663918" lon="12.3548057"><ele>2.142857142857143</ele><time>2026-04-06T16:52:10.231Z</time></trkpt><trkpt lat="45.566477" lon="12.3548161"><ele>2.2857142857142856</ele><time>2026-04-06T16:52:12.251Z</time></trkpt><trkpt lat="45.5665479" lon="12.3547833"><ele>2.4285714285714284</ele><time>2026-04-06T16:52:14.221Z</time></trkpt><trkpt lat="45.5666147" lon="12.3547545"><ele>2.571428571428571</ele><time>2026-04-06T16:52:16.26Z</time></trkpt><trkpt lat="45.5666877" lon="12.3547618"><ele>2.7142857142857144</ele><time>2026-04-06T16:52:18.247Z</time></trkpt><trkpt lat="45.5667535" lon="12.3548011"><ele>2.8571428571428568</ele><time>2026-04-06T16:52:20.233Z</time></trkpt><trkpt lat="45.5668144" lon="12.3548377"><ele>3.0</ele><time>2026-04-06T16:52:22.239Z</time></trkpt><trkpt lat="45.5669013" lon="12.3547997"><ele>3.0</ele><time>2026-04-06T16:52:25.231Z</time></trkpt><trkpt lat="45.5669643" lon="12.3547454"><ele>3.0</ele><time>2026-04-06T16:52:27.236Z</time></trkpt><trkpt lat="45.5670107" lon="12.3546824"><ele>3.0</ele><time>2026-04-06T16:52:29.233Z</time></trkpt><trkpt lat="45.5670523" lon="12.3545868"><ele>3.0</ele><time>2026-04-06T16:52:31.238Z</time></trkpt><trkpt lat="45.5671048" lon="12.3544844"><ele>3.0</ele><time>2026-04-06T16:52:34.237Z</time></trkpt><trkpt lat="45.5671613" lon="12.3543998"><ele>3.0</ele><time>2026-04-06T16:52:37.231Z</time></trkpt><trkpt lat="45.5672113" lon="12.354295"><ele>2.8333333333333335</ele><time>2026-04-06T16:52:40.238Z</time></trkpt><trkpt lat="45.5672525" lon="12.3541982"><ele>2.6666666666666665</ele><time>2026-04-06T16:52:43.222Z</time></trkpt><trkpt lat="45.5672871" lon="12.3541176"><ele>2.5</ele><time>2026-04-06T16:52:45.24Z</time></trkpt><trkpt lat="45.5673392" lon="12.3540183"><ele>2.333333333333333</ele><time>2026-04-06T16:52:49.266Z</time></trkpt><trkpt lat="45.567383" lon="12.35394"><ele>2.1666666666666665</ele><time>2026-04-06T16:52:52.219Z</time></trkpt><trkpt lat="45.5674401" lon="12.3538433"><ele>2.0</ele><time>2026-04-06T16:52:56.247Z</time></trkpt><trkpt lat="45.567478" lon="12.3537642"><ele>1.9999999999999998</ele><time>2026-04-06T16:52:58.239Z</time></trkpt><trkpt lat="45.5675242" lon="12.3536625"><ele>2.0</ele><time>2026-04-06T16:53:00.232Z</time></trkpt><trkpt lat="45.5675704" lon="12.3535307"><ele>2.0</ele><time>2026-04-06T16:53:02.23Z</time></trkpt><trkpt lat="45.5676082" lon="12.3534088"><ele>2.0</ele><time>2026-04-06T16:53:04.238Z</time></trkpt><trkpt lat="45.5676486" lon="12.3533111"><ele>1.9999999999999998</ele><time>2026-04-06T16:53:06.241Z</time></trkpt><trkpt lat="45.5676884" lon="12.3532177"><ele>2.0</ele><time>2026-04-06T16:53:08.236Z</time></trkpt><trkpt lat="45.5677379" lon="12.3531131"><ele>1.8333333333333333</ele><time>2026-04-06T16:53:11.237Z</time></trkpt><trkpt lat="45.5677763" lon="12.3530296"><ele>1.6666666666666665</ele><time>2026-04-06T16:53:13.228Z</time></trkpt><trkpt lat="45.5678292" lon="12.3529104"><ele>1.5</ele><time>2026-04-06T16:53:16.243Z</time></trkpt><trkpt lat="45.567878" lon="12.3528249"><ele>1.3333333333333333</ele><time>2026-04-06T16:53:18.221Z</time></trkpt><trkpt lat="45.5679233" lon="12.3527554"><ele>1.1666666666666665</ele><time>2026-04-06T16:53:20.235Z</time></trkpt><trkpt lat="45.5679698" lon="12.3526856"><ele>1.0</ele><time>2026-04-06T16:53:22.233Z</time></trkpt><trkpt lat="45.5680235" lon="12.3525984"><ele>1.0</ele><time>2026-04-06T16:53:24.231Z</time></trkpt><trkpt lat="45.5680733" lon="12.352518"><ele>0.9999999999999999</ele><time>2026-04-06T16:53:26.253Z</time></trkpt><trkpt lat="45.5681133" lon="12.3524436"><ele>1.0</ele><time>2026-04-06T16:53:28.235Z</time></trkpt><trkpt lat="45.5681575" lon="12.3523558"><ele>1.0</ele><time>2026-04-06T16:53:31.238Z</time></trkpt><trkpt lat="45.5682004" lon="12.3522879"><ele>0.9999999999999999</ele><time>2026-04-06T16:53:35.231Z</time></trkpt><trkpt lat="45.568244" lon="12.3522024"><ele>1.0</ele><time>2026-04-06T16:53:37.248Z</time></trkpt><trkpt lat="45.5682928" lon="12.3520979"><ele>1.0</ele><time>2026-04-06T16:53:39.232Z</time></trkpt><trkpt lat="45.5683507" lon="12.3519844"><ele>0.8333333333333333</ele><time>2026-04-06T16:53:41.232Z</time></trkpt><trkpt lat="45.5684069" lon="12.3518906"><ele>0.6666666666666666</ele><time>2026-04-06T16:53:43.228Z</time></trkpt><trkpt lat="45.5684615" lon="12.3517976"><ele>0.5</ele><time>2026-04-06T16:53:45.232Z</time></trkpt><trkpt lat="45.5685158" lon="12.3516943"><ele>0.3333333333333333</ele><time>2026-04-06T16:53:47.24Z</time></trkpt><trkpt lat="45.5685708" lon="12.3515877"><ele>0.16666666666666666</ele><time>2026-04-06T16:53:49.231Z</time></trkpt><trkpt lat="45.5686249" lon="12.3514812"><ele>0.0</ele><time>2026-04-06T16:53:51.241Z</time></trkpt><trkpt lat="45.5686762" lon="12.3513774"><ele>0.0</ele><time>2026-04-06T16:53:53.244Z</time></trkpt><trkpt lat="45.5687311" lon="12.3512669"><ele>1.0</ele><time>2026-04-06T16:53:55.259Z</time></trkpt></trkseg></trk></gpx>